[[{"header":{"parameterUnit":"m.s-1","parameterCategory":1,"la1":30.6,"la2":29.2853,"lo1":-89.7004,"lo2":-87.6739,"dy":0.0162,"dx":0.0183,"nx":112,"ny":82,"refTime":"2023-04-28T18:00:00:Z","depth":0,"parameterNumber":2,"parameterNumberName":"U-component_of_WINDS"},"data":[0.0,0.0,0.0,0.0,0.0,0.0,0.0,0.0,0.0,0.0,0.0,0.0,0.0,0.0,0.0,0.0,0.0,0.0,0.0,0.0,0.0,0.0,0.0,0.0,0.0,0.0,0.0,0.0,0.0,0.0,0.0,0.0,0.0,0.0,0.0,0.0,0.0,0.0,0.0,0.0,0.0,0.0,0.0,0.0,0.0,0.0,0.0,0.0,0.0,0.0,0.0,0.0,0.0,0.0,0.0,0.0,0.0,0.0,0.0,0.0,0.0,0.0,0.0,0.0,0.0,0.0,0.0,0.0,0.0,0.0,0.0,0.0,0.0,0.0,0.0,0.0,0.0,0.0,0.0,0.0,0.0,0.0,0.0,0.0,0.0,0.0,0.0,0.0,0.0,0.0,0.3885,0.3068,0.1929,0.0548,-0.0997,-0.1716,-0.1631,-0.0568,0.0,0.0,0.0,0.0,0.0,0.0,0.0,0.0,0.0,0.0,0.0,0.0,0.0,0.0,0.0,0.0,0.0,0.0,0.0,0.0,0.0,0.0,0.0,0.0,0.0,0.0,0.0,0.0,0.0,0.0,0.0,0.0,0.0,0.0,0.0,0.0,0.0,0.0,0.0,0.0,0.0,0.0,0.0,0.0,0.0,0.0,0.0,0.0,0.0,0.0,0.0,0.0,0.0,0.0,0.0,0.0,0.0,0.0,0.0,0.0,0.0,0.0,0.0,0.0,0.0,0.0,0.0,0.0,0.0,0.0,0.0,0.0,0.0,0.0,0.0,0.0,0.0,0.0,0.0,0.0,0.0,0.0,0.0,0.0,0.0,0.0,0.0,0.0,0.0,0.0,0.0,0.0,0.0,0.0,0.0,0.0,0.0,0.0,0.0,0.0,0.0,0.0,0.0,0.0,0.3119,0.1713,0.1041,0.0404,-0.0482,-0.1531,-0.1841,-0.1272,0.0,0.0,0.0,0.0,0.0,0.0,0.0,0.0,0.0,0.0,0.0,0.0,0.0,0.0,0.0,0.0,0.0,0.0,0.0,0.0,0.0,0.0,0.0,0.0,0.0,0.0,0.0,0.0,0.0,0.0,0.0,0.0,0.0,0.0,0.0,0.0,0.0,0.0,0.0,0.0,0.0,0.0,0.0,0.0,0.0,0.0,0.0,0.0,0.0,0.0,0.0,0.0,0.0,0.0,0.0,0.0,0.0,0.0,0.0,0.0,0.0,0.0,0.0,0.0,0.0,0.0,0.0,0.0,0.0,0.0,0.0,0.0,0.0,0.0,0.0,0.0,0.0,0.0,0.0,0.0,0.0,0.0,0.0,0.0,0.0,0.0,0.0,0.0,0.0,0.0,0.0,0.0,0.0,0.0,0.0,0.0,0.0,0.0,0.0,0.0,0.0,0.0,0.0,0.2571,0.1919,0.139,-0.0,-0.1076,-0.1324,-0.2068,-0.2361,-0.194,-0.1649,0.0,0.0,0.0,0.0,0.0,0.0,0.0,0.0,0.0,0.0,0.0,0.0,0.0,0.0,0.0,0.0,0.0,0.0,0.0,0.0,0.0,0.0,0.0,0.0,0.0,0.0,0.0,0.0,0.0,0.0,0.0,0.0,0.0,0.0,0.0,0.0,0.0,0.0,0.0,0.0,0.0,0.0,0.0,0.0,0.0,0.0,0.0,0.0,0.0,0.0,0.0,0.0,0.0,0.0,0.0,0.0,0.0,0.0,0.0,0.0,0.0,0.0,0.0,0.0,0.0,0.0,0.0,0.0,0.0,0.0,0.0,0.0,0.0,0.0,0.0,0.0,0.0,0.0,0.0,0.0,0.0,0.0,0.0,0.0,0.0,0.0,0.0,0.0,0.0,0.0,0.0,0.0,0.0,0.0,0.0,0.0,0.0,0.0,0.0,0.0,0.0,0.0,0.1444,0.0883,0.0749,-0.1009,-0.236,-0.2627,-0.2963,-0.2814,-0.2258,-0.1817,0.0,0.0,0.0,0.0,0.0,0.0,0.0,0.0,0.0,0.0,0.0,0.0,0.0,0.0,0.0,0.0,0.0,0.0,0.0,0.0,0.0,0.0,0.0,0.0,0.0,0.0,0.0,0.0,0.0,0.0,0.0,0.0,0.0,0.0,0.0,0.0,0.0,0.0,0.0,0.0,0.0,0.0,0.0,0.0,0.0,0.0,0.0,0.0,0.0,0.0,0.0,0.0,0.0,0.0,0.0,0.0,0.0,0.0,0.0,0.0,0.0,0.0,0.0,0.0,0.0,0.0,0.0,0.0,0.0,0.0,0.0,0.0,0.0,0.0,0.0,0.0,0.0,0.0,0.0,0.0,0.0,0.0,0.0,0.0,0.0,0.0,0.0,0.0,0.0,0.0,0.0,0.0,0.0,0.0,0.0,0.0,0.0,0.0,0.0,0.0,0.0,0.0,0.1539,0.0397,-0.0752,-0.1681,-0.2713,-0.3896,-0.3988,-0.3357,-0.1764,-0.1608,0.0,0.0,0.0,0.0,0.0,0.0,0.0,0.0,0.0,0.0,0.0,0.0,0.0,0.0,0.0,0.0,0.0,0.0,0.0,0.0,0.0,0.0,0.0,0.0,0.0,0.0,0.0,0.0,0.0,0.0,0.0,0.0,0.0,0.0,0.0,0.0,0.0,0.0,0.0,0.0,0.0,0.0,0.0,0.0,0.0,0.0,0.0,0.0,0.0,0.0,0.0,0.0,0.0,0.0,0.0,0.0,0.0,0.0,0.0,0.0,0.0,0.0,0.0,0.0,0.0,0.0,0.0,0.0,0.0,0.0,0.0,0.0,0.0,0.0,0.0,0.0,0.0,0.0,0.0,0.0,0.0,0.0,0.0,0.0,0.0,0.0,0.0,0.0,0.0,0.0,0.0,0.0,0.0,0.0,0.0,0.0,0.0,0.0,0.0,0.0,0.0,0.0,0.0381,-0.0328,0.0,-0.2625,-0.3845,-0.4606,-0.4428,-0.3771,-0.2331,0.0,0.0,0.0,0.0,0.0,0.0,0.0,0.0,0.0,0.0,0.0,0.0,0.0,0.0,0.0,0.0,0.0,0.0,0.0,0.0,0.0,0.0,0.0,0.0,0.0,0.0,0.0,0.0,0.0,0.0,0.0,0.0,0.0,0.0,0.0,0.0,0.0,0.0,0.0,0.0,0.0,0.0,0.0,0.0,0.0,0.0,0.0,0.0,0.0,0.0,0.0,0.0,0.0,0.0,0.0,0.0,0.0,0.0,0.0,0.0,0.0,0.0,0.0,0.0,0.0,0.0,0.0,0.0,0.0,0.0,0.0,0.0,0.0,0.0,0.0,0.0,0.0,0.0,0.0,0.0,0.0,0.0,0.0,0.0,0.0,0.0,0.0,0.0,0.0,0.0,0.0,0.0,0.0,0.0,0.0,0.0,0.0,0.0,0.0,0.0,0.0,0.0,-0.0,-0.0467,-0.1089,0.0,-0.3105,-0.4072,-0.4741,-0.4559,-0.3989,-0.2823,0.0,0.0,0.0,0.0,0.0,0.0,0.0,0.0,0.0,0.0,0.0,0.0,0.0,0.0,0.0,0.0,0.0,0.0,0.0,0.0,0.0,0.0,0.0,0.0,0.0,0.0,0.0,0.0,0.0,0.0,0.0,0.0,0.0,0.0,0.0,0.0,0.0,0.0,0.0,0.0,0.0,0.0,0.0,0.0,0.0,0.0,0.0,0.0,0.0,0.0,0.0,0.0,0.0,0.0,0.0,0.0,0.0,0.0,0.0,0.0,0.0,0.0,0.0,0.0,0.0,0.0,0.0,0.0,0.0,0.0,0.0,0.0,0.0,0.0,0.0,0.0,0.0,0.0,0.0,0.0,0.0,0.0,0.0,0.0,0.0,0.0,0.0,0.0,0.0,0.0,0.0,0.0,0.0,0.0,0.0,0.0,0.0,0.0,0.0,0.0,0.0,0.0,-0.014,-0.0939,-0.1865,-0.2858,-0.2951,-0.3325,-0.42,-0.4297,-0.3933,0.0,0.0,0.0,0.0,0.0,0.0,0.0,0.0,0.0,0.0,0.0,0.0,0.0,0.0,0.0,0.0,0.0,0.0,0.0,0.0,0.0,0.0,0.0,0.0,0.0,0.0,0.0,0.0,0.0,0.0,0.0,0.0,0.0,0.0,0.0,0.0,0.0,0.0,0.0,0.0,0.0,0.0,0.0,0.0,0.0,0.0,0.0,0.0,0.0,0.0,0.0,0.0,0.0,0.0,0.0,0.0,0.0,0.0,0.0,0.0,0.0,0.0,0.0,0.0,0.0,0.0,0.0,0.0,0.0,0.0,0.0,0.0,0.0,0.0,0.0,0.0,0.0,0.0,0.0,0.0,0.0,0.0,0.0,0.0,0.0,0.0,0.0,0.0,0.0,0.0,0.0,0.0,0.0,0.0,0.0,0.0,0.0,0.0,0.0,0.0,0.0,0.0,0.0,-0.1627,-0.271,-0.3612,-0.3901,-0.4168,-0.4594,-0.5082,-0.5336,-0.4889,-0.3676,0.0,0.0,0.0,0.0,0.0,0.0,0.0,0.0,0.0,0.0,0.0,0.0,0.0,0.0,0.0,0.0,0.0,0.0,0.0,0.0,0.0,0.0,0.0,0.0,0.0,0.0,0.0,0.0,0.0,0.0,0.0,0.0,0.0,0.0,0.0,0.0,0.0,0.0,0.0,0.0,0.0,0.0,0.0,0.0,0.0,0.0,0.0,0.0,0.0,0.0,0.0,0.0,0.0,0.0,0.0,0.0,0.0,0.0,0.0,0.0,0.0,0.0,0.0,0.0,0.0,0.0,0.0,0.0,0.0,0.0,0.0,0.0,0.0,0.0,0.0,0.0,0.0,0.0,0.0,0.0,0.0,0.0,0.0,0.0,0.0,0.0,0.0,0.0,0.0,0.0,0.0,0.0,0.0,0.0,0.0,0.0,0.0,0.0,0.0,0.0,0.0,0.0,-0.204,-0.3434,-0.4478,-0.4565,-0.501,-0.5534,-0.6128,-0.6253,-0.6074,-0.5597,0.0,0.0,0.0,0.0,0.0,0.0,0.0,0.0,0.0,0.0,0.0,0.0,0.0,0.0,0.0,0.0,0.0,0.0,0.0,0.0,0.0,0.0,0.0,0.0,0.0,0.0,0.0,0.0,0.0,0.0,0.0,0.0,0.0,0.0,0.0,0.0,0.0,0.0,0.0,0.0,0.0,0.0,0.0,0.0,0.0,0.0,0.0,0.0,0.0,0.0,0.0,0.0,0.0,0.0,0.0,0.0,0.0,0.0,0.0,0.0,0.0,0.0,0.0,0.0,0.0,0.0,0.0,0.0,0.0,0.0,0.0,0.0,0.0,0.0,0.0,0.0,0.0,0.0,0.0,0.0,0.0,0.0,0.0,0.0,0.0,0.0,0.0,0.0,0.0,0.0,0.0,0.0,0.0,0.0,0.0,0.0,0.0,0.0,0.0,0.0,0.0,0.0,-0.1739,-0.3441,-0.4757,-0.501,-0.5453,-0.6117,-0.7044,-0.7029,-0.7316,-0.8147,0.0,0.0,0.0,0.0,0.0,0.0,0.0,0.0,0.0,0.0,0.0,0.0,0.0,0.0,0.0,0.0,0.0,0.0,0.0,0.0,0.0,0.0,0.0,0.0,0.0,0.0,0.0,0.0,0.0,0.0,0.0,0.0,0.0,0.0,0.0,0.0,0.0,0.0,0.0,0.0,0.0,0.0,0.0,0.0,0.0,0.0,0.0,0.0,0.0,0.0,0.0,0.0,0.0,0.0,0.0,0.0,0.0,0.0,0.0,0.0,-0.2787,0.0,0.0,0.0,0.0,0.0,0.0,0.0,0.0,0.0,0.0,0.0,0.0,0.0,0.0,0.0,0.0,0.0,0.0,0.0,0.0,0.0,0.0,0.0,0.0,0.0,0.0,0.0,0.0,0.0,0.0,0.0,0.0,0.0,0.0,0.0,0.0,0.0,0.0,0.0,0.0,0.0,-0.228,-0.3403,-0.4375,-0.4928,-0.5719,-0.6441,-0.7091,-0.7771,-0.8088,-0.7882,-0.748,0.0,0.0,0.0,0.0,0.0,0.0,0.0,0.0,0.0,0.0,0.0,0.0,0.0,0.0,0.0,0.0,0.0,0.0,0.0,0.0,0.0,0.0,0.0,0.0,0.0,0.0,0.0,0.0,0.0,0.0,0.0,0.0,0.0,0.0,0.0,0.0,0.0,0.0,0.0,0.0,0.0,0.0,0.0,0.0,0.0,0.0,0.0,0.0,0.0,0.0,0.0,0.0,0.0,0.0,0.0,0.0,0.0,0.0,0.0,0.0,-0.3949,0.0,0.0,0.0,0.0,0.0,0.0,0.0,0.0,0.0,0.0,0.0,0.0,0.0,0.0,0.0,0.0,0.0,0.0,0.0,0.0,0.0,0.0,0.0,0.0,0.0,0.0,0.0,0.0,0.0,0.0,0.0,0.0,0.0,0.0,0.0,0.0,0.0,0.0,0.0,0.0,-0.3176,-0.4305,-0.5422,-0.6428,-0.7217,-0.7871,-0.8488,-0.8861,-0.9161,-0.9288,-0.8595,0.0,0.0,0.0,0.0,0.0,0.0,0.0,0.0,0.0,0.0,0.0,0.0,0.0,0.0,0.0,0.0,0.0,0.0,0.0,0.0,0.0,0.0,0.0,0.0,0.0,0.0,0.0,0.0,0.0,0.0,0.0,0.0,0.0,0.0,0.0,0.0,0.0,0.0,0.0,0.0,0.0,0.0,0.0,0.0,0.0,0.0,0.0,0.0,0.0,0.0,0.0,0.0,0.0,-0.599,-0.6507,-0.6817,-0.737,-0.8307,-0.9418,-0.7032,-0.6212,-0.6414,0.0,0.0,0.0,0.0,0.0,0.0,0.0,0.0,0.0,0.0,0.0,0.0,0.0,0.0,0.0,0.0,0.0,0.0,0.0,0.0,0.0,0.0,0.0,0.0,0.0,-0.7461,-0.7473,0.0,0.0,0.0,0.0,0.0,0.0,0.0,0.0,0.0,0.0,0.0,0.0,-0.4332,-0.5479,-0.6653,-0.7837,-0.8536,-0.9042,-0.9741,-0.9693,-1.0027,-1.0825,-0.9563,-0.8657,0.0,0.0,0.0,0.0,0.0,0.0,0.0,0.0,0.0,0.0,0.0,0.0,0.0,0.0,0.0,0.0,0.0,0.0,0.0,0.0,0.0,0.0,0.0,0.0,0.0,0.0,0.0,0.0,0.0,0.0,0.0,0.0,-0.4588,-0.4832,0.0,0.0,0.0,0.0,0.0,0.0,0.0,0.0,0.0,0.0,0.0,0.0,0.0,-0.6248,-0.6117,-0.7427,-0.8199,-0.8453,-0.9805,-1.0429,-1.0367,-1.046,-1.0484,-1.0379,-1.0056,0.0,-0.876,-0.8234,0.0,0.0,0.0,0.0,0.0,0.0,0.0,0.0,0.0,0.0,0.0,0.0,0.0,0.0,0.0,0.0,0.0,0.0,0.0,0.0,0.0,0.0,-1.0243,-1.0303,-1.0449,-1.0467,0.0,-0.7617,-0.5179,-0.5069,-0.4675,0.0,0.0,0.0,0.0,0.0,0.0,0.0,-0.5662,-0.6171,-0.6596,-0.7166,-0.8017,-0.864,-0.8756,-0.9524,-1.0047,-1.0338,-1.0144,-0.9587,-0.8435,-0.8264,0.0,0.0,0.0,0.0,0.0,0.0,0.0,0.0,0.0,0.0,0.0,0.0,0.0,0.0,0.0,0.0,0.0,0.0,0.0,0.0,0.0,0.0,0.0,0.0,0.0,0.0,0.0,0.0,0.0,-0.5121,-0.5817,-0.5137,-0.5666,-0.515,0.0,0.0,0.0,0.0,0.0,0.0,0.0,0.0,0.0,-0.8842,-0.8519,-0.848,-0.8913,-0.9661,-0.9912,-0.9735,-1.0429,-1.0784,-1.0761,-1.0795,-1.0821,-1.0968,-1.1011,-1.0726,-1.0274,-0.9447,-0.8311,-0.7028,0.0,0.0,0.0,0.0,-0.5309,-0.5209,-0.6684,-0.7053,0.0,0.0,0.0,0.0,0.0,0.0,0.0,0.0,0.0,0.0,0.0,0.0,0.0,-1.0964,-1.121,-1.1235,-1.1333,-0.9851,-0.8189,0.0,-0.6507,-0.5315,-0.3811,0.0,0.0,0.0,0.0,-0.5621,-0.751,-0.783,-0.8266,-0.8952,-0.9388,-0.9574,-0.9302,-0.9668,-1.003,-1.0206,-1.0103,-0.9874,-0.9516,-0.8668,-0.7608,0.0,0.0,0.0,0.0,0.0,0.0,0.0,0.0,0.0,0.0,0.0,0.0,0.0,0.0,0.0,0.0,0.0,0.0,0.0,0.0,0.0,0.0,0.0,0.0,0.0,0.0,0.0,0.0,-0.5884,-0.6932,-0.5668,-0.8058,-0.8218,0.0,0.0,0.0,0.0,0.0,0.0,-0.9691,-0.9771,-0.9844,-0.9958,-0.9867,-1.0176,-1.0905,-1.0995,-1.08,-1.0412,-1.0496,-1.059,-1.0818,-1.0758,-1.1013,-1.1326,-1.1276,-1.1176,-1.1058,-1.0208,-0.9389,-0.8747,-0.8093,-0.7445,-0.6843,-0.6968,-0.6939,-0.6965,-0.8156,-0.8551,-0.8612,-0.8719,0.0,-0.7944,-0.7138,0.0,0.0,0.0,0.0,-0.7241,-0.8811,-0.9205,-0.958,-1.0943,-1.1313,-1.1313,-1.1313,-1.0812,-1.0154,0.0,-0.8572,-0.7387,-0.5767,0.0,0.0,0.0,0.0,-0.7374,-0.9057,-0.9228,-0.9495,-1.0111,-1.0292,-1.0107,-0.9651,-0.974,-0.9926,-1.0111,-0.9976,-0.999,-1.0171,-0.9104,-0.8291,-0.7816,0.0,0.0,0.0,0.0,0.0,0.0,0.0,0.0,0.0,0.0,0.0,0.0,0.0,0.0,0.0,0.0,0.0,0.0,0.0,0.0,0.0,0.0,0.0,0.0,0.0,0.0,0.0,0.0,0.0,-0.739,-0.8465,0.0,0.0,0.0,0.0,-0.8166,-1.087,-1.2326,-1.1896,-1.2048,-1.1825,-1.118,-1.1007,-1.0831,-1.0641,-1.0901,-1.0931,-1.0871,-1.1151,-1.1253,-1.1268,-1.1225,-1.1316,-1.1326,-1.1107,-1.0916,-1.0727,-1.0702,-1.007,-0.9187,-0.8387,-0.7427,-0.6672,-0.7622,-0.797,-0.8045,-0.9611,-1.0173,-1.0071,-0.9707,-0.8516,-0.743,-0.8028,-0.7222,0.0,0.0,-0.8143,-0.8355,-1.0069,-1.0513,-1.0576,-1.0886,-1.0935,-1.0935,-1.0935,-0.9744,-0.907,0.0,-1.0683,-1.0007,-0.8547,0.0,-0.8472,-0.8615,-0.8123,-0.829,-1.0191,-0.978,-0.9275,-0.9206,-0.9558,-0.9647,-0.9189,-0.9558,-0.9833,-0.9833,-0.9824,-0.982,-0.982,-0.9974,-0.9234,-0.7243,-0.7897,0.0,0.0,0.0,0.0,0.0,0.0,0.0,0.0,0.0,0.0,0.0,0.0,0.0,0.0,0.0,0.0,0.0,0.0,0.0,0.0,0.0,0.0,0.0,0.0,0.0,0.0,0.0,0.0,-0.7564,-0.8659,0.0,-0.896,-1.0162,-1.0697,-1.0052,-1.1623,-1.2529,-1.2265,-1.2282,-1.2206,-1.2009,-1.1753,-1.157,-1.1521,-1.1473,-1.1284,-1.0935,-1.0894,-1.1247,-1.1968,-1.1347,-1.1623,-1.2518,-1.2539,-1.2522,-1.2431,-1.2601,-1.1605,-0.9924,-0.9786,-0.9452,-0.9174,-0.9393,-0.9473,-0.9475,-0.9957,-1.012,-1.0111,-1.0191,-0.9885,-0.9498,-1.0097,-0.9716,-0.9314,-0.9814,-0.9939,-0.999,-1.0496,-1.0557,-1.0577,-1.0648,-1.0755,-1.0755,-1.0755,-1.032,-1.014,-1.0641,-0.9795,-0.8803,-0.8198,-0.873,-0.9118,-0.8553,-0.8881,-0.9537,-1.0363,-1.0166,-0.9892,-0.9732,-0.982,-0.982,-0.9437,-0.9534,-0.9723,-0.9917,-0.9801,-0.9828,-1.0026,-1.0086,-0.9824,-0.889,-0.9512,-0.8578,0.0,0.0,0.0,0.0,0.0,0.0,0.0,0.0,0.0,0.0,0.0,0.0,0.0,0.0,0.0,0.0,0.0,0.0,0.0,0.0,0.0,0.0,0.0,0.0,0.0,0.0,-0.9681,-0.7933,-0.9682,-1.0891,-1.0543,-1.2201,-1.2902,-1.1879,-1.2444,-1.2769,-1.2624,-1.2613,-1.2498,-1.2412,-1.2152,-1.1964,-1.201,-1.1863,-1.1632,-1.1303,-1.1598,-1.2043,-1.2713,-1.2477,-1.2827,-1.3588,-1.3745,-1.3756,-1.3677,-1.386,-1.3049,-1.1616,-1.1351,-1.104,-1.0716,-1.0542,-1.031,-1.0159,-1.007,-1.0159,-1.0272,-1.0505,-1.0643,-1.0668,-1.0987,-1.0939,-1.0847,-1.0847,-1.0847,-1.0769,-1.0758,-1.0683,-1.0702,-1.0768,-1.0783,-1.0783,-1.0783,-1.0896,-1.0899,-1.0513,-0.9714,-0.8947,-0.8699,-0.9384,-0.9729,-0.8865,-0.9558,-1.0105,-1.0132,-1.0099,-1.0019,-0.992,-0.9821,-0.9821,-0.9628,-0.9409,-0.9468,-0.9809,-0.9573,-0.9476,-0.993,-0.9912,-0.9797,-0.937,-0.984,-0.9069,-0.7177,0.0,0.0,0.0,0.0,0.0,0.0,0.0,0.0,0.0,0.0,0.0,0.0,0.0,0.0,0.0,0.0,0.0,0.0,0.0,0.0,0.0,0.0,0.0,-0.8591,-0.947,-0.9983,-0.8872,-1.1522,-1.2862,-1.1468,-1.2426,-1.3251,-1.355,-1.3328,-1.3144,-1.3083,-1.315,-1.2951,-1.252,-1.2279,-1.2186,-1.2171,-1.2165,-1.2097,-1.214,-1.3379,-1.3731,-1.3477,-1.4622,-1.4913,-1.4402,-1.4476,-1.4469,-1.4315,-1.4421,-1.4539,-1.4397,-1.3003,-1.1843,-1.099,-1.099,-1.0491,-0.9926,-1.0111,-1.0389,-1.0575,-1.0579,-1.0584,-1.0584,-1.0589,-1.0594,-1.0594,-1.0594,-1.0594,-1.0641,-1.0853,-1.0905,-1.0953,-1.1146,-1.1194,-1.1194,-1.1194,-1.1194,-1.0998,-1.0507,-1.0609,-1.0708,-1.0408,-1.0413,-1.0224,-0.9949,-0.9971,0.0,-0.9579,-0.961,-0.9636,-0.9612,-0.9612,-0.9608,-0.9604,-0.897,-0.8877,-0.9583,-0.8982,-0.8909,-0.96,-0.9507,-0.9225,-0.8601,-0.8828,-0.8721,-0.8372,0.0,0.0,0.0,0.0,0.0,0.0,0.0,0.0,0.0,0.0,0.0,0.0,0.0,0.0,0.0,0.0,0.0,0.0,0.0,0.0,0.0,0.0,-1.1159,-1.0176,-1.1615,-1.2657,-1.2602,-1.375,-1.4759,-1.5182,-1.5438,-1.536,-1.4702,-1.3972,-1.3915,-1.4933,-1.5019,-1.5237,-1.5826,-1.5634,-1.5452,-1.5305,-1.5106,-1.476,-1.4283,-1.4533,-1.4909,-1.5484,-1.5137,-1.5408,-1.6206,-1.6323,-1.6388,-1.6308,-1.6748,-1.6785,-1.6419,-1.4546,-1.3647,-1.3357,-1.3003,-1.2059,-1.0939,-1.1216,-1.0847,-1.0413,-1.0754,-1.0806,-1.0834,-1.0981,-1.1023,-1.1023,-1.1023,-1.1023,-1.1038,-1.1099,-1.1113,-1.1127,-1.1184,-1.1194,-1.1194,-1.1194,-1.1194,-1.11,-1.0801,-1.0605,-1.0314,-0.9924,-0.9826,-0.9916,-1.0186,-1.0216,0.0,-1.0597,-1.0632,-1.0418,-0.9767,-0.9617,-0.9472,-0.9245,-0.896,-0.9003,-0.9592,-0.9445,-0.9425,-0.962,-0.9778,-0.9957,-1.0192,-0.9535,-0.9046,0.0,0.0,0.0,0.0,0.0,0.0,0.0,0.0,0.0,0.0,0.0,0.0,0.0,0.0,0.0,0.0,0.0,0.0,0.0,0.0,0.0,0.0,-1.336,-1.3561,-1.2852,-1.3523,-1.4156,-1.4532,-1.5352,-1.6019,-1.6474,-1.6908,-1.6789,-1.6074,-1.5711,-1.5772,-1.626,-1.6212,-1.6462,-1.7085,-1.6647,-1.647,-1.6507,-1.6109,-1.5749,-1.559,-1.5908,-1.6289,-1.6713,-1.6639,-1.6934,0.0,-1.7663,-1.764,-1.7648,-1.8063,-1.8126,0.0,0.0,0.0,0.0,0.0,-1.3327,-1.2686,-1.2873,-1.2593,-1.224,-1.2204,-1.2156,-1.2086,-1.1935,-1.1878,-1.1878,-1.1878,-1.1878,-1.1785,-1.1585,-1.159,-1.1487,-1.1292,-1.1194,-1.1194,-1.1194,-1.1194,-1.1124,-1.0821,-1.0635,0.0,-0.994,-0.9726,-0.9682,-0.9753,-0.9929,-1.0033,-1.0207,-1.0301,-1.0275,-0.9744,-0.9602,-0.9465,-0.9361,-0.898,0.0,0.0,0.0,-0.9403,-0.9577,-0.9581,0.0,0.0,0.0,-0.9387,-0.9422,0.0,0.0,0.0,-0.7295,-0.6997,0.0,0.0,0.0,0.0,0.0,0.0,0.0,0.0,0.0,0.0,0.0,0.0,0.0,0.0,0.0,0.0,-1.6471,-1.6957,-1.591,-1.5295,-1.5057,-1.5373,-1.646,-1.6946,-1.6648,-1.7477,-1.7858,-1.7373,-1.7924,-1.8037,-1.7432,0.0,0.0,0.0,0.0,-1.6481,-1.6846,-1.6337,-1.6155,-1.6477,-1.7407,-1.7675,-1.7316,-1.8427,-1.8692,-1.8185,-1.8499,-1.8546,-1.8383,-1.87,-1.8851,-1.8727,-1.7543,-1.6458,-1.5497,-1.4905,-1.4709,-1.4715,-1.481,0.0,0.0,-1.4064,-1.3878,-1.3692,-1.3044,-1.2764,-1.2764,-1.2764,-1.2764,-1.2667,-1.2175,-1.2093,-1.1918,-1.1521,-1.1344,-1.1264,-1.1264,-1.1166,-1.1123,-1.0808,-1.0742,-1.0591,-1.0344,-0.9896,-0.9633,-0.9359,-0.9514,-0.9653,-0.938,-0.9647,-0.9817,-0.9735,0.0,0.0,-0.96,-0.9019,-0.895,-0.9644,-0.9279,-0.9165,-0.9496,-0.9409,-0.94,-0.9561,-0.9653,-0.9903,-1.0413,-1.0413,-1.0413,-1.0386,-0.7738,-0.7059,0.0,0.0,0.0,0.0,0.0,0.0,0.0,0.0,0.0,0.0,0.0,0.0,0.0,0.0,0.0,-1.492,-1.5539,-1.6261,-1.7047,-1.7064,-1.6937,-1.6651,-1.7407,-1.8202,-1.8776,-1.9174,-1.9007,-1.8087,-1.8255,-1.8422,-1.8493,-1.8242,0.0,-1.9107,-1.9158,-1.9036,-1.8814,-1.8864,-1.8685,-1.8459,0.0,0.0,-1.8297,-1.8548,-1.8693,-1.8629,-1.87,-1.8732,-1.8732,-1.8804,-1.9002,-1.9225,-1.8611,-1.8018,-1.7509,-1.7382,-1.6633,-1.5576,-1.5792,-1.493,-1.3771,-1.3872,-1.3505,-1.2953,-1.2856,-1.2764,0.0,-1.2764,-1.2764,-1.2764,-1.2662,-1.2604,-1.2537,-1.2437,-1.2077,-1.1699,-1.1699,-1.1285,-1.099,-1.0819,-1.0729,-1.0638,-1.0573,-1.031,-1.0178,-1.0534,-1.0632,-1.0716,-1.1067,-1.1172,-1.0897,-1.0276,-1.0019,-0.9866,-0.9623,-0.9378,-0.9449,-1.0022,-1.003,-0.9899,-0.9784,-1.0186,-1.0216,-0.9862,-1.0343,-1.0493,-1.0413,-1.0216,-1.0216,-1.0408,-0.979,-0.9631,0.0,0.0,0.0,0.0,0.0,0.0,0.0,0.0,0.0,0.0,0.0,-1.415,0.0,0.0,-1.5765,-1.6843,-1.7242,-1.7654,-1.8362,-1.8583,-1.8529,-1.8112,-1.8612,-1.9129,-1.9555,-1.9838,-1.983,-1.9282,-1.9274,-1.9348,-1.9347,-1.9191,-1.9282,-1.9667,-1.9479,-1.9479,-1.9479,-1.9216,-1.9118,-1.9109,-1.8928,-1.8838,-1.8664,-1.8664,-1.876,-1.8827,-1.8827,-1.8827,-1.8843,-1.9026,-1.9209,-1.9376,-1.9352,-1.9249,-1.8948,-1.8785,-1.8229,-1.7618,-1.7557,-1.6922,-1.6156,-1.5873,-1.5324,-1.4675,-1.4196,-1.3813,-1.3532,-1.3532,-1.3517,-1.3408,-1.3219,-1.3105,-1.2988,-1.278,-1.2459,-1.2235,-1.2235,-1.2024,-1.1742,-1.174,-1.1654,-1.1586,-1.1473,-1.1172,-1.0826,-1.0632,-1.0509,-1.0648,-1.0843,-1.0856,-1.0712,-1.0336,-1.0196,-1.0062,-0.987,-0.9858,-0.9973,-1.0352,-1.0264,-1.0223,-1.0232,-1.0335,-1.0293,-1.0099,-1.0399,-1.0453,-1.0362,-1.0262,-1.0216,-1.0216,-1.0216,-1.0314,0.0,0.0,0.0,0.0,0.0,0.0,0.0,0.0,-1.423,-1.466,-1.4701,-1.5081,-1.6328,-1.6733,-1.7439,-1.8927,-1.9147,-1.9256,-1.9556,-1.9565,-1.9459,-1.9307,-1.9468,-1.9681,-1.9847,-2.0052,-2.018,-2.009,-2.0158,-2.0076,-1.9736,-1.9803,-1.9729,-1.948,-1.9159,-1.9151,-1.9381,-1.8888,-1.8822,-1.9096,-1.892,-1.8827,-1.8827,-1.8827,-1.8827,-1.8827,-1.8907,-1.8931,-1.8962,-1.932,-1.9471,-1.9503,-1.9836,-2.0011,-2.0011,-1.9542,-1.9328,-1.9225,-1.8931,-1.8783,-1.8551,-1.7688,-1.6978,-1.6279,-1.5409,-1.4796,-1.4284,-1.4284,-1.4222,-1.4072,-1.3777,-1.3615,-1.3545,-1.3127,-1.2853,-1.2779,-1.2779,-1.2675,-1.2621,-1.2578,-1.2612,-1.2559,-1.2408,-1.2005,-1.1463,-1.0623,-1.0371,-1.0266,-1.0266,-1.0266,-1.0266,-1.0266,-1.0266,-1.0371,-1.0371,-1.0472,-1.0577,-1.0788,-1.0581,-1.0565,-1.0736,-1.0531,-1.0406,-1.0264,-1.0264,-1.0298,-1.0259,-1.0259,-1.018,-1.0129,-1.0129,-1.0186,-1.4484,-1.4827,-1.5842,-1.6683,-1.6399,-1.6236,0.0,0.0,-1.6447,-1.7344,-1.7531,-1.7661,-1.8073,-1.8224,-1.8525,-1.9141,-1.8963,-1.9153,-1.9887,-1.934,-1.909,-1.9553,-1.9533,-1.9677,-2.0198,-1.9975,-1.9715,-1.9521,-1.9743,-1.9694,-1.91,-1.9406,-1.943,-1.91,-1.9175,-1.9001,-1.8734,-1.8728,-1.8788,-1.8827,-1.8827,-1.8827,-1.8827,-1.8827,-1.8827,-1.8843,-1.9169,-1.9312,-1.9336,-1.9669,-1.9812,-1.9844,-2.0194,-2.0527,-2.0686,-1.9725,-1.9169,-1.8883,-1.8843,-1.8551,-1.8125,-1.6959,-1.6366,-1.5782,-1.469,-1.4309,-1.423,-1.423,-1.4247,-1.4168,-1.4174,-1.4138,-1.4102,-1.4102,-1.363,-1.3239,-1.3239,-1.2803,-1.238,-1.2398,-1.2403,-1.2413,-1.2436,-1.2327,-1.2096,-1.1511,-1.0958,-1.0631,-1.0631,-1.0631,-1.0631,-1.0631,-1.0631,-1.074,-1.0958,-1.1285,-1.1502,-1.1502,-1.1502,-1.1432,-1.1265,-1.115,-1.0962,-1.0581,-1.0577,-1.0464,-1.0236,-1.0236,-1.0327,-1.0513,-1.0513,-1.0234,-1.6686,-1.6631,0.0,0.0,-1.7587,-1.7533,-1.7839,-1.7473,-1.7249,-1.79,-1.8205,-1.8512,-1.8894,-1.9226,-1.9484,0.0,-1.9739,-1.9632,-1.992,-1.9381,-1.9029,-1.9445,-1.9255,-1.9222,-1.9431,-1.9242,-1.9154,-1.9179,-1.9427,-1.9445,-1.915,-1.9306,-1.9222,-1.8886,-1.8932,-1.8848,-1.8704,-1.8756,-1.8827,-1.8827,-1.8827,-1.8827,-1.8827,-1.8827,-1.8947,-1.9145,-1.9082,-1.928,-1.9654,-1.9598,-1.9812,-2.0186,-2.0337,-2.0488,-2.0559,-2.013,-1.9876,-1.9709,-1.9503,-1.8943,-1.8184,-1.8461,-1.7168,-1.5676,-1.5783,-1.5083,-1.4188,-1.4188,-1.419,-1.4201,-1.4201,-1.4172,-1.4254,-1.4254,-1.4008,-1.3862,-1.3862,-1.3645,-1.3428,-1.3428,-1.3428,-1.3428,-1.3428,-1.3207,-1.2876,-1.2659,-1.2114,-1.1678,-1.1678,-1.1678,-1.1568,-1.124,-1.124,-1.1131,-1.0911,-1.1021,-1.1131,-1.1131,-1.124,-1.1315,-1.1237,-1.1341,-1.1302,-1.0898,-1.0898,-1.0741,-1.053,-1.053,-1.0577,-1.0577,-1.0785,-1.0595,-1.7539,0.0,0.0,-1.8061,-1.8564,-1.8873,-1.8276,-1.8136,-1.8199,-1.8419,-1.8735,-1.9102,-1.9215,-1.9851,-2.0355,-2.0419,-2.0254,-2.0128,-2.0022,-1.9457,-1.9092,-1.9253,-1.9015,-1.8791,-1.8829,-1.8939,-1.8978,-1.8912,-1.9198,-1.9232,-1.8943,-1.9039,-1.9012,-1.8827,-1.8827,-1.8827,-1.8827,-1.8827,-1.8827,-1.8827,-1.8827,-1.8827,-1.8827,-1.8827,-1.9026,-1.936,-1.909,-1.9264,-1.9725,-1.9677,-1.9892,-2.0265,-2.0464,-2.0535,-2.0535,-2.0535,-2.0416,-2.021,-1.9955,-1.9434,-1.8919,-1.9406,-1.8153,-1.6514,-1.7123,-1.6047,-1.465,-1.465,-1.4478,-1.4196,-1.4196,-1.4196,-1.4196,-1.4196,-1.4196,-1.4196,-1.4196,-1.4196,-1.4196,-1.4196,-1.4196,-1.4196,-1.4196,-1.3867,-1.3537,-1.3537,-1.3207,-1.2767,-1.2441,-1.2441,-1.2223,-1.1896,-1.1896,-1.1787,-1.135,-1.135,-1.1455,-1.1455,-1.1564,-1.1673,-1.1673,-1.1896,-1.1787,-1.1564,-1.1455,-1.1389,-1.1254,-1.1044,-1.0971,-1.094,-1.1041,-1.1041,0.0,0.0,-1.7574,-1.7991,-1.9163,-2.0148,-1.9668,-1.9668,-1.9747,-1.9362,-1.9604,-1.9816,-1.9333,-2.0304,-2.1012,-2.0508,-2.0303,-2.0326,-2.0404,-1.967,-1.9042,-1.8932,-1.868,-1.8671,0.0,-1.9193,-1.9221,-1.8742,-1.8985,-1.8935,-1.8335,-1.8645,-1.8827,-1.8827,-1.8827,-1.8827,-1.8827,-1.8827,-1.8827,-1.8827,-1.8827,-1.8827,-1.8827,-1.8827,-1.9026,-1.9376,-1.936,-1.9368,-1.9439,-2.0091,-2.017,-1.9948,-2.0639,-2.0901,-2.0901,-2.0901,-2.0472,-1.9876,-1.9868,-2.0091,-2.0169,-1.9033,-1.8942,-1.8887,-1.7837,-1.6791,-1.5849,-1.5849,-1.5024,-1.4196,-1.4196,-1.4196,-1.4196,-1.4196,-1.4196,-1.4196,-1.4196,-1.4196,-1.4196,-1.4196,-1.4196,-1.4196,-1.4196,-1.4191,-1.4196,-1.4196,-1.4196,-1.3753,-1.255,-1.2441,-1.2436,-1.2332,-1.2659,-1.2881,-1.2881,-1.3098,-1.3207,-1.3207,-1.3207,-1.3207,-1.3207,-1.2989,-1.2881,-1.2881,-1.255,-1.2327,-1.2318,-1.1778,-1.1664,-1.1982,-1.1328,-1.1437,0.0,0.0,-1.8518,-1.9372,-1.9947,-2.0264,-2.0255,-2.0098,-1.9938,-2.0141,-1.9799,-1.9599,-1.9887,-2.0557,-2.0847,-2.0507,-2.0756,-2.0864,-2.021,-1.9834,-1.946,-1.9321,-1.9484,0.0,0.0,0.0,0.0,-1.8912,-1.9133,-1.9159,-1.8645,-1.8764,-1.8827,-1.8827,-1.8827,-1.8827,-1.8827,-1.8827,-1.8827,-1.8827,-1.8827,-1.8827,-1.8827,-1.8827,-1.9026,-1.9376,-1.9376,-1.963,-2.0043,-2.0043,-2.0249,-2.0567,-2.0567,-2.071,-2.0925,-2.0925,-2.0774,-2.0567,-2.0567,-2.0116,-1.969,-2.0005,-1.9243,-1.8178,-1.8596,-1.7864,-1.7022,-1.7022,-1.618,-1.5345,-1.5345,-1.4719,-1.4196,-1.4196,-1.4196,-1.4196,-1.4196,-1.4196,-1.4196,-1.4196,-1.4196,-1.4196,-1.4196,-1.4196,-1.4196,-1.4196,-1.4196,-1.4083,-1.3645,-1.3645,-1.3428,-1.2989,-1.3098,-1.2989,-1.255,-1.2659,-1.2659,-1.2659,-1.2881,-1.2989,-1.2989,-1.3098,-1.3098,-1.2881,-1.2772,-1.2659,-1.2441,-1.2441,-1.2332,-1.2005,-1.2223,-1.2223,-1.7423,-1.8314,-1.9075,-1.987,-2.0236,-2.042,-2.0566,-2.0458,-2.0493,-2.0771,-2.0308,-1.9932,-2.022,-2.069,-2.0794,-2.0172,-2.0471,-2.058,-1.9853,-1.9671,-1.9564,-1.9521,-2.0069,0.0,0.0,0.0,0.0,-1.946,-1.9477,-1.9397,-1.9088,-1.9104,-1.9012,-1.8827,-1.8827,-1.8827,-1.8827,-1.8827,-1.8827,-1.8827,-1.8827,-1.8827,-1.8827,-1.8827,-1.9026,-1.9376,-1.9376,-1.9685,-2.0194,-2.0091,-2.0321,-2.0726,-2.0623,-2.0718,-2.0925,-2.0925,-2.0925,-2.0925,-2.0925,-2.0395,-1.9968,-2.0704,-1.9975,-1.8916,-1.965,-1.902,-1.8178,-1.8178,-1.7338,-1.6493,-1.6493,-1.5974,-1.5458,-1.5458,-1.5143,-1.4821,-1.4821,-1.4509,-1.4196,-1.4196,-1.4196,-1.4196,-1.4196,-1.4196,-1.4196,-1.4196,-1.4196,-1.4196,-1.4196,-1.4196,-1.4083,-1.3645,-1.3645,-1.3423,-1.3098,-1.2989,-1.2989,-1.2989,-1.3212,-1.3315,-1.3315,-1.3537,-1.3537,-1.332,-1.3315,-1.3315,-1.3197,-1.3197,-1.3088,-1.2762,-1.298,-1.2871,-1.7853,-1.8716,-1.9453,-1.9647,-2.0206,-2.0566,-2.0566,-2.0908,-2.123,-2.1131,-2.0983,-2.0703,0.0,0.0,-2.0649,-1.9445,-1.9569,-1.9743,-1.9491,-1.9277,-1.9263,0.0,0.0,0.0,0.0,0.0,0.0,-2.0464,0.0,-1.9729,-1.9729,-1.9637,-1.9371,-1.892,-1.8827,-1.8827,-1.8827,-1.8827,-1.8827,-1.8827,-1.8827,-1.8827,-1.8827,-1.8843,-1.9042,-1.9376,-1.9407,-1.9598,-1.9916,-2.0273,-2.0416,-2.0456,-2.079,-2.0925,-2.0925,-2.0925,-2.0925,-2.0925,-2.0925,-2.0925,-2.0925,-2.0925,-2.0925,-2.0925,-2.0925,-2.0181,-1.9332,-1.9332,-1.8492,-1.7654,-1.7654,-1.7654,-1.7549,-1.7549,-1.681,-1.5968,-1.5968,-1.5137,-1.4407,-1.4407,-1.4299,-1.4299,-1.4299,-1.4191,-1.4196,-1.4196,-1.4196,-1.4196,-1.4196,-1.4196,-1.4196,-1.4196,-1.4196,-1.4196,-1.4196,-1.4196,-1.4196,-1.4196,-1.4196,-1.4196,-1.4196,-1.4196,-1.4196,-1.4196,-1.4191,-1.4401,-1.4606,-1.4056,-1.3948,-1.4169,-1.3619,-1.3511,-1.8889,-1.9594,-2.0264,-2.0381,-2.0488,-2.0566,-2.0566,-2.0908,-2.1063,-2.0653,-2.0072,-1.9454,0.0,0.0,0.0,-1.8703,-1.9832,0.0,-1.987,-2.0099,0.0,-2.0263,0.0,-2.1332,-2.1548,-2.1826,0.0,0.0,-2.1177,-2.0979,-2.1658,-2.0709,-2.0093,-1.9894,-1.9546,-1.9188,-1.8827,-1.8827,-1.8827,-1.8827,-1.8827,-1.8827,-1.8835,-1.9105,-1.9288,-1.9399,-1.9908,-2.0178,-2.0289,-2.0639,-2.0782,-2.0798,-2.0885,-2.0925,-2.0925,-2.0925,-2.0925,-2.0925,-2.0925,-2.0925,-2.0925,-2.0925,-2.0925,-2.0925,-2.0925,-2.0712,-2.0498,-2.0498,-1.965,-1.8805,-1.8805,-1.8178,-1.7549,-1.7549,-1.7338,-1.7127,-1.7127,-1.6922,-1.6711,-1.6711,-1.608,-1.5446,-1.5446,-1.4713,-1.4196,-1.4196,-1.4196,-1.4196,-1.4196,-1.4196,-1.4196,-1.4196,-1.4196,-1.4196,-1.4196,-1.4196,-1.4196,-1.4196,-1.4196,-1.4196,-1.4196,-1.4196,-1.4196,-1.4196,-1.4401,-1.4498,-1.4606,-1.4928,-1.4821,-1.4498,-1.46,-1.4385,-1.9697,-2.0195,-2.0566,-2.0566,-2.0566,-2.0518,-2.0265,-2.0557,-2.0614,-1.9841,-1.9331,0.0,0.0,0.0,0.0,0.0,0.0,0.0,-2.0542,-2.051,-2.0708,0.0,-2.1816,0.0,-2.2306,-2.2931,-2.3531,0.0,-2.2746,-2.2296,-2.2804,-2.212,-2.1418,-2.0773,-2.0512,-1.9994,-1.9204,-1.9012,-1.9012,-1.9012,-1.9012,-1.8999,-1.9074,-1.928,-1.963,-2.0031,0.0,-2.058,-2.0841,-2.0837,-2.0925,-2.1019,-2.0925,-2.1019,-2.1019,-2.0917,-2.0925,-2.0925,-2.0925,-2.0925,-2.0925,-2.0925,-2.0925,-2.0925,-2.0925,-2.0925,-2.0925,-2.0925,-2.0395,-1.9968,-1.9968,-1.9546,-1.902,-1.902,-1.8708,-1.8283,-1.8283,-1.7969,-1.7549,-1.7549,-1.7127,-1.6599,-1.6599,-1.608,-1.5666,-1.5666,-1.5244,-1.4922,-1.4922,-1.4509,-1.4196,-1.4196,-1.4196,-1.4196,-1.4196,-1.4196,-1.4196,-1.4196,-1.4196,-1.4196,-1.4196,-1.4196,-1.4196,-1.4196,-1.4401,-1.4504,-1.4821,-1.5148,-1.5256,-1.5137,-1.5357,-1.525,-2.0264,-2.0566,-2.0566,-2.0566,-2.0566,-2.0459,-1.9821,-1.9995,-2.0005,-1.9024,0.0,-1.8156,-1.7628,0.0,-1.8766,-1.7933,0.0,-2.0357,-2.1089,-2.068,-2.0827,-2.2129,-2.2755,-2.3096,-2.3096,-2.4049,-2.4914,-2.5495,-2.4467,-2.378,-2.377,-2.3521,-2.2639,-2.1302,-2.1123,-2.061,-1.9587,-1.9387,-1.9288,-1.9279,-1.9279,-1.9382,-1.9557,-1.9605,-2.0079,-2.0891,0.0,0.0,-2.1326,-2.1121,-2.1121,-2.1326,-2.1019,-2.1121,-2.1326,-2.1019,-2.1019,-2.1019,-2.1019,-2.1019,-2.1019,-2.1019,-2.1027,-2.1019,-2.1121,-2.1121,-2.1121,-2.1121,-2.1121,-2.1121,-2.1019,-2.1027,-2.1027,-2.0925,-2.0181,-1.9443,-1.9443,-1.87,-1.8073,-1.8073,-1.7969,-1.7759,-1.7759,-1.7654,-1.7549,-1.7549,-1.681,-1.618,-1.618,-1.5035,-1.4196,-1.4196,-1.4196,-1.4196,-1.4196,-1.4196,-1.4196,-1.4196,-1.4196,-1.4196,-1.4196,-1.4196,-1.4196,-1.4196,-1.4191,-1.4509,-1.5041,-1.5041,-1.5357,-1.5891,-1.5891,-1.5891,-2.0508,-2.0566,-2.0566,-2.0566,-2.0566,-2.0459,-1.9821,-1.9839,0.0,0.0,0.0,-1.7359,-1.6598,-1.6949,0.0,-1.8081,0.0,0.0,0.0,0.0,-2.1038,0.0,0.0,0.0,0.0,0.0,0.0,0.0,0.0,-2.5946,-2.5757,-2.3897,-2.2246,-2.0817,-2.0201,-1.9754,-1.9587,-1.9579,-1.9571,-1.9745,-1.9745,-1.9937,-2.0295,-2.0604,-2.0873,-2.1089,-2.1393,0.0,-2.1623,-2.1623,-2.1623,-2.1623,-2.1326,-2.142,-2.1623,-2.1326,-2.1318,-2.1623,-2.1827,-2.192,-2.1827,-2.1623,-2.1522,-2.1623,-2.2131,-2.2224,-2.2224,-2.2224,-2.2224,-2.2123,-2.1725,-2.1522,-2.1428,-2.1027,-2.0712,-2.0601,-2.0601,-2.0498,-2.0292,-2.0292,-1.9546,-1.8909,-1.8909,-1.8178,-1.7549,-1.7549,-1.7443,-1.7338,-1.7338,-1.5452,-1.4196,-1.4196,-1.4196,-1.4196,-1.4196,-1.4196,-1.4196,-1.4196,-1.4196,-1.4196,-1.4196,-1.4196,-1.4196,-1.4196,-1.4396,-1.4713,-1.5041,-1.5261,-1.5583,-1.5891,-1.5891,-1.5891,-2.0566,-2.0566,-2.0566,-2.0566,-2.0566,-2.0313,-1.9372,0.0,0.0,0.0,0.0,-1.659,-1.5927,0.0,0.0,0.0,0.0,0.0,0.0,0.0,0.0,0.0,0.0,0.0,0.0,0.0,0.0,0.0,0.0,-2.655,-2.6539,-2.4478,-2.2755,-2.1615,-2.0374,-1.9845,-1.9936,-1.9853,-1.9845,-2.011,-2.0213,-2.0407,-2.0769,-2.1042,-2.141,-2.187,-2.1744,0.0,-2.2123,-2.1827,-2.1827,-2.1928,-2.1623,-2.1623,-2.1928,-2.1623,-2.1623,-2.1725,-2.1827,-2.203,-2.2123,-2.2325,-2.2224,-2.2123,-2.2426,-2.2526,-2.2526,-2.2526,-2.2526,-2.2426,-2.2224,-2.2123,-2.2021,-2.1827,-2.1522,-2.1224,-2.0917,-2.0925,-2.0925,-2.0925,-2.0498,-2.0071,-2.0071,-1.9657,-1.9339,-1.9339,-1.8812,-1.8387,-1.8387,-1.7028,-1.598,-1.598,-1.598,-1.598,-1.598,-1.598,-1.5767,-1.5131,-1.503,-1.4821,-1.4191,-1.4196,-1.4196,-1.4196,-1.4299,-1.4504,-1.4821,-1.5041,-1.5369,-1.5684,-1.5785,-1.5891,-2.0518,-2.0566,-2.0566,-2.0566,-2.0566,-2.0265,-1.902,-1.8529,0.0,0.0,-1.6088,-1.5899,-1.5545,0.0,0.0,0.0,0.0,0.0,0.0,0.0,0.0,0.0,0.0,0.0,0.0,0.0,0.0,0.0,0.0,0.0,-2.629,-2.4542,-2.3066,-2.2129,-2.0727,-2.011,-2.0292,-2.011,-2.011,-2.0473,-2.0576,-2.0857,-2.123,-2.1408,-2.1869,-2.2535,-2.2131,0.0,0.0,-2.203,-2.203,-2.2232,-2.1928,-2.1928,-2.2131,-2.1928,-2.1827,-2.1928,-2.1928,-2.2131,-2.2434,-2.2929,-2.2929,-2.2728,-2.2837,-2.2828,-2.2828,-2.2828,-2.2828,-2.2828,-2.2728,-2.2627,-2.2627,-2.2526,-2.2224,-2.1725,-2.1318,-2.1121,-2.1121,-2.1121,-2.1019,-2.0925,-2.0925,-2.0925,-2.0925,-2.0925,-2.0181,-1.9546,-1.9546,-1.8812,-1.8283,-1.8283,-1.7864,-1.7549,-1.7549,-1.7549,-1.7233,-1.628,-1.628,-1.5867,-1.4934,-1.4928,-1.4826,-1.4617,-1.4826,-1.4928,-1.4922,-1.5452,-1.5885,-1.6217,-1.6211,-1.6311,-2.0352,-2.0566,-2.0566,-2.0566,-2.0566,-2.0265,-1.902,0.0,0.0,-1.6474,-1.5789,-1.5516,-1.5715,-1.5631,0.0,0.0,0.0,0.0,0.0,0.0,0.0,0.0,0.0,0.0,0.0,0.0,0.0,0.0,0.0,0.0,-2.4478,-2.3173,-2.2129,-2.1168,-2.0555,-2.0292,-2.0292,-2.0292,-2.0464,-2.0916,-2.1037,-2.1438,-2.2013,-2.2099,-2.2382,-2.2544,-2.2544,0.0,0.0,-2.2544,-2.2544,-2.2544,-2.2232,-2.2232,-2.2544,-2.2232,-2.2232,-2.2544,-2.2846,-2.3046,-2.3347,-2.3646,-2.3538,-2.3329,-2.3845,-2.4044,-2.4044,-2.4044,-2.4044,-2.3945,-2.3329,-2.3229,-2.3129,-2.2627,-2.2426,-2.2426,-2.2325,-2.192,-2.1623,-2.1623,-2.1224,-2.0925,-2.0925,-2.0925,-2.0925,-2.0925,-2.0814,-2.0712,-2.0712,-2.0712,-2.0609,-2.0609,-1.8812,-1.7549,-1.7549,-1.7549,-1.7549,-1.7443,-1.7443,-1.7443,-1.7345,-1.7345,-1.681,-1.5761,-1.6711,-1.6922,-1.6187,-1.7443,-1.8185,-1.8513,-1.7786,-1.7477,-2.0332,-2.0566,-2.0566,-2.0566,-2.0252,-1.9707,-1.8915,0.0,0.0,-1.636,-1.5783,-1.541,-1.5526,-1.5469,-1.5576,0.0,0.0,0.0,0.0,0.0,0.0,0.0,0.0,0.0,0.0,0.0,0.0,0.0,0.0,0.0,-2.4754,-2.4145,-2.3183,-2.1704,-2.1347,-2.0907,-2.0292,-2.0292,-2.0473,-2.0835,-2.118,-2.1553,-2.1917,-2.2334,-2.2607,-2.2846,-2.2846,0.0,0.0,-2.3046,-2.2946,-2.2846,-2.2644,-2.2745,-2.2846,-2.2544,-2.2443,-2.2644,-2.2946,-2.3147,-2.3447,-2.3746,-2.3845,-2.3845,-2.4152,-2.4152,-2.4152,-2.4152,-2.4152,-2.4152,-2.3945,-2.3845,-2.3746,-2.3129,-2.3029,-2.2929,-2.2526,-2.2325,-2.2224,-2.2224,-2.203,-2.1725,-2.142,-2.142,-2.1216,-2.0925,-2.1121,-2.1224,-2.0917,-2.1224,-2.1224,-2.0917,-2.0078,-1.9554,-1.9554,-1.9554,-1.9339,-1.8596,-1.8596,-1.8283,-1.7654,-1.7549,-1.7338,-1.6916,-1.7338,-1.7127,-1.6074,-1.6817,-1.6929,-1.6511,-1.7041,-1.7364,-1.9951,-2.0371,-2.0566,-2.0566,-1.9997,-1.9287,0.0,0.0,0.0,-1.6284,-1.5783,-1.541,-1.541,-1.541,-1.5468,-1.5584,0.0,-1.6873,0.0,0.0,0.0,0.0,0.0,0.0,0.0,0.0,0.0,0.0,0.0,0.0,0.0,-2.5189,-2.4317,-2.258,-2.2217,-2.1784,-2.1168,-2.0817,-2.0826,-2.1105,-2.1223,-2.1406,-2.1813,-2.218,-2.2541,-2.2846,0.0,0.0,0.0,-2.3046,-2.3046,-2.2846,-2.2846,-2.2846,-2.2846,-2.2644,-2.2644,-2.2653,-2.2846,-2.3147,-2.3447,-2.3646,-2.3954,-2.4152,-2.4152,-2.4152,-2.4152,-2.4152,-2.4152,-2.4152,-2.4152,-2.4152,-2.4053,-2.3637,-2.3538,-2.3438,-2.3029,-2.2828,-2.2728,-2.2728,-2.2627,-2.2426,-2.203,-2.1928,-2.1827,-2.142,-2.1522,-2.1522,-2.1224,-2.1326,-2.1326,-2.0917,-2.0925,-2.0925,-2.0925,-2.0925,-2.0601,-1.9753,-1.965,-1.9339,-1.8603,-1.8603,-1.8394,-1.8073,-1.8394,-1.7969,-1.6909,-1.7443,-1.7549,-1.7022,-1.7759,-1.808,-1.9062,-1.9922,-2.0566,-2.0566,-1.9847,-1.9058,0.0,0.0,0.0,-1.623,-1.5783,-1.541,-1.541,-1.541,-1.5526,-1.5999,-1.6162,0.0,0.0,0.0,0.0,0.0,0.0,0.0,0.0,0.0,0.0,0.0,0.0,0.0,0.0,-2.5906,-2.5115,-2.3551,-2.3193,-2.3096,-2.3096,-2.2129,-2.1784,-2.2069,-2.1239,-2.1259,-2.1804,-2.1922,-2.2201,0.0,0.0,0.0,0.0,-2.2653,-2.2653,-2.2644,-2.2644,-2.2644,-2.2644,-2.2644,-2.2644,-2.2644,-2.2644,-2.2946,-2.3447,-2.3447,-2.3755,-2.4152,-2.4152,-2.4152,-2.4152,-2.4152,-2.4152,-2.4152,-2.4152,-2.4152,-2.4152,-2.4152,-2.4152,-2.4152,-2.4152,-2.3737,-2.3329,-2.3329,-2.2828,-2.2526,-2.2526,-2.2526,-2.2526,-2.2526,-2.2021,-2.1725,-2.1725,-2.1224,-2.0925,-2.0925,-2.0925,-2.0925,-2.0925,-2.0925,-2.0917,-2.0925,-2.0925,-2.0925,-2.0917,-2.0917,-2.0388,-1.9228,-2.0285,-2.0285,-1.9124,-2.0593,-2.142,-2.1615,-2.079,-1.996,-1.8448,-1.8814,-1.8794,-1.8794,-1.8068,-1.7298,-1.7253,0.0,0.0,-1.5852,-1.5751,-1.5642,-1.5468,-1.5642,-1.6032,-1.657,-1.6626,0.0,0.0,0.0,0.0,0.0,0.0,0.0,0.0,0.0,0.0,0.0,0.0,0.0,0.0,-2.5895,-2.5369,-2.4241,-2.3627,-2.3008,-2.2129,-2.1347,-2.0997,-2.0826,-2.087,-2.1156,-2.1518,-2.1816,0.0,0.0,0.0,0.0,0.0,-2.3046,-2.3046,-2.2846,-2.2846,-2.2846,-2.2846,-2.2644,-2.2644,-2.2653,-2.2846,-2.2946,-2.3147,-2.3546,-2.3755,-2.3954,-2.4152,-2.4152,-2.4152,-2.4152,-2.4152,-2.4152,-2.4152,-2.4152,-2.4152,-2.4152,-2.4152,-2.4152,-2.4152,-2.4053,-2.3945,-2.3945,-2.3746,-2.3538,-2.3129,-2.3029,-2.2929,-2.2526,-2.2627,-2.2627,-2.2325,-2.2426,-2.2224,-2.1522,-2.1428,-2.1326,-2.0917,-2.0925,-2.0925,-2.0925,-2.0925,-2.0925,-2.0925,-2.0925,-2.0712,-2.0395,-2.0712,-2.0388,-1.9228,-1.965,-2.0158,-2.057,-2.0577,-2.0893,0.0,-1.8097,-1.8162,-1.8056,-1.7274,0.0,0.0,0.0,0.0,0.0,-1.6065,-1.6218,-1.5931,-1.6218,-1.6644,-1.7064,-1.7153,0.0,0.0,0.0,0.0,0.0,0.0,0.0,0.0,0.0,0.0,0.0,0.0,0.0,0.0,-2.5895,-2.5633,-2.502,-2.4413,-2.381,-2.327,-2.2227,-2.1793,-2.1872,-2.1789,-2.1829,-2.1977,-2.2232,0.0,0.0,0.0,0.0,0.0,-2.2946,-2.3046,-2.2846,-2.2846,-2.2846,-2.2846,-2.2644,-2.2644,-2.2644,-2.2946,-2.3046,-2.3247,-2.3646,-2.3854,-2.3954,-2.4152,-2.4152,-2.4152,-2.4152,-2.4152,-2.4152,-2.4152,-2.4152,-2.4152,-2.4152,-2.4152,-2.4152,-2.4152,-2.4152,-2.4152,-2.4152,-2.4152,-2.4044,-2.3737,-2.3637,-2.3538,-2.3238,-2.3229,-2.3229,-2.2828,-2.2929,-2.2728,-2.2021,-2.203,-2.1827,-2.1522,-2.1121,-2.0925,-2.0925,-2.0925,-2.0925,-2.0925,-2.0925,-2.0925,-2.0925,-2.0925,-2.0601,-1.9857,-2.0063,-2.0372,-2.0672,-2.1097,-2.1717,0.0,0.0,0.0,0.0,0.0,0.0,0.0,0.0,0.0,0.0,0.0,0.0,0.0,-1.6989,-1.7335,-1.7568,0.0,0.0,0.0,0.0,0.0,0.0,0.0,0.0,0.0,0.0,0.0,0.0,0.0,0.0,0.0,-2.5895,-2.5895,-2.5895,-2.5211,-2.5211,-2.5812,-2.4241,-2.38,-2.4402,-2.3531,-2.299,-2.2756,-2.2784,0.0,0.0,0.0,0.0,0.0,-2.2644,-2.2644,-2.2644,-2.2644,-2.2644,-2.2644,-2.2644,-2.2644,-2.2644,-2.2846,-2.3147,-2.3347,-2.3646,-2.3954,-2.4152,-2.4152,-2.4152,-2.4152,-2.4152,-2.4152,-2.4152,-2.4152,-2.4152,-2.4152,-2.4152,-2.4152,-2.4152,-2.4152,-2.4152,-2.4152,-2.4152,-2.4152,-2.4152,-2.4152,-2.4152,-2.4152,-2.4152,-2.3737,-2.3329,-2.3329,-2.2929,-2.2627,-2.2526,-2.2526,-2.2526,-2.2526,-2.1623,-2.1019,-2.0917,-2.0917,-2.0917,-2.0925,-2.0925,-2.0925,-2.0925,-2.0925,-2.0925,-2.0925,-2.142,-2.1725,-2.1725,-2.2232,-2.2544,-1.5556,0.0,-1.5892,-1.5828,-1.5613,0.0,0.0,0.0,0.0,0.0,0.0,0.0,0.0,0.0,0.0,0.0,0.0,0.0,0.0,0.0,0.0,0.0,0.0,0.0,0.0,0.0,0.0,0.0,0.0,0.0,0.0,-2.5895,-2.5895,-2.5895,-2.5211,-2.4861,-2.485,-2.3983,-2.3454,-2.3444,-2.3183,-2.2847,-2.2465,-2.2665,0.0,0.0,0.0,0.0,-2.2644,-2.2644,-2.2644,-2.2644,-2.2644,-2.2644,-2.2644,-2.2644,-2.2644,-2.2653,-2.2644,-2.2745,-2.2846,-2.3347,-2.3845,-2.4152,-2.4152,-2.4152,-2.4152,-2.4152,-2.4152,-2.4152,-2.4152,-2.4152,-2.4152,-2.4152,-2.4152,-2.4152,-2.4152,-2.4152,-2.4152,-2.4152,-2.4152,-2.4152,-2.4152,-2.4152,-2.4152,-2.4152,-2.4044,-2.3945,-2.3945,-2.3845,-2.3646,-2.3129,-2.3129,-2.2929,-2.2526,-2.2224,-2.1928,-2.1522,-2.1522,-2.1326,-2.0925,-2.0925,-2.0925,-2.0925,-2.0925,-2.0925,-2.0925,-2.1224,-2.1522,-2.1725,-2.1827,-2.2139,-1.4779,-1.5053,-1.5239,-1.5295,-1.5326,-1.5344,0.0,0.0,0.0,0.0,0.0,0.0,0.0,0.0,0.0,0.0,0.0,0.0,0.0,0.0,0.0,0.0,0.0,0.0,0.0,0.0,0.0,0.0,0.0,0.0,0.0,-2.6052,-2.6052,-2.5906,-2.5549,-2.5295,-2.5105,-2.4509,-2.3983,-2.3704,-2.3704,-2.3242,-2.2337,-2.3177,-2.2935,0.0,0.0,0.0,-2.2644,-2.2644,-2.2644,-2.2644,-2.2644,-2.2644,-2.2644,-2.2644,-2.2644,-2.2644,-2.2745,-2.2946,-2.3247,-2.3646,-2.3954,-2.4152,-2.4152,-2.4152,-2.4152,-2.4152,-2.4152,-2.4152,-2.4152,-2.4152,-2.4152,-2.4152,-2.4152,-2.4152,-2.4152,-2.4152,-2.4152,-2.4152,-2.4152,-2.4152,-2.4152,-2.4152,-2.4152,-2.4152,-2.4152,-2.4152,-2.4152,-2.4152,-2.4053,-2.3737,-2.3737,-2.3646,-2.3338,-2.3238,-2.2837,-2.1725,-2.1725,-2.142,-2.0925,-2.0925,-2.0925,-2.0925,-2.0925,-2.0925,-2.0925,-2.1121,-2.1318,-2.1522,-2.1623,-2.1827,-1.4482,-1.5099,-1.5639,-1.5575,-1.5633,-1.5765,0.0,0.0,0.0,0.0,0.0,0.0,0.0,0.0,0.0,0.0,0.0,0.0,0.0,0.0,0.0,0.0,0.0,0.0,0.0,0.0,0.0,0.0,0.0,0.0,0.0,-2.629,-2.629,-2.5895,-2.5895,-2.5895,-2.5895,-2.538,-2.4946,-2.4669,-2.4669,-2.4002,-2.2691,-2.3909,-2.3673,0.0,0.0,0.0,-2.2837,-2.2644,-2.2644,-2.2644,-2.2644,-2.2644,-2.2644,-2.2644,-2.2644,-2.2644,-2.2946,-2.3347,-2.3755,-2.4053,-2.4152,-2.4152,-2.4152,-2.4152,-2.4152,-2.4152,-2.4152,-2.4152,-2.4152,-2.4152,-2.4152,-2.4152,-2.4152,-2.4152,-2.4152,-2.4152,-2.4152,-2.4152,-2.4152,-2.4152,-2.4152,-2.4152,-2.4152,-2.4152,-2.4152,-2.4251,-2.444,-2.444,-2.4538,-2.4627,-2.4627,-2.4637,-2.444,-2.444,-2.3737,-2.203,-2.1827,-2.1522,-2.0925,-2.0925,-2.0925,-2.0925,-2.0925,-2.0925,-2.0925,-2.1121,-2.1326,-2.1326,-2.1522,-2.1623,-1.4903,-1.5958,-1.6667,-1.5462,-1.5754,-1.6305,0.0,0.0,0.0,0.0,0.0,0.0,0.0,0.0,0.0,0.0,0.0,0.0,0.0,0.0,0.0,0.0,0.0,0.0,0.0,0.0,0.0,0.0,0.0,0.0,0.0,-2.6445,-2.629,-2.5895,-2.5895,-2.5895,-2.5895,-2.5812,-2.5728,-2.5728,-2.5728,-2.5147,-2.4181,-2.4706,-2.4606,0.0,0.0,-2.3697,-2.38,-2.2937,-2.2644,-2.2644,-2.2644,-2.2644,-2.2644,-2.2644,-2.2644,-2.2644,-2.2946,-2.3247,-2.3555,-2.3746,-2.4053,-2.4152,-2.4152,-2.4152,-2.4152,-2.4152,-2.4152,-2.4152,-2.4152,-2.4152,-2.4152,-2.4152,-2.4152,-2.4152,-2.4152,-2.4152,-2.4152,-2.4152,-2.4152,-2.4152,-2.4152,-2.4152,-2.4152,-2.4152,-2.4152,-2.4538,-2.5401,-2.5499,-2.5781,-2.6617,-2.6713,-2.6436,-2.5499,-2.5499,-2.4815,-2.3129,-2.2627,-2.192,-2.0917,-2.0925,-2.0925,-2.0925,-2.0925,-2.0925,-2.0925,-2.1121,-2.1326,-2.1326,-2.1326,-2.1522,-1.5198,-1.5928,-1.6646,-1.6944,-1.7983,-1.8957,0.0,0.0,0.0,0.0,0.0,0.0,0.0,0.0,0.0,0.0,0.0,0.0,0.0,0.0,0.0,0.0,0.0,0.0,0.0,0.0,0.0,0.0,0.0,0.0,0.0,0.0,-2.6962,-2.6207,-2.6207,-2.6135,-2.5895,-2.5895,-2.5644,-2.5105,-2.5105,-2.4669,-2.381,-2.4702,-2.4486,-2.335,0.0,-2.4565,-2.3785,-2.4104,-2.4295,-2.4295,-2.4295,-2.4295,-2.4196,-2.361,-2.3029,-2.2644,-2.2946,-2.3046,-2.3247,-2.3655,-2.3854,-2.4143,-2.4824,-2.4637,-2.435,-2.4833,-2.4637,-2.4152,-2.4152,-2.4152,-2.4152,-2.4152,-2.4152,-2.4152,-2.4152,-2.4152,-2.4152,-2.4152,-2.4637,-2.502,-2.502,-2.5489,-2.5858,-2.5858,-2.5858,-2.5954,-2.6446,-2.6532,-2.6723,-2.7189,-2.6723,-2.6157,-2.579,-2.5693,-2.5001,-2.3429,-2.2828,-2.2325,-2.1827,-2.1725,-2.1928,-2.2224,-2.1623,-2.142,-2.1725,-2.1326,-2.1121,-2.1121,-2.1121,-2.1121,-1.5546,-1.6134,-1.6898,-1.8461,0.0,0.0,0.0,0.0,0.0,0.0,0.0,0.0,0.0,0.0,0.0,0.0,0.0,0.0,0.0,0.0,0.0,0.0,0.0,0.0,0.0,0.0,0.0,0.0,0.0,0.0,0.0,0.0,-2.7545,-2.6693,-2.6682,-2.6539,-2.6218,-2.6218,-2.5706,-2.485,-2.485,-2.4413,-2.381,-2.4861,-2.4639,-2.3448,-2.5473,-2.5495,-2.4288,-2.5286,-2.5751,-2.5751,-2.5751,-2.5557,-2.5266,-2.4669,-2.38,-2.3038,-2.3628,-2.3818,-2.3917,-2.4412,-2.4618,-2.4805,-2.5781,-2.5304,-2.4735,-2.5499,-2.5118,-2.4538,-2.4251,-2.4152,-2.4251,-2.4538,-2.4538,-2.4637,-2.4824,-2.4913,-2.4913,-2.4913,-2.5489,-2.6071,-2.6071,-2.6723,-2.7189,-2.7189,-2.7189,-2.7284,-2.7474,-2.7568,-2.7662,-2.7851,-2.7189,-2.6638,-2.6446,-2.6167,-2.5577,-2.4295,-2.3692,-2.3393,-2.3194,-2.3203,-2.3302,-2.352,-2.2719,-2.2316,-2.2325,-2.153,-2.1019,-2.0925,-2.0925,-2.0925,-1.6132,-1.7235,-1.83,-1.9155,0.0,0.0,0.0,0.0,0.0,0.0,0.0,0.0,0.0,0.0,0.0,0.0,0.0,0.0,0.0,0.0,0.0,0.0,0.0,0.0,0.0,0.0,0.0,0.0,0.0,0.0,0.0,0.0,0.0,-2.7185,-2.7185,-2.7103,-2.7103,-2.7103,-2.6704,-2.5812,-2.5812,-2.5728,-2.5728,-2.576,-2.6021,-2.6292,-2.5968,-2.6053,-2.629,-2.5863,-2.5751,-2.5751,-2.5751,-2.5061,-2.4285,-2.5266,-2.4875,-2.4187,-2.5654,-2.6137,-2.6234,-2.6809,-2.6999,-2.6999,-2.7094,-2.635,-2.5596,-2.5693,-2.5693,-2.5401,-2.444,-2.4152,-2.4449,-2.5411,-2.5596,-2.5877,-2.6809,-2.6999,-2.6999,-2.6999,-2.6999,-2.7094,-2.7094,-2.7189,-2.7189,-2.7189,-2.7189,-2.7568,-2.8434,-2.862,-2.891,-2.984,-2.9932,-2.9463,-2.8527,-2.7673,-2.6999,-2.6894,-2.6396,-2.5895,-2.5392,-2.5392,-2.4925,-2.4088,-2.3989,-2.3203,-2.1725,-2.1725,-2.1428,-2.0925,-2.0925,-2.0925,-1.6144,-1.7634,-1.9228,-1.9629,0.0,0.0,0.0,0.0,0.0,0.0,0.0,0.0,0.0,0.0,0.0,0.0,0.0,0.0,0.0,0.0,0.0,0.0,0.0,0.0,0.0,0.0,0.0,0.0,0.0,0.0,0.0,0.0,0.0,-2.7626,-2.7626,-2.7534,-2.7185,-2.7185,-2.7021,-2.6704,-2.6373,-2.6135,-2.5895,-2.5895,-2.5646,-2.5316,-2.6053,-2.6235,-2.6134,-2.6877,-2.7327,-2.7589,-2.7589,-2.6999,-2.6118,-2.6512,-2.5935,-2.5158,-2.5741,-2.5945,-2.6041,-2.6426,-2.6532,-2.6628,-2.7494,-2.703,-2.635,-2.7105,-2.6914,-2.6167,-2.5314,-2.5586,-2.6147,-2.6532,-2.6628,-2.6723,-2.7094,-2.7189,-2.7189,-2.7189,-2.7673,-2.8143,-2.8143,-2.8609,-2.9084,-2.9084,-2.9084,-2.9176,-2.9566,-2.9658,-2.9749,-3.0125,-2.9658,-2.9095,-2.8724,-2.8341,-2.8423,-2.898,-2.7746,-2.6788,-2.6587,-2.6577,-2.6597,-2.6532,-2.5828,-2.5431,-2.5139,-2.3782,-2.2902,-2.24,-2.1717,-2.1224,-1.7222,-1.8503,-2.0,0.0,0.0,0.0,0.0,0.0,0.0,0.0,0.0,0.0,0.0,0.0,0.0,0.0,0.0,0.0,0.0,0.0,0.0,0.0,0.0,0.0,0.0,0.0,0.0,0.0,0.0,0.0,0.0,0.0,0.0,0.0,-2.8122,-2.795,-2.7592,-2.7603,-2.7522,-2.7441,-2.7115,-2.6704,-2.6302,-2.6302,-2.5863,-2.52,-2.6312,-2.6606,-2.6425,-2.7558,-2.8331,-2.8757,-2.8757,-2.8164,-2.7284,-2.7579,-2.7094,-2.6224,-2.6617,-2.6809,-2.6894,-2.7094,-2.72,-2.7494,-2.8258,-2.7788,-2.7125,-2.7966,-2.7683,-2.702,-2.6552,-2.6733,-2.7189,-2.7474,-2.7568,-2.7662,-2.8038,-2.8132,-2.8132,-2.8132,-2.8713,-2.9187,-2.9187,-2.9749,-3.0216,-3.0216,-3.0216,-3.0216,-3.0216,-3.0216,-3.0216,-3.0216,-2.9566,-2.9187,-2.9187,-2.9187,-2.9474,-3.0125,-2.8888,-2.8132,-2.8132,-2.8132,-2.8143,-2.8269,-2.7463,-2.7074,-2.6979,-2.5538,-2.4562,-2.406,-2.3276,-2.2685,-1.9603,-1.9964,0.0,0.0,0.0,0.0,0.0,0.0,0.0,0.0,0.0,0.0,0.0,0.0,0.0,0.0,0.0,0.0,0.0,0.0,0.0,0.0,0.0,0.0,0.0,0.0,0.0,0.0,0.0,0.0,0.0,0.0,0.0,0.0,-2.851,-2.851,-2.851,-2.851,-2.8283,-2.7893,-2.7893,-2.7626,-2.7185,-2.7185,-2.694,-2.6561,-2.7077,-2.7311,-2.7348,-2.7839,-2.832,-2.885,-2.885,-2.8164,-2.7379,-2.8456,-2.8164,-2.7379,-2.8642,-2.9301,-2.9485,-2.9485,-2.968,-2.9886,-2.9577,-2.8839,-2.7987,-2.7987,-2.7987,-2.7987,-2.7987,-2.741,-2.7105,-2.8038,-2.8319,-2.8702,-2.9932,-3.0216,-3.0216,-3.0216,-3.0216,-3.0216,-3.0216,-3.0216,-3.0216,-3.0216,-3.0216,-3.0216,-3.0216,-3.0216,-3.0216,-3.0216,-3.0216,-3.0216,-3.0216,-3.0216,-3.0216,-3.0216,-3.0216,-3.0216,-3.0216,-3.0216,-2.9749,-2.8724,-2.8724,-2.7945,-2.6481,-2.6386,-2.6184,-2.5586,-2.5576,-2.5586,-1.7782,-2.07,0.0,0.0,0.0,0.0,0.0,0.0,0.0,0.0,0.0,0.0,0.0,0.0,0.0,0.0,0.0,0.0,0.0,0.0,0.0,0.0,0.0,0.0,0.0,0.0,0.0,0.0,0.0,0.0,0.0,0.0,0.0,0.0,-2.851,-2.851,-2.851,-2.851,-2.8431,-2.8351,-2.8351,-2.7938,-2.7185,-2.7185,-2.7092,-2.7021,-2.7181,-2.7451,-2.7815,-2.8675,-2.9308,-2.976,-2.976,-2.9382,-2.8817,-2.9209,-2.8921,-2.8362,-2.8746,-2.8943,-2.9024,-2.9024,-2.9035,-2.9128,-2.9035,-2.8839,-2.856,-2.8746,-2.8746,-2.8746,-2.8746,-2.856,-2.8549,-2.9013,-2.9301,-2.9497,-2.9874,-3.0136,-3.0216,-3.0216,-3.0216,-3.0216,-3.0216,-3.0216,-3.0216,-3.0216,-3.0216,-3.0216,-3.0216,-3.0216,-3.0216,-3.0216,-3.0216,-3.0216,-3.0216,-3.0216,-3.0216,-3.0216,-3.0216,-3.0216,-3.0216,-3.0216,-3.0034,-2.9749,-2.9749,-2.9555,-2.9061,-2.8319,-2.7735,-2.7232,-2.6471,-2.5982,-2.0321,0.0,0.0,0.0,0.0,0.0,0.0,0.0,0.0,0.0,0.0,0.0,0.0,0.0,0.0,0.0,0.0,0.0,0.0,0.0,0.0,0.0,0.0,0.0,0.0,0.0,0.0,0.0,0.0,0.0,0.0,0.0,0.0,0.0,-2.851,-2.851,-2.851,-2.851,-2.851,-2.851,-2.851,-2.8259,-2.7684,-2.7684,-2.7603,-2.7452,-2.7485,-2.7667,-2.7939,-2.8958,-2.9553,-2.994,-3.0135,-3.0034,-2.976,-2.976,-2.9577,-2.9393,-2.9393,-2.9393,-2.9485,-2.9393,-2.9393,-2.9485,-2.9209,-2.9117,-2.9024,-2.9035,-2.8943,-2.8943,-2.8943,-2.8943,-2.9035,-2.9301,-2.9497,-2.96,-2.9886,-2.9966,-3.0136,-3.0216,-3.0216,-3.0216,-3.0216,-3.0216,-3.0216,-3.0216,-3.0216,-3.0216,-3.0216,-3.0216,-3.0216,-3.0216,-3.0216,-3.0216,-3.0216,-3.0216,-3.0216,-3.0216,-3.0216,-3.0216,-3.0216,-3.0216,-3.0216,-3.0216,-3.0216,-3.0216,-3.0216,-2.9566,-2.9084,-2.8773,-2.8204,-2.7714,0.0,0.0,0.0,0.0,0.0,0.0,0.0,0.0,0.0,0.0,0.0,0.0,0.0,0.0,0.0,0.0,0.0,0.0,0.0,0.0,0.0,0.0,0.0,0.0,0.0,0.0,0.0,0.0,0.0,0.0,0.0,0.0,0.0,-2.8657,-2.851,-2.851,-2.851,-2.851,-2.851,0.0,-2.851,-2.851,-2.851,-2.851,-2.8283,-2.7916,-2.7939,-2.7992,-2.8107,-2.9086,-2.9512,-2.9604,-3.0111,-3.0306,-3.0306,-3.0306,-3.0216,-3.0216,-3.0216,-3.0397,-3.0487,-3.0306,-3.0397,-3.0487,-2.976,-2.9577,-2.9485,-2.9035,-2.8839,-2.885,-2.885,-2.8757,-2.885,-2.9035,-2.9128,-2.922,-2.9703,-2.9886,-2.9874,-3.0136,-3.0125,-3.0216,-3.0216,-3.0216,-3.0216,-3.0216,-3.0216,-3.0216,-3.0216,-3.0216,-3.0216,-3.0216,-3.0216,-3.0216,-3.0216,-3.0216,-3.0216,-3.0216,-3.0216,-3.0216,-3.0216,-3.0216,-3.0216,-3.0216,-3.0216,-3.0216,-3.0216,-3.0216,-3.0216,-3.0216,-3.0216,-3.0216,0.0,0.0,0.0,0.0,0.0,0.0,0.0,0.0,0.0,0.0,0.0,0.0,0.0,0.0,0.0,0.0,0.0,0.0,0.0,0.0,0.0,0.0,0.0,0.0,0.0,0.0,0.0,0.0,0.0,0.0,0.0,0.0,0.0,-2.9484,-2.8803,-2.851,-2.851,-2.851,-2.851,0.0,-2.851,-2.851,-2.851,-2.851,-2.8431,-2.8363,-2.839,-2.8583,-2.9011,-2.9653,-3.0238,-3.0656,-3.118,-3.1128,-3.0769,-3.0769,-3.0487,-3.0216,-3.0216,-3.0216,-3.0306,-3.0216,-3.0216,-3.0216,-3.0125,-3.0034,-2.9943,-2.9485,-2.9301,-2.9301,-2.8943,-2.8757,-2.885,-2.885,-2.8943,-2.9128,-2.9231,-2.9405,-2.968,-2.9874,-2.9977,-2.9966,-3.0125,-3.0216,-3.0216,-3.0216,-3.0216,-3.0216,-3.0216,-3.0216,-3.0216,-3.0216,-3.0216,-3.0216,-3.0216,-3.0216,-3.0216,-3.0216,-3.0216,-3.0216,-3.0216,-3.0216,-3.0216,-3.0216,-3.0216,-3.0216,-3.0216,-3.0216,-3.0216,-3.0216,-3.0216,-3.0216,0.0,0.0,0.0,0.0,0.0,0.0,0.0,0.0,0.0,0.0,0.0,0.0,0.0,0.0,0.0,0.0,0.0,0.0,0.0,0.0,0.0,0.0,0.0,0.0,0.0,0.0,0.0,0.0,0.0,0.0,0.0,-3.1119,-3.067,-3.0291,-2.9471,-2.9106,-2.9106,-2.8657,-2.8657,-2.9106,-2.9106,-2.9106,-2.9028,-2.8657,-2.851,-2.851,-2.851,-2.8667,-2.8967,-2.9496,-3.0025,-3.0555,-3.1084,-3.1268,-3.1306,-3.1306,-3.1116,-3.0937,-3.0937,-3.0937,-3.0937,-3.0937,-3.0937,-3.0847,-3.0578,-3.0578,-3.0397,-2.9943,-2.9852,-2.976,-2.9485,-2.9485,-2.9485,-2.9485,-2.9209,-2.8943,-2.9128,-2.922,-2.9405,-2.9691,-2.9783,-2.9886,-3.0057,-3.0136,-3.0216,-3.0216,-3.0216,-3.0216,-3.0216,-3.0136,-3.0057,-3.0057,-2.9954,-2.9852,-2.9852,-2.9852,-2.9852,-2.9852,-2.9852,-2.9852,-2.9852,-2.9852,-2.9943,-3.0216,-3.0136,-3.0057,-3.0057,-2.9954,-2.9852,-2.9852,-2.9852,-2.9852,0.0,0.0,0.0,0.0,0.0,0.0,0.0,0.0,0.0,0.0,0.0,0.0,0.0,0.0,0.0,0.0,0.0,0.0,0.0,0.0,0.0,0.0,0.0,0.0,0.0,0.0,0.0,0.0,0.0,0.0,-3.2318,-3.216,-3.1783,-3.1119,-3.0304,-2.9922,-2.9922,-2.9263,-2.925,-2.9922,-2.9922,-2.9922,-2.9845,-2.9263,-2.8736,-2.851,-2.8669,-2.8657,-2.8546,-2.9076,-2.9556,-3.0013,-3.0627,-3.1144,-3.1541,-3.1637,-3.1837,-3.1913,-3.1749,-3.1837,-3.1913,-3.1749,-3.1661,-3.1661,-3.1128,-3.1038,-3.0949,-3.0487,-3.0306,-3.0306,-3.0216,-3.0216,-3.0216,-3.0216,-2.9577,-2.9128,-2.922,-2.922,-2.922,-2.9497,-2.9691,-2.9794,-2.9794,-2.9954,-3.0034,-3.0034,-3.0034,-3.0034,-3.0034,-2.9954,-2.9794,-2.9794,-2.9588,-2.9485,-2.9485,-2.9485,-2.9485,-2.9485,-2.9485,-2.9485,-2.9485,-2.9485,-2.9669,-3.0034,-2.9874,-2.9794,-2.9794,-2.9588,-2.9485,-2.9485,-2.9485,-2.9485,0.0,0.0,0.0,0.0,0.0,0.0,0.0,0.0,0.0,0.0,0.0,0.0,0.0,0.0,0.0,0.0,0.0,0.0,0.0,0.0,0.0,0.0,0.0,0.0,0.0,0.0,0.0,0.0,0.0,0.0,-3.3171,-3.2461,-3.2087,-3.1928,-3.1193,-3.0745,-3.0745,-3.067,-3.067,-3.0745,-3.0745,-3.0745,-3.0745,-3.0594,-2.9858,-2.851,-2.925,-2.9106,-2.8546,-2.9076,-2.934,-2.9508,-3.0494,-3.0915,-3.1036,-3.1492,-3.2164,-3.2747,-3.2001,-3.2152,-3.2747,-3.1913,-3.1661,-3.1661,-3.1572,-3.1572,-3.1484,-3.0949,-3.0769,-3.0668,-3.0306,-3.0216,-3.0216,-3.0216,-3.0125,-3.0034,-3.0034,-2.976,-2.9497,-2.9783,-2.9691,-2.9577,-2.9577,-2.9577,-2.9577,-2.9577,-2.9577,-2.9577,-2.9577,-2.9577,-2.9577,-2.9577,-2.9485,-2.9485,-2.9485,-2.9485,-2.9485,-2.9485,-2.9485,-2.9485,-2.9485,-2.9485,-2.9485,-2.9577,-2.9577,-2.9577,-2.9577,-2.9485,-2.9485,-2.9485,-2.9485,-2.9485,0.0,0.0,0.0,0.0,0.0,0.0,0.0,0.0,0.0,0.0,0.0,0.0,0.0,0.0,0.0,0.0,0.0,0.0,0.0,0.0,0.0,0.0,0.0,0.0,0.0,0.0,0.0,0.0,0.0,-3.3326,-3.3326,-3.2931,-3.2775,-3.2775,-3.2015,-3.1563,-3.1563,-3.1119,-3.1119,-3.1563,-3.1563,-3.1563,-3.1563,-3.1563,-3.097,-2.9845,-3.0215,-3.0152,-2.9871,-3.0123,-3.0401,-3.0729,-3.114,-3.1707,-3.2357,-3.2609,-3.3127,-3.3649,-3.331,-3.3395,-3.3649,-3.3322,-3.3152,-3.3152,-3.3152,-3.2821,-3.2401,-3.214,-3.1725,-3.1306,-3.1116,-3.1026,-3.1026,-3.1026,-3.1026,-3.1026,-3.1026,-3.0487,-2.9863,-2.9886,-2.96,-2.9301,-2.9485,-2.9485,-2.9485,-2.9485,-2.9485,-2.9485,-2.9485,-2.9393,-2.9312,-2.9312,-2.922,-2.9117,-2.9117,-2.9117,-2.9117,-2.9117,-2.9117,-2.9117,-2.9117,-2.9117,-2.9117,-2.9117,-2.922,-2.9312,-2.9312,-2.9117,-2.9117,-2.9117,-2.9117,-2.9117,0.0,0.0,0.0,0.0,0.0,0.0,0.0,0.0,0.0,0.0,0.0,0.0,0.0,0.0,0.0,0.0,0.0,0.0,0.0,0.0,0.0,0.0,0.0,0.0,0.0,0.0,0.0,0.0,0.0,-3.3326,-3.3326,-3.3326,-3.3326,-3.3326,-3.2704,-3.239,-3.239,-3.1796,-3.1796,-3.239,-3.239,-3.239,-3.239,-3.239,-3.2101,-3.1502,-3.1267,-3.1119,-3.0895,-3.0895,-3.1143,-3.1472,-3.1615,-3.228,-3.318,-3.3323,-3.3891,-3.4637,-3.4389,-3.4472,-3.465,-3.4319,-3.4236,-3.4236,-3.4152,-3.3661,-3.3164,-3.325,-3.276,-3.2264,-3.2326,-3.2326,-3.2326,-3.2326,-3.2164,-3.1913,-3.1572,-3.0937,-3.0318,-3.0057,-2.9691,-2.9393,-2.9669,-2.9669,-2.9669,-2.9485,-2.9485,-2.9485,-2.9301,-2.9128,-2.9035,-2.9035,-2.885,-2.8757,-2.8757,-2.8757,-2.8757,-2.8757,-2.8757,-2.8757,-2.8757,-2.8757,-2.8757,-2.8757,-2.8943,-2.9035,-2.9035,-2.885,-2.885,-2.885,-2.885,-2.885,0.0,0.0,0.0,0.0,0.0,0.0,0.0,0.0,0.0,0.0,0.0,0.0,0.0,0.0,0.0,0.0,0.0,0.0,0.0,0.0,0.0,0.0,0.0,0.0,0.0,0.0,0.0,0.0,0.0,-3.3326,-3.3326,-3.3326,-3.3326,-3.3326,-3.3241,-3.3241,-3.3241,-3.3171,-3.3171,-3.3241,-3.3241,-3.3241,-3.3241,-3.3241,-3.3241,-3.3157,-3.239,-3.1623,-3.0895,-3.0895,-3.0833,-3.0698,-3.1459,-3.1967,-3.2406,-3.318,-3.4324,-3.5494,-3.465,-3.4897,-3.5413,-3.4358,-3.4037,-3.3953,-3.3797,-3.3713,-3.3713,-3.3869,-3.3953,-3.394,-3.4152,-3.4139,-3.4139,-3.4139,-3.3564,-3.2562,-3.1193,-3.0859,-3.0758,-3.0306,-3.0125,-3.0125,-3.0125,-3.0125,-3.0034,-2.9577,-2.9485,-2.9301,-2.8932,-2.885,-2.885,-2.885,-2.885,-2.8757,-2.8757,-2.8757,-2.8757,-2.8757,-2.8757,-2.8757,-2.8757,-2.8757,-2.8757,-2.8757,-2.885,-2.885,-2.885,-2.885,-2.8943,-2.9128,-2.885,-2.8943,0.0,0.0,0.0,0.0,0.0,0.0,0.0,0.0,0.0,0.0,0.0,0.0,0.0,0.0,0.0,0.0,0.0,0.0,0.0,0.0,0.0,0.0,0.0,0.0,0.0,0.0,0.0,0.0,0.0,0.0,-3.3326,-3.3326,-3.3241,-3.3072,-3.3241,-3.3326,-3.3326,-3.3326,-3.3326,-3.3326,-3.3326,-3.3241,-3.3072,-3.3241,-3.3171,-3.2931,-3.2761,-3.2533,-3.2232,-3.2101,-3.2028,-3.1969,-3.2404,-3.2839,-3.3451,-3.4279,-3.5077,-3.576,-3.5801,-3.5951,-3.6045,-3.5629,-3.5548,-3.5562,-3.5467,-3.5046,-3.4538,-3.462,-3.4204,-3.3869,-3.4024,-3.4095,-3.4165,-3.4306,-3.4056,-3.372,-3.3212,-3.2376,-3.1865,-3.2277,-3.2166,-3.1892,-3.1892,-3.1892,-3.1892,-3.1704,-3.1211,-3.0699,-3.0135,-2.9635,-2.9382,-2.9646,-2.9726,-2.9726,-2.9726,-2.9726,-2.9463,-2.885,-2.8757,-2.8757,-2.8757,-2.8757,-2.8757,-2.8757,-2.8757,-2.8757,-2.8757,-2.8757,-2.885,-2.8943,-2.885,-2.8943,0.0,0.0,0.0,0.0,0.0,0.0,0.0,0.0,0.0,0.0,0.0,0.0,0.0,0.0,0.0,0.0,0.0,0.0,0.0,0.0,0.0,0.0,0.0,0.0,0.0,0.0,0.0,0.0,0.0,0.0,-3.3326,-3.3326,-3.3241,-3.3072,-3.3157,-3.3241,-3.3326,-3.3241,-3.3241,-3.3241,-3.3241,-3.3072,-3.2917,-3.3016,-3.2931,-3.2704,-3.2775,-3.2846,-3.2917,-3.2775,-3.2704,-3.2704,-3.2917,-3.3364,-3.3949,-3.4615,-3.5241,-3.5871,-3.6275,-3.6383,-3.6405,-3.6325,-3.6325,-3.6312,-3.6232,-3.571,-3.5291,-3.5386,-3.4964,-3.4634,-3.4868,-3.495,-3.5006,-3.4815,-3.4733,-3.4733,-3.4733,-3.3804,-3.3139,-3.3707,-3.361,-3.3331,-3.3331,-3.3331,-3.3344,-3.3161,-3.2673,-3.2079,-3.1604,-3.1021,-3.0765,-3.111,-3.0944,-3.0855,-3.0855,-3.0429,-2.9897,-2.929,-2.8932,-2.8757,-2.8757,-2.8757,-2.8757,-2.8757,-2.8757,-2.8757,-2.8757,-2.8757,-2.885,-2.8943,-2.885,-2.8943,0.0,0.0,0.0,0.0,0.0,0.0,0.0,0.0,0.0,0.0,0.0,0.0,0.0,0.0,0.0,0.0,0.0,0.0,0.0,0.0,0.0,0.0,0.0,0.0,0.0,0.0,0.0,0.0,0.0,-3.3326,-3.3326,-3.3312,-3.3326,-3.3326,-3.3072,-3.3072,-3.3255,-3.3072,-3.2988,-3.2988,-3.2988,-3.2917,-3.2704,-3.2704,-3.2704,-3.2704,-3.2489,-3.2489,-3.2704,-3.2704,-3.2704,-3.2704,-3.2917,-3.335,-3.3879,-3.4139,-3.4864,-3.576,-3.5802,-3.6036,-3.6298,-3.6152,-3.6086,-3.6072,-3.5804,-3.571,-3.5723,-3.5992,-3.6246,-3.6405,-3.6642,-3.685,-3.6822,-3.591,-3.5749,-3.5749,-3.5749,-3.4979,-3.4389,-3.4389,-3.4389,-3.4389,-3.4389,-3.4389,-3.4223,-3.3791,-3.3707,-3.3526,-3.2991,-3.2893,-3.2893,-3.2893,-3.2562,-3.2216,-3.2216,-3.111,-3.0339,-3.026,-2.9371,-2.8932,-2.8839,-2.885,-2.885,-2.885,-2.885,-2.885,-2.885,-2.885,-2.8943,-2.9128,-2.8943,-2.9024,-2.4031,0.0,0.0,0.0,0.0,0.0,0.0,0.0,0.0,0.0,0.0,0.0,0.0,0.0,0.0,0.0,0.0,0.0,0.0,0.0,0.0,0.0,0.0,0.0,0.0,0.0,0.0,0.0,-3.3452,-3.3326,-3.3326,-3.3157,-3.3072,-3.3072,-3.2917,-3.2775,-3.286,-3.2775,-3.2775,-3.2775,-3.2775,-3.2704,-3.2489,-3.2632,-3.2574,-3.23,-3.2359,-3.2359,-3.23,-3.23,-3.23,-3.2372,-3.2503,-3.2657,-3.2935,-3.3668,-3.4071,-3.4367,-3.5239,-3.5499,-3.547,-3.5748,-3.5804,-3.5804,-3.571,-3.571,-3.5723,-3.5804,-3.5884,-3.5965,-3.6391,-3.6772,-3.69,-3.673,-3.6652,-3.6652,-3.6652,-3.6401,-3.6229,-3.6229,-3.6229,-3.6229,-3.6229,-3.6229,-3.6229,-3.6056,-3.548,-3.4884,-3.4432,-3.3766,-3.3526,-3.3862,-3.3779,-3.3694,-3.3694,-3.3356,-3.2746,-3.1704,-3.144,-3.111,-3.0878,-3.0789,-3.0789,-3.0789,-3.0789,-3.0789,-3.0789,-2.9463,-2.885,-2.885,-2.8943,-2.9128,0.0,0.0,0.0,0.0,0.0,0.0,-2.7431,-2.9339,0.0,0.0,0.0,0.0,0.0,0.0,0.0,0.0,0.0,0.0,0.0,0.0,0.0,0.0,0.0,0.0,0.0,0.0,0.0,-3.377,-3.3646,-3.3452,-3.3326,-3.3072,-3.2988,-3.2988,-3.2704,-3.2632,-3.2704,-3.2632,-3.2561,-3.2561,-3.2561,-3.2489,-3.2286,-3.2431,-3.2372,-3.2169,-3.23,-3.23,-3.2182,-3.2182,-3.2241,-3.23,-3.2359,-3.2417,-3.2602,-3.3306,-3.3553,-3.368,-3.4533,-3.4782,-3.4945,-3.5312,-3.5423,-3.5464,-3.5642,-3.571,-3.571,-3.571,-3.5804,-3.5978,-3.6312,-3.6628,-3.685,-3.685,-3.6915,-3.6993,-3.6915,-3.685,-3.6915,-3.6978,-3.6978,-3.6978,-3.6978,-3.6978,-3.6993,-3.6929,-3.6429,-3.6004,-3.5575,-3.5156,-3.4992,-3.5251,-3.5251,-3.5182,-3.5182,-3.465,-3.3959,-3.3089,-3.2475,-3.2054,-3.1904,-3.1653,-3.1577,-3.1577,-3.1577,-3.1577,-3.1577,-3.0079,-2.9198,-2.8757,-2.8943,-2.9128,0.0,0.0,0.0,0.0,0.0,0.0,-2.9772,-3.0244,-3.1031,0.0,0.0,0.0,0.0,0.0,0.0,0.0,0.0,0.0,0.0,0.0,0.0,0.0,0.0,0.0,0.0,-3.4639,-3.4264,-3.3894,-3.3825,-3.3701,-3.3326,-3.3072,-3.2988,-3.2988,-3.2632,-3.2489,-3.2632,-3.2489,-3.2345,-3.2345,-3.2345,-3.23,-3.2182,-3.2182,-3.2182,-3.2182,-3.2182,-3.2182,-3.2182,-3.2182,-3.23,-3.2345,-3.2345,-3.2489,-3.2704,-3.2846,-3.3193,-3.356,-3.3775,-3.4076,-3.4479,-3.4854,-3.5008,-3.5159,-3.5452,-3.5669,-3.571,-3.571,-3.5898,-3.6166,-3.6325,-3.6563,-3.6642,-3.6642,-3.6772,-3.6915,-3.6707,-3.6642,-3.6707,-3.6915,-3.6915,-3.6915,-3.6915,-3.6915,-3.6836,-3.6707,-3.6642,-3.6642,-3.6405,-3.6563,-3.6642,-3.6642,-3.6484,-3.6405,-3.6405,-3.5264,-3.4485,-3.4485,-3.3259,-3.2574,-3.2574,-3.2178,-3.1928,-3.2016,-3.1928,-3.184,-3.1753,-3.0789,-2.9897,-2.9117,-2.9024,-2.9209,0.0,0.0,0.0,0.0,0.0,0.0,-2.6525,-2.7936,-2.9295,0.0,0.0,0.0,0.0,0.0,0.0,0.0,0.0,0.0,0.0,0.0,0.0,0.0,0.0,0.0,0.0,-3.4601,-3.4385,-3.4409,-3.4206,-3.3825,-3.3326,-3.3072,-3.2917,-3.2775,-3.2561,-3.2359,-3.2314,-3.2241,-3.2241,-3.2241,-3.2241,-3.2241,-3.2182,-3.2182,-3.2182,-3.2182,-3.2182,-3.2182,-3.2182,-3.2182,-3.2255,-3.2241,-3.2241,-3.2241,-3.2314,-3.2431,-3.2643,-3.2966,-3.3477,-3.3726,-3.3845,-3.4224,-3.459,-3.4855,-3.4963,-3.533,-3.571,-3.571,-3.5898,-3.6086,-3.6166,-3.6325,-3.6484,-3.6484,-3.647,-3.647,-3.6484,-3.6484,-3.6484,-3.6549,-3.6549,-3.6549,-3.6549,-3.6549,-3.647,-3.647,-3.6484,-3.6484,-3.6405,-3.6405,-3.6484,-3.6484,-3.6405,-3.6405,-3.6405,-3.6138,-3.579,-3.5453,-3.5182,-3.4937,-3.4772,-3.4384,-3.4217,-3.4371,-3.4037,-3.3518,-3.2722,-3.1753,-3.1223,-3.1045,-3.026,-3.0,0.0,0.0,0.0,-2.6726,0.0,0.0,0.0,-2.9124,-3.015,0.0,0.0,0.0,0.0,0.0,0.0,0.0,0.0,0.0,0.0,0.0,0.0,0.0,0.0,0.0,0.0,-3.5249,-3.5088,-3.5255,-3.4409,-3.4085,-3.4461,-3.3451,-3.3171,-3.3837,-3.3157,-3.3017,-3.3506,-3.3311,-3.3241,-3.3241,-3.3241,-3.3241,-3.3241,-3.3241,-3.3241,-3.3241,-3.3241,-3.3044,-3.2704,-3.2704,-3.2503,-3.2182,-3.2182,-3.2182,-3.2255,-3.2359,-3.2489,-3.2602,-3.299,-3.3173,-3.3197,-3.3581,-3.3902,-3.4118,-3.4651,-3.5248,-3.571,-3.571,-3.5804,-3.5898,-3.5898,-3.6072,-3.6246,-3.6246,-3.6325,-3.6405,-3.6246,-3.6246,-3.6232,-3.6058,-3.6058,-3.6152,-3.6391,-3.6405,-3.6405,-3.6246,-3.6246,-3.6232,-3.6058,-3.6152,-3.6246,-3.6246,-3.6325,-3.6405,-3.6405,-3.6405,-3.6312,-3.6218,-3.5965,-3.5884,-3.5898,-3.5494,-3.5318,-3.5399,-3.499,-3.4564,-3.4037,-3.3335,-3.255,-3.1577,-3.1134,-3.0699,0.0,0.0,0.0,0.0,0.0,-2.8764,0.0,0.0,0.0,0.0,0.0,0.0,0.0,0.0,0.0,0.0,0.0,0.0,0.0,0.0,0.0,0.0,0.0,0.0,0.0,-3.5241,-3.5266,-3.574,-3.4471,-3.4222,-3.5371,-3.4008,-3.3765,-3.4916,-3.409,-3.4013,-3.4751,-3.4499,-3.4365,-3.4312,-3.4312,-3.4312,-3.4312,-3.4312,-3.4312,-3.4312,-3.4312,-3.3973,-3.3422,-3.3422,-3.3101,-3.2574,-3.2444,-3.23,-3.2241,-3.2489,-3.2475,-3.2417,-3.2561,-3.2632,-3.2715,-3.3051,-3.3211,-3.3465,-3.4461,-3.5167,-3.5574,-3.5683,-3.571,-3.571,-3.571,-3.5898,-3.5992,-3.5992,-3.6152,-3.6232,-3.6072,-3.5992,-3.5992,-3.5723,-3.571,-3.5804,-3.6232,-3.6232,-3.6232,-3.6072,-3.5992,-3.5898,-3.5723,-3.5898,-3.5992,-3.5992,-3.6152,-3.6232,-3.6232,-3.6232,-3.6312,-3.647,-3.6204,-3.6138,-3.6405,-3.6058,-3.5804,-3.571,-3.5399,-3.5154,-3.5086,-3.4743,-3.3687,-3.2103,-3.1928,-3.1589,0.0,0.0,0.0,0.0,-3.0202,0.0,0.0,0.0,0.0,-2.8796,0.0,0.0,0.0,0.0,0.0,0.0,0.0,0.0,0.0,0.0,0.0,0.0,0.0,0.0,0.0,0.0,-3.3637,-3.522,-3.4015,-3.3653,-3.4849,-3.4981,-3.4847,-3.4424,-3.4818,-3.4984,-3.4817,-3.4765,-3.4566,-3.4312,-3.4312,-3.4312,-3.4312,-3.4312,-3.4312,-3.4312,-3.4312,-3.4245,-3.4177,-3.4177,-3.4109,-3.3973,-3.3367,-3.269,-3.2241,-3.2889,-3.2818,-3.2417,-3.2417,-3.2417,-3.2431,-3.2499,-3.275,-3.3356,-3.4475,-3.4882,-3.5031,-3.5574,-3.571,-3.571,-3.571,-3.571,-3.5723,-3.5723,-3.5723,-3.5804,-3.5723,-3.5723,-3.5723,-3.5723,-3.571,-3.5723,-3.5804,-3.5804,-3.5804,-3.5723,-3.5723,-3.571,-3.571,-3.5723,-3.5723,-3.5723,-3.5804,-3.5804,-3.5804,-3.5804,-3.5804,-3.5804,-3.5978,-3.6152,-3.6405,-3.6312,-3.6138,-3.571,-3.5629,-3.548,-3.5086,-3.5086,-3.4729,-3.405,-3.325,-3.2809,0.0,0.0,0.0,0.0,0.0,0.0,-3.0101,0.0,-2.9559,0.0,0.0,0.0,0.0,0.0,0.0,0.0,0.0,0.0,0.0,0.0,0.0,0.0,0.0,0.0,0.0,0.0,0.0,0.0,0.0,-3.4901,-3.618,-3.534,-3.517,-3.5829,-3.5922,-3.6151,-3.66,-3.643,-3.6134,-3.5864,-3.5864,-3.5785,-3.5608,-3.5608,-3.5608,-3.5608,-3.5608,-3.532,-3.4927,-3.4927,-3.4714,-3.4312,-3.4447,-3.4041,-3.3451,-3.3699,-3.3699,-3.3492,-3.3492,-3.3227,-3.2818,-3.2431,-3.2636,-3.3159,-3.3661,-3.4041,-3.4434,-3.5031,-3.5208,-3.5289,-3.5628,-3.571,-3.571,-3.571,-3.571,-3.571,-3.571,-3.571,-3.571,-3.571,-3.571,-3.571,-3.571,-3.571,-3.571,-3.571,-3.571,-3.571,-3.571,-3.571,-3.571,-3.571,-3.571,-3.571,-3.571,-3.571,-3.5804,-3.6058,-3.6457,-3.6693,-3.6772,-3.6772,-3.6679,-3.6429,-3.6204,-3.6058,-3.5817,-3.5331,-3.499,-3.4825,-3.4121,-3.3518,-3.2366,0.0,0.0,0.0,0.0,0.0,0.0,0.0,0.0,0.0,0.0,0.0,0.0,0.0,0.0,0.0,0.0,0.0,0.0,0.0,0.0,0.0,0.0,0.0,0.0,0.0,0.0,-3.6731,-3.5812,-3.5681,-3.6961,-3.5853,-3.5677,-3.6692,-3.6663,-3.7062,-3.7886,-3.7594,-3.7314,-3.7044,-3.6938,-3.6816,-3.6631,-3.6554,-3.6554,-3.6616,-3.6554,-3.6211,-3.5737,-3.5672,-3.5335,-3.4993,-3.5464,-3.5335,-3.478,-3.4647,-3.4447,-3.4312,-3.4312,-3.3973,-3.3422,-3.2903,-3.3079,-3.3467,-3.3633,-3.3919,-3.4313,-3.4703,-3.4991,-3.5159,-3.5357,-3.5601,-3.571,-3.571,-3.571,-3.571,-3.571,-3.571,-3.571,-3.571,-3.571,-3.571,-3.571,-3.571,-3.571,-3.571,-3.571,-3.571,-3.571,-3.571,-3.571,-3.571,-3.571,-3.571,-3.571,-3.571,-3.5884,-3.6405,-3.6615,-3.6836,-3.6915,-3.6836,-3.6836,-3.6836,-3.6549,-3.6391,-3.6312,-3.5562,-3.5236,-3.5236,-3.4647,-3.4037,0.0,0.0,0.0,-3.0922,0.0,0.0,0.0,0.0,-3.0746,0.0,0.0,0.0,0.0,0.0,0.0,0.0,0.0,0.0,0.0,0.0,0.0,0.0,0.0,0.0,0.0,0.0,0.0,-3.3975,-3.453,-3.5241,-3.6254,-3.677,-3.6708,-3.6039,-3.6841,-3.7496,-3.787,-3.7743,-3.7508,-3.7194,-3.6831,-3.68,-3.6954,-3.6785,-3.68,-3.6954,-3.6616,-3.6538,-3.6646,-3.6336,-3.6274,-3.6414,-3.6429,-3.6352,-3.607,-3.5529,-3.4912,-3.4312,-3.4312,-3.4312,-3.4245,-3.4245,-3.4259,-3.439,-3.4929,-3.5131,-3.515,-3.5015,-3.5409,-3.5718,-3.4998,-3.5289,-3.571,-3.571,-3.571,-3.571,-3.571,-3.571,-3.571,-3.571,-3.571,-3.571,-3.571,-3.571,-3.571,-3.571,-3.571,-3.571,-3.571,-3.571,-3.571,-3.571,-3.571,-3.571,-3.571,-3.571,-3.5884,-3.6405,-3.6246,-3.6312,-3.6707,-3.6549,-3.6405,-3.6405,-3.6405,-3.6312,-3.6031,-3.579,-3.571,-3.5629,-3.4812,-3.4397,0.0,0.0,-3.4742,-3.1879,0.0,0.0,0.0,0.0,0.0,0.0,0.0,0.0,0.0,0.0,0.0,0.0,0.0,0.0,0.0,0.0,0.0,0.0,0.0,0.0,0.0,0.0,0.0,-3.4617,-3.5776,-3.6653,0.0,-3.6756,-3.6459,-3.6291,-3.6825,-3.727,-3.7496,-3.7751,-3.7759,-3.7508,-3.7254,-3.7089,-3.7015,-3.6938,-3.6938,-3.7015,-3.6877,-3.6923,-3.7013,-3.6876,-3.6892,-3.6952,-3.6723,-3.6538,-3.6352,-3.6211,-3.5879,-3.5529,-3.5124,-3.4993,-3.481,-3.4341,-3.4206,-3.4249,-3.4384,-3.4441,-3.4517,-3.4868,-3.4778,-3.4604,-3.4734,-3.4835,-3.4901,-3.4901,-3.5117,-3.5318,-3.548,-3.548,-3.5562,-3.5629,-3.571,-3.571,-3.571,-3.571,-3.571,-3.571,-3.571,-3.571,-3.571,-3.571,-3.571,-3.571,-3.571,-3.571,-3.571,-3.5898,-3.6072,-3.6166,-3.6246,-3.6325,-3.6484,-3.6484,-3.6405,-3.6405,-3.6405,-3.6391,-3.6218,-3.5884,-3.571,-3.571,-3.5141,-3.4825,-3.5666,-3.6106,0.0,-3.3137,-3.3332,0.0,-3.0522,0.0,0.0,0.0,0.0,0.0,0.0,0.0,0.0,0.0,0.0,0.0,0.0,-2.5616,0.0,0.0,0.0,0.0,0.0,0.0,-3.3406,-3.488,-3.6163,-3.695,0.0,0.0,-3.6141,-3.5971,-3.64,-3.6844,-3.7213,-3.7639,-3.7759,-3.77,-3.7433,-3.727,-3.7181,-3.7105,-3.7121,-3.7181,-3.7076,-3.7105,-3.7178,-3.7074,-3.7074,-3.7089,-3.6923,-3.6739,-3.6538,-3.6538,-3.6585,-3.6507,-3.6165,-3.5928,-3.5752,-3.5154,-3.5008,-3.5008,-3.4876,-3.4876,-3.4964,-3.5025,-3.4889,-3.4754,-3.4761,-3.4891,-3.4953,-3.489,-3.5264,-3.5702,-3.5782,-3.6026,-3.6256,-3.6415,-3.6256,-3.6111,-3.6097,-3.5857,-3.571,-3.571,-3.571,-3.571,-3.571,-3.571,-3.571,-3.571,-3.571,-3.571,-3.571,-3.5898,-3.5992,-3.6072,-3.6152,-3.6232,-3.6325,-3.6232,-3.6042,-3.5837,-3.6029,-3.6122,-3.5995,-3.5789,-3.5804,-3.5978,-3.5399,-3.5236]},{"header":{"parameterUnit":"m.s-1","parameterCategory":1,"la1":30.6,"la2":29.2853,"lo1":-89.7004,"lo2":-87.6739,"dy":0.0162,"dx":0.0183,"nx":112,"ny":82,"refTime":"2023-04-28T18:00:00:Z","depth":0,"parameterNumber":3,"parameterNumberName":"V-component_of_WINDS"},"data":[0.0,0.0,0.0,0.0,0.0,0.0,0.0,0.0,0.0,0.0,0.0,0.0,0.0,0.0,0.0,0.0,0.0,0.0,0.0,0.0,0.0,0.0,0.0,0.0,0.0,0.0,0.0,0.0,0.0,0.0,0.0,0.0,0.0,0.0,0.0,0.0,0.0,0.0,0.0,0.0,0.0,0.0,0.0,0.0,0.0,0.0,0.0,0.0,0.0,0.0,0.0,0.0,0.0,0.0,0.0,0.0,0.0,0.0,0.0,0.0,0.0,0.0,0.0,0.0,0.0,0.0,0.0,0.0,0.0,0.0,0.0,0.0,0.0,0.0,0.0,0.0,0.0,0.0,0.0,0.0,0.0,0.0,0.0,0.0,0.0,0.0,0.0,0.0,0.0,0.0,-2.9018,-3.0471,-3.3969,-3.5894,-3.5142,-3.572,-3.3965,-2.892,0.0,0.0,0.0,0.0,0.0,0.0,0.0,0.0,0.0,0.0,0.0,0.0,0.0,0.0,0.0,0.0,0.0,0.0,0.0,0.0,0.0,0.0,0.0,0.0,0.0,0.0,0.0,0.0,0.0,0.0,0.0,0.0,0.0,0.0,0.0,0.0,0.0,0.0,0.0,0.0,0.0,0.0,0.0,0.0,0.0,0.0,0.0,0.0,0.0,0.0,0.0,0.0,0.0,0.0,0.0,0.0,0.0,0.0,0.0,0.0,0.0,0.0,0.0,0.0,0.0,0.0,0.0,0.0,0.0,0.0,0.0,0.0,0.0,0.0,0.0,0.0,0.0,0.0,0.0,0.0,0.0,0.0,0.0,0.0,0.0,0.0,0.0,0.0,0.0,0.0,0.0,0.0,0.0,0.0,0.0,0.0,0.0,0.0,0.0,0.0,0.0,0.0,0.0,0.0,-3.1663,-3.5662,-3.6704,-3.7029,-3.6833,-3.6921,-3.5127,-3.0677,0.0,0.0,0.0,0.0,0.0,0.0,0.0,0.0,0.0,0.0,0.0,0.0,0.0,0.0,0.0,0.0,0.0,0.0,0.0,0.0,0.0,0.0,0.0,0.0,0.0,0.0,0.0,0.0,0.0,0.0,0.0,0.0,0.0,0.0,0.0,0.0,0.0,0.0,0.0,0.0,0.0,0.0,0.0,0.0,0.0,0.0,0.0,0.0,0.0,0.0,0.0,0.0,0.0,0.0,0.0,0.0,0.0,0.0,0.0,0.0,0.0,0.0,0.0,0.0,0.0,0.0,0.0,0.0,0.0,0.0,0.0,0.0,0.0,0.0,0.0,0.0,0.0,0.0,0.0,0.0,0.0,0.0,0.0,0.0,0.0,0.0,0.0,0.0,0.0,0.0,0.0,0.0,0.0,0.0,0.0,0.0,0.0,0.0,0.0,0.0,0.0,0.0,0.0,-3.0144,-3.2541,-3.7474,-3.7969,-3.7934,-3.7906,-3.7873,-3.6016,-3.1718,-3.1461,0.0,0.0,0.0,0.0,0.0,0.0,0.0,0.0,0.0,0.0,0.0,0.0,0.0,0.0,0.0,0.0,0.0,0.0,0.0,0.0,0.0,0.0,0.0,0.0,0.0,0.0,0.0,0.0,0.0,0.0,0.0,0.0,0.0,0.0,0.0,0.0,0.0,0.0,0.0,0.0,0.0,0.0,0.0,0.0,0.0,0.0,0.0,0.0,0.0,0.0,0.0,0.0,0.0,0.0,0.0,0.0,0.0,0.0,0.0,0.0,0.0,0.0,0.0,0.0,0.0,0.0,0.0,0.0,0.0,0.0,0.0,0.0,0.0,0.0,0.0,0.0,0.0,0.0,0.0,0.0,0.0,0.0,0.0,0.0,0.0,0.0,0.0,0.0,0.0,0.0,0.0,0.0,0.0,0.0,0.0,0.0,0.0,0.0,0.0,0.0,0.0,0.0,-3.149,-3.3719,-3.8118,-3.8522,-3.858,-3.8778,-3.8734,-3.6787,-3.2284,-3.1999,0.0,0.0,0.0,0.0,0.0,0.0,0.0,0.0,0.0,0.0,0.0,0.0,0.0,0.0,0.0,0.0,0.0,0.0,0.0,0.0,0.0,0.0,0.0,0.0,0.0,0.0,0.0,0.0,0.0,0.0,0.0,0.0,0.0,0.0,0.0,0.0,0.0,0.0,0.0,0.0,0.0,0.0,0.0,0.0,0.0,0.0,0.0,0.0,0.0,0.0,0.0,0.0,0.0,0.0,0.0,0.0,0.0,0.0,0.0,0.0,0.0,0.0,0.0,0.0,0.0,0.0,0.0,0.0,0.0,0.0,0.0,0.0,0.0,0.0,0.0,0.0,0.0,0.0,0.0,0.0,0.0,0.0,0.0,0.0,0.0,0.0,0.0,0.0,0.0,0.0,0.0,0.0,0.0,0.0,0.0,0.0,0.0,0.0,0.0,0.0,0.0,0.0,-3.3558,-3.6365,-3.8293,-3.8498,-3.8792,-3.9555,-3.9604,-3.7428,-3.2315,-3.201,0.0,0.0,0.0,0.0,0.0,0.0,0.0,0.0,0.0,0.0,0.0,0.0,0.0,0.0,0.0,0.0,0.0,0.0,0.0,0.0,0.0,0.0,0.0,0.0,0.0,0.0,0.0,0.0,0.0,0.0,0.0,0.0,0.0,0.0,0.0,0.0,0.0,0.0,0.0,0.0,0.0,0.0,0.0,0.0,0.0,0.0,0.0,0.0,0.0,0.0,0.0,0.0,0.0,0.0,0.0,0.0,0.0,0.0,0.0,0.0,0.0,0.0,0.0,0.0,0.0,0.0,0.0,0.0,0.0,0.0,0.0,0.0,0.0,0.0,0.0,0.0,0.0,0.0,0.0,0.0,0.0,0.0,0.0,0.0,0.0,0.0,0.0,0.0,0.0,0.0,0.0,0.0,0.0,0.0,0.0,0.0,0.0,0.0,0.0,0.0,0.0,0.0,-3.49,-3.7596,0.0,-4.0051,-3.9932,-3.9655,-3.9636,-3.7447,-3.2318,0.0,0.0,0.0,0.0,0.0,0.0,0.0,0.0,0.0,0.0,0.0,0.0,0.0,0.0,0.0,0.0,0.0,0.0,0.0,0.0,0.0,0.0,0.0,0.0,0.0,0.0,0.0,0.0,0.0,0.0,0.0,0.0,0.0,0.0,0.0,0.0,0.0,0.0,0.0,0.0,0.0,0.0,0.0,0.0,0.0,0.0,0.0,0.0,0.0,0.0,0.0,0.0,0.0,0.0,0.0,0.0,0.0,0.0,0.0,0.0,0.0,0.0,0.0,0.0,0.0,0.0,0.0,0.0,0.0,0.0,0.0,0.0,0.0,0.0,0.0,0.0,0.0,0.0,0.0,0.0,0.0,0.0,0.0,0.0,0.0,0.0,0.0,0.0,0.0,0.0,0.0,0.0,0.0,0.0,0.0,0.0,0.0,0.0,0.0,0.0,0.0,0.0,-3.2695,-3.5661,-3.8383,0.0,-4.0584,-4.044,-4.0052,-4.0014,-3.7955,-3.3102,0.0,0.0,0.0,0.0,0.0,0.0,0.0,0.0,0.0,0.0,0.0,0.0,0.0,0.0,0.0,0.0,0.0,0.0,0.0,0.0,0.0,0.0,0.0,0.0,0.0,0.0,0.0,0.0,0.0,0.0,0.0,0.0,0.0,0.0,0.0,0.0,0.0,0.0,0.0,0.0,0.0,0.0,0.0,0.0,0.0,0.0,0.0,0.0,0.0,0.0,0.0,0.0,0.0,0.0,0.0,0.0,0.0,0.0,0.0,0.0,0.0,0.0,0.0,0.0,0.0,0.0,0.0,0.0,0.0,0.0,0.0,0.0,0.0,0.0,0.0,0.0,0.0,0.0,0.0,0.0,0.0,0.0,0.0,0.0,0.0,0.0,0.0,0.0,0.0,0.0,0.0,0.0,0.0,0.0,0.0,0.0,0.0,0.0,0.0,0.0,0.0,0.0,-3.2129,-3.5867,-3.8822,-3.9624,-3.9715,-4.0018,-4.082,-4.0888,-3.906,0.0,0.0,0.0,0.0,0.0,0.0,0.0,0.0,0.0,0.0,0.0,0.0,0.0,0.0,0.0,0.0,0.0,0.0,0.0,0.0,0.0,0.0,0.0,0.0,0.0,0.0,0.0,0.0,0.0,0.0,0.0,0.0,0.0,0.0,0.0,0.0,0.0,0.0,0.0,0.0,0.0,0.0,0.0,0.0,0.0,0.0,0.0,0.0,0.0,0.0,0.0,0.0,0.0,0.0,0.0,0.0,0.0,0.0,0.0,0.0,0.0,0.0,0.0,0.0,0.0,0.0,0.0,0.0,0.0,0.0,0.0,0.0,0.0,0.0,0.0,0.0,0.0,0.0,0.0,0.0,0.0,0.0,0.0,0.0,0.0,0.0,0.0,0.0,0.0,0.0,0.0,0.0,0.0,0.0,0.0,0.0,0.0,0.0,0.0,0.0,0.0,0.0,0.0,-3.3867,-3.7578,-4.0268,-4.0516,-4.0509,-4.0325,-3.9951,-3.9859,-3.7771,-3.2901,0.0,0.0,0.0,0.0,0.0,0.0,0.0,0.0,0.0,0.0,0.0,0.0,0.0,0.0,0.0,0.0,0.0,0.0,0.0,0.0,0.0,0.0,0.0,0.0,0.0,0.0,0.0,0.0,0.0,0.0,0.0,0.0,0.0,0.0,0.0,0.0,0.0,0.0,0.0,0.0,0.0,0.0,0.0,0.0,0.0,0.0,0.0,0.0,0.0,0.0,0.0,0.0,0.0,0.0,0.0,0.0,0.0,0.0,0.0,0.0,0.0,0.0,0.0,0.0,0.0,0.0,0.0,0.0,0.0,0.0,0.0,0.0,0.0,0.0,0.0,0.0,0.0,0.0,0.0,0.0,0.0,0.0,0.0,0.0,0.0,0.0,0.0,0.0,0.0,0.0,0.0,0.0,0.0,0.0,0.0,0.0,0.0,0.0,0.0,0.0,0.0,0.0,-3.4588,-3.8284,-4.0888,-4.0859,-4.0807,-4.066,-4.0397,-4.0042,-3.835,-3.4846,0.0,0.0,0.0,0.0,0.0,0.0,0.0,0.0,0.0,0.0,0.0,0.0,0.0,0.0,0.0,0.0,0.0,0.0,0.0,0.0,0.0,0.0,0.0,0.0,0.0,0.0,0.0,0.0,0.0,0.0,0.0,0.0,0.0,0.0,0.0,0.0,0.0,0.0,0.0,0.0,0.0,0.0,0.0,0.0,0.0,0.0,0.0,0.0,0.0,0.0,0.0,0.0,0.0,0.0,0.0,0.0,0.0,0.0,0.0,0.0,0.0,0.0,0.0,0.0,0.0,0.0,0.0,0.0,0.0,0.0,0.0,0.0,0.0,0.0,0.0,0.0,0.0,0.0,0.0,0.0,0.0,0.0,0.0,0.0,0.0,0.0,0.0,0.0,0.0,0.0,0.0,0.0,0.0,0.0,0.0,0.0,0.0,0.0,0.0,0.0,0.0,0.0,-3.4624,-3.8362,-4.0955,-4.0807,-4.073,-4.0932,-4.1536,-4.0904,-3.9961,-3.8742,0.0,0.0,0.0,0.0,0.0,0.0,0.0,0.0,0.0,0.0,0.0,0.0,0.0,0.0,0.0,0.0,0.0,0.0,0.0,0.0,0.0,0.0,0.0,0.0,0.0,0.0,0.0,0.0,0.0,0.0,0.0,0.0,0.0,0.0,0.0,0.0,0.0,0.0,0.0,0.0,0.0,0.0,0.0,0.0,0.0,0.0,0.0,0.0,0.0,0.0,0.0,0.0,0.0,0.0,0.0,0.0,0.0,0.0,0.0,0.0,-3.1851,0.0,0.0,0.0,0.0,0.0,0.0,0.0,0.0,0.0,0.0,0.0,0.0,0.0,0.0,0.0,0.0,0.0,0.0,0.0,0.0,0.0,0.0,0.0,0.0,0.0,0.0,0.0,0.0,0.0,0.0,0.0,0.0,0.0,0.0,0.0,0.0,0.0,0.0,0.0,0.0,0.0,-3.4789,-3.8894,-4.1626,-4.0876,-4.0694,-4.0665,-4.0735,-4.0452,-3.9313,-3.7082,-3.6766,0.0,0.0,0.0,0.0,0.0,0.0,0.0,0.0,0.0,0.0,0.0,0.0,0.0,0.0,0.0,0.0,0.0,0.0,0.0,0.0,0.0,0.0,0.0,0.0,0.0,0.0,0.0,0.0,0.0,0.0,0.0,0.0,0.0,0.0,0.0,0.0,0.0,0.0,0.0,0.0,0.0,0.0,0.0,0.0,0.0,0.0,0.0,0.0,0.0,0.0,0.0,0.0,0.0,0.0,0.0,0.0,0.0,0.0,0.0,0.0,-3.159,0.0,0.0,0.0,0.0,0.0,0.0,0.0,0.0,0.0,0.0,0.0,0.0,0.0,0.0,0.0,0.0,0.0,0.0,0.0,0.0,0.0,0.0,0.0,0.0,0.0,0.0,0.0,0.0,0.0,0.0,0.0,0.0,0.0,0.0,0.0,0.0,0.0,0.0,0.0,0.0,-3.4561,-3.853,-4.1187,-4.0588,-4.0415,-4.0492,-4.0806,-4.0387,-3.9679,-3.8686,-3.7604,0.0,0.0,0.0,0.0,0.0,0.0,0.0,0.0,0.0,0.0,0.0,0.0,0.0,0.0,0.0,0.0,0.0,0.0,0.0,0.0,0.0,0.0,0.0,0.0,0.0,0.0,0.0,0.0,0.0,0.0,0.0,0.0,0.0,0.0,0.0,0.0,0.0,0.0,0.0,0.0,0.0,0.0,0.0,0.0,0.0,0.0,0.0,0.0,0.0,0.0,0.0,0.0,0.0,-3.2718,-3.3475,-3.4668,-3.4674,-3.5626,-3.7084,-3.3808,-3.3114,-3.4189,0.0,0.0,0.0,0.0,0.0,0.0,0.0,0.0,0.0,0.0,0.0,0.0,0.0,0.0,0.0,0.0,0.0,0.0,0.0,0.0,0.0,0.0,0.0,0.0,0.0,-3.7507,-3.8898,0.0,0.0,0.0,0.0,0.0,0.0,0.0,0.0,0.0,0.0,0.0,0.0,-3.4652,-3.838,-4.0848,-4.0319,-4.0157,-4.0367,-4.0967,-4.0376,-4.0214,-4.0755,-3.8357,-3.7129,0.0,0.0,0.0,0.0,0.0,0.0,0.0,0.0,0.0,0.0,0.0,0.0,0.0,0.0,0.0,0.0,0.0,0.0,0.0,0.0,0.0,0.0,0.0,0.0,0.0,0.0,0.0,0.0,0.0,0.0,0.0,0.0,-3.1642,-3.0083,0.0,0.0,0.0,0.0,0.0,0.0,0.0,0.0,0.0,0.0,0.0,0.0,0.0,-3.2908,-3.3826,-3.4942,-3.5872,-3.6615,-3.7913,-3.8252,-3.7702,-3.7717,-3.7487,-3.7111,-3.6572,0.0,-3.5799,-3.5663,0.0,0.0,0.0,0.0,0.0,0.0,0.0,0.0,0.0,0.0,0.0,0.0,0.0,0.0,0.0,0.0,0.0,0.0,0.0,0.0,0.0,0.0,-3.9252,-3.9135,-3.9339,-3.9758,0.0,-3.8293,-3.6273,-3.6071,-3.5514,0.0,0.0,0.0,0.0,0.0,0.0,0.0,-3.626,-4.0094,-4.2242,-4.0642,-4.0304,-4.0215,-4.033,-4.0055,-3.9927,-3.9974,-3.958,-3.8814,-3.7661,-3.7278,0.0,0.0,0.0,0.0,0.0,0.0,0.0,0.0,0.0,0.0,0.0,0.0,0.0,0.0,0.0,0.0,0.0,0.0,0.0,0.0,0.0,0.0,0.0,0.0,0.0,0.0,0.0,0.0,0.0,-2.9044,-2.8594,-2.8764,-2.8166,-2.7788,0.0,0.0,0.0,0.0,0.0,0.0,0.0,0.0,0.0,-3.3885,-3.4813,-3.5666,-3.6425,-3.7022,-3.7319,-3.7305,-3.7928,-3.8559,-3.9133,-3.8597,-3.8691,-3.9218,-3.8719,-3.8352,-3.8011,-3.7198,-3.5645,-3.3788,0.0,0.0,0.0,0.0,-3.3053,-3.2891,-3.4793,-3.5458,0.0,0.0,0.0,0.0,0.0,0.0,0.0,0.0,0.0,0.0,0.0,0.0,0.0,-4.092,-4.1116,-4.1211,-4.1569,-4.064,-3.9372,0.0,-3.6435,-3.4535,-3.2197,0.0,0.0,0.0,0.0,-3.761,-3.7756,-4.0758,-4.2524,-4.1666,-4.149,-4.1468,-4.1529,-4.1466,-4.138,-4.1317,-4.09,-4.0352,-3.9635,-3.8309,-3.6979,0.0,0.0,0.0,0.0,0.0,0.0,0.0,0.0,0.0,0.0,0.0,0.0,0.0,0.0,0.0,0.0,0.0,0.0,0.0,0.0,0.0,0.0,0.0,0.0,0.0,0.0,0.0,0.0,-2.7982,-2.7801,-2.8823,-2.8573,-2.8426,0.0,0.0,0.0,0.0,0.0,0.0,-3.2981,-3.4645,-3.58,-3.6214,-3.7149,-3.7977,-3.8667,-3.8662,-3.8616,-3.852,-3.8497,-3.918,-4.0373,-3.9458,-3.9712,-4.0841,-3.9983,-3.9626,-3.9537,-3.8433,-3.7656,-3.7148,-3.7276,-3.6594,-3.5618,-3.627,-3.6117,-3.5833,-3.7562,-3.8175,-3.8061,-3.7395,0.0,-3.6589,-3.6297,0.0,0.0,0.0,0.0,-3.7252,-3.8937,-3.9869,-4.0684,-4.1935,-4.2221,-4.2221,-4.2221,-4.1808,-4.1108,0.0,-3.827,-3.6307,-3.4007,0.0,0.0,0.0,0.0,-3.8837,-3.9623,-4.1626,-4.2827,-4.2525,-4.2462,-4.2506,-4.2652,-4.2612,-4.2569,-4.2525,-4.1955,-4.1611,-4.1567,-3.9832,-3.8592,-3.7993,0.0,0.0,0.0,0.0,0.0,0.0,0.0,0.0,0.0,0.0,0.0,0.0,0.0,0.0,0.0,0.0,0.0,0.0,0.0,0.0,0.0,0.0,0.0,0.0,0.0,0.0,0.0,0.0,0.0,-3.233,-3.2732,0.0,0.0,0.0,0.0,-3.3371,-3.4213,-3.4567,-3.4305,-3.6007,-3.6942,-3.6857,-3.7764,-3.8729,-3.9712,-3.9642,-4.0443,-4.2035,-4.1982,-4.1995,-4.2052,-4.1173,-4.0804,-4.0841,-4.0051,-3.9698,-3.9689,-3.9595,-3.8247,-3.6176,-3.6329,-3.4942,-3.3164,-3.5479,-3.6323,-3.6667,-3.8909,-3.9694,-3.9296,-3.6869,-3.5135,-3.4582,-3.7769,-3.7156,0.0,0.0,-3.7505,-3.8079,-4.0385,-4.1018,-4.1264,-4.2092,-4.2281,-4.2281,-4.2281,-4.0585,-3.968,0.0,-4.2063,-4.1285,-3.8956,0.0,-3.8613,-3.8461,-3.9485,-4.0747,-4.2044,-4.3224,-4.3634,-4.285,-4.2673,-4.2633,-4.2774,-4.2673,-4.2591,-4.2591,-4.2552,-4.2533,-4.2533,-4.2357,-4.1225,-3.908,-3.8814,0.0,0.0,0.0,0.0,0.0,0.0,0.0,0.0,0.0,0.0,0.0,0.0,0.0,0.0,0.0,0.0,0.0,0.0,0.0,0.0,0.0,0.0,0.0,0.0,0.0,0.0,0.0,0.0,-3.3092,-3.4093,0.0,-3.4338,-3.4308,-3.4717,-3.5641,-3.631,-3.6648,-3.6655,-3.7801,-3.842,-3.838,-3.8745,-3.9696,-4.1193,-4.0679,-4.1035,-4.2281,-4.1747,-4.1976,-4.2791,-4.0917,-4.0534,-4.1268,-3.9769,-3.9119,-3.9127,-3.9073,-3.9177,-3.9435,-3.9992,-3.9369,-3.8211,-3.9123,-3.9083,-3.8721,-3.9567,-3.9848,-3.981,-3.9407,-3.8921,-3.8816,-4.0498,-4.0471,-3.9944,-4.0488,-4.0618,-4.0827,-4.1707,-4.1954,-4.2029,-4.2314,-4.2347,-4.2347,-4.2347,-4.2174,-4.2237,-4.308,-4.1597,-4.012,-3.9849,-4.0635,-4.113,-4.0673,-4.1781,-4.3018,-4.4011,-4.4478,-4.462,-4.4355,-4.4296,-4.4296,-4.4399,-4.4378,-4.4317,-4.4274,-4.3759,-4.3433,-4.3428,-4.2832,-4.2131,-4.138,-4.1201,-3.9509,0.0,0.0,0.0,0.0,0.0,0.0,0.0,0.0,0.0,0.0,0.0,0.0,0.0,0.0,0.0,0.0,0.0,0.0,0.0,0.0,0.0,0.0,0.0,0.0,0.0,0.0,-3.4041,-3.3045,-3.4913,-3.5904,-3.503,-3.5687,-3.6435,-3.711,-3.8015,-3.8442,-3.8285,-3.911,-3.9639,-3.9666,-3.944,-4.0068,-4.1541,-4.1034,-4.1243,-4.2184,-4.182,-4.1999,-4.2576,-4.0811,-4.0375,-4.0908,-3.9637,-3.9116,-3.9165,-3.9411,-4.016,-4.1186,-4.128,-4.1203,-4.1066,-4.1131,-4.0969,-4.0745,-4.0767,-4.0745,-4.0817,-4.1363,-4.1529,-4.1623,-4.2106,-4.23,-4.2323,-4.2323,-4.2323,-4.2404,-4.2749,-4.2848,-4.2924,-4.3189,-4.3246,-4.3246,-4.3246,-4.3701,-4.4123,-4.4216,-4.2498,-4.1208,-4.182,-4.2772,-4.2995,-4.1705,-4.3113,-4.4211,-4.3885,-4.4633,-4.5192,-4.5213,-4.5235,-4.5235,-4.5297,-4.4265,-4.4072,-4.5178,-4.363,-4.3191,-4.4331,-4.2933,-4.2017,-4.1834,-4.1385,-4.008,-3.7801,0.0,0.0,0.0,0.0,0.0,0.0,0.0,0.0,0.0,0.0,0.0,0.0,0.0,0.0,0.0,0.0,0.0,0.0,0.0,0.0,0.0,0.0,0.0,-3.1243,-3.3025,-3.3974,-3.2543,-3.546,-3.7091,-3.5826,-3.6869,-3.7679,-3.7739,-3.9264,-3.9861,-3.91,-3.988,-4.0458,-4.0634,-3.985,-3.9858,-4.0761,-4.0742,-4.117,-4.1991,-4.2433,-4.2259,-4.1479,-4.1006,-4.0423,-3.984,-3.9772,-3.9753,-3.9871,-4.0725,-4.1056,-4.0941,-3.9723,-3.9982,-4.1014,-4.1014,-4.1688,-4.2569,-4.2525,-4.2458,-4.2412,-4.2431,-4.245,-4.245,-4.2469,-4.2488,-4.2488,-4.2488,-4.2488,-4.2678,-4.3531,-4.3739,-4.3929,-4.4706,-4.4895,-4.4895,-4.4895,-4.4895,-4.4943,-4.5061,-4.5057,-4.5033,-4.5084,-4.5103,-4.4284,-4.1841,-4.3621,0.0,-4.1907,-4.3802,-4.5335,-4.522,-4.522,-4.5201,-4.5182,-4.2202,-4.1762,-4.5086,-4.2259,-4.1915,-4.5163,-4.2884,-4.1186,-4.0463,-3.9414,-3.9338,-4.0252,0.0,0.0,0.0,0.0,0.0,0.0,0.0,0.0,0.0,0.0,0.0,0.0,0.0,0.0,0.0,0.0,0.0,0.0,0.0,0.0,0.0,0.0,-3.3111,-3.3284,-3.5224,-3.65,-3.6086,-3.7271,-3.7954,-3.7576,-3.821,-3.8746,-3.9063,-3.9455,-3.9847,-4.0207,-3.9904,-4.0218,-4.1227,-4.0464,-4.0784,-4.2338,-4.1787,-4.1682,-4.2075,-4.1617,-4.1526,-4.169,-4.0485,-4.0404,-4.1142,-4.0401,-4.0058,-4.0112,-4.0185,-4.0275,-4.0384,-4.0515,-4.0785,-4.1107,-4.1241,-4.171,-4.23,-4.2227,-4.2323,-4.2553,-4.3133,-4.3341,-4.3455,-4.4042,-4.4213,-4.4213,-4.4213,-4.4213,-4.427,-4.4516,-4.4573,-4.463,-4.4857,-4.4895,-4.4895,-4.4895,-4.4895,-4.4938,-4.4991,-4.5038,-4.5125,-4.5233,-4.5254,-4.5194,-4.5014,-4.5608,0.0,-4.5902,-4.6515,-4.6043,-4.3607,-4.338,-4.3172,-4.2582,-4.1705,-4.2354,-4.5125,-4.4437,-4.4341,-4.5258,-4.4565,-4.4005,-4.371,-4.1717,-4.0806,0.0,0.0,0.0,0.0,0.0,0.0,0.0,0.0,0.0,0.0,0.0,0.0,0.0,0.0,0.0,0.0,0.0,0.0,0.0,0.0,0.0,0.0,-3.3067,-3.4207,-3.4604,-3.6168,-3.7119,-3.6658,-3.776,-3.8436,-3.8115,-3.8885,-3.9553,-3.9786,-4.014,-4.0557,-4.1016,-4.0635,-4.0745,-4.1504,-4.0438,-4.051,-4.1905,-4.1159,-4.1026,-4.1421,-4.1174,-4.1088,-4.1107,-4.042,-4.0382,0.0,-4.0623,-4.0569,-4.0587,-4.081,-4.0953,0.0,0.0,0.0,0.0,0.0,-4.2592,-4.2828,-4.2773,-4.2856,-4.3039,-4.3638,-4.3834,-4.3954,-4.4542,-4.4719,-4.4719,-4.4719,-4.4719,-4.4764,-4.4796,-4.4815,-4.4821,-4.487,-4.4895,-4.4895,-4.4895,-4.4895,-4.5033,-4.5508,-4.5612,0.0,-4.6268,-4.5755,-4.5065,-4.445,-4.5252,-4.5729,-4.5109,-4.5989,-4.5875,-4.3952,-4.3764,-4.3594,-4.3116,-4.18,0.0,0.0,0.0,-4.3307,-4.3649,-4.3668,0.0,0.0,0.0,-4.1911,-4.2943,0.0,0.0,0.0,-3.9845,-3.9185,0.0,0.0,0.0,0.0,0.0,0.0,0.0,0.0,0.0,0.0,0.0,0.0,0.0,0.0,0.0,0.0,-3.4924,-3.5753,-3.5526,-3.6474,-3.6805,-3.5783,-3.7632,-3.8741,-3.8061,-3.9254,-4.011,-4.0195,-4.0978,-4.1483,-4.1571,0.0,0.0,0.0,0.0,-3.9788,-4.0419,-3.9932,-3.9985,-4.0528,-4.1009,-4.0894,-4.0305,-4.0669,-4.0547,-4.0135,-4.0829,-4.1172,-4.1288,-4.2002,-4.2341,-4.231,-4.1079,-4.1252,-4.2289,-4.3287,-4.3643,-4.3661,-4.3629,0.0,0.0,-4.3937,-4.4016,-4.4095,-4.4393,-4.4515,-4.4515,-4.4515,-4.4515,-4.4542,-4.4659,-4.4742,-4.487,-4.4953,-4.5079,-4.5179,-4.5179,-4.5204,-4.5456,-4.6354,-4.653,-4.6805,-4.764,-4.6557,-4.4836,-4.2657,-4.4282,-4.4932,-4.2752,-4.4433,-4.5696,-4.5314,0.0,0.0,-4.5163,-4.2431,-4.2106,-4.5373,-4.2735,-4.134,-4.1966,-4.2006,-4.1968,-4.1831,-4.181,-4.2895,-4.5103,-4.5103,-4.5103,-4.4988,-4.0756,-3.9531,0.0,0.0,0.0,0.0,0.0,0.0,0.0,0.0,0.0,0.0,0.0,0.0,0.0,0.0,0.0,-3.293,-3.49,-3.6524,-3.6767,-3.7662,-3.8041,-3.7398,-3.8643,-3.9483,-3.9365,-3.9975,-4.053,-4.0864,-4.1002,-4.1377,-4.2029,-4.1457,0.0,-4.0742,-4.1085,-4.1055,-4.0577,-4.1156,-4.1238,-4.074,0.0,0.0,-4.0856,-4.0935,-4.1256,-4.1841,-4.2002,-4.2073,-4.2073,-4.2234,-4.268,-4.3179,-4.2297,-4.2192,-4.2533,-4.2754,-4.3051,-4.3382,-4.3387,-4.367,-4.4009,-4.3998,-4.4173,-4.444,-4.4468,-4.4515,0.0,-4.4515,-4.4515,-4.4515,-4.4524,-4.5067,-4.5593,-4.562,-4.6282,-4.6923,-4.6923,-4.7004,-4.7134,-4.7334,-4.7414,-4.7495,-4.769,-4.7487,-4.7376,-4.7518,-4.7957,-4.8338,-4.8419,-4.8876,-4.8157,-4.5414,-4.5192,-4.4965,-4.4319,-4.3652,-4.4456,-4.715,-4.6688,-4.6077,-4.5543,-4.5475,-4.5148,-4.4486,-4.4357,-4.4562,-4.5103,-4.5148,-4.5148,-4.5084,-4.4162,-4.3897,0.0,0.0,0.0,0.0,0.0,0.0,0.0,0.0,0.0,0.0,0.0,-3.1969,0.0,0.0,-3.4197,-3.5115,-3.6353,-3.7432,-3.8068,-3.8959,-3.9287,-3.862,-3.9464,-4.0105,-4.0095,-4.0674,-4.1112,-4.135,-4.1332,-4.1492,-4.1966,-4.1629,-4.135,-4.1233,-4.1301,-4.1301,-4.1301,-4.1445,-4.1469,-4.1452,-4.1535,-4.1576,-4.1675,-4.1675,-4.1889,-4.2287,-4.2287,-4.2287,-4.2323,-4.2733,-4.3144,-4.3518,-4.3465,-4.3489,-4.3578,-4.3202,-4.3206,-4.3333,-4.2915,-4.2959,-4.3211,-4.3316,-4.3575,-4.386,-4.4017,-4.4487,-4.4961,-4.4961,-4.5271,-4.5629,-4.5725,-4.6083,-4.644,-4.6478,-4.6909,-4.7311,-4.7311,-4.7345,-4.7536,-4.7979,-4.808,-4.8258,-4.8726,-4.8876,-4.8834,-4.8457,-4.8403,-4.8533,-4.891,-4.8967,-4.8319,-4.6622,-4.6473,-4.6342,-4.5944,-4.5886,-4.6421,-4.7678,-4.7777,-4.7586,-4.7125,-4.7102,-4.6911,-4.6514,-4.6428,-4.6195,-4.5795,-4.5818,-4.5608,-4.5148,-4.5148,-4.5125,0.0,0.0,0.0,0.0,0.0,0.0,0.0,0.0,-3.0517,-3.1437,-3.2257,-3.3093,-3.404,-3.4886,-3.5955,-3.755,-3.7986,-3.8412,-3.9223,-3.9894,-4.012,-3.9585,-4.0137,-4.0576,-4.0691,-4.1113,-4.1376,-4.142,-4.1561,-4.1622,-4.1611,-4.1753,-4.1831,-4.1775,-4.1321,-4.1304,-4.18,-4.1446,-4.154,-4.2145,-4.2246,-4.2287,-4.2287,-4.2287,-4.2287,-4.2287,-4.2465,-4.2519,-4.259,-4.3393,-4.3732,-4.3804,-4.4553,-4.4946,-4.4946,-4.3893,-4.3411,-4.3179,-4.2519,-4.2435,-4.2665,-4.2967,-4.3378,-4.3832,-4.4125,-4.4869,-4.5649,-4.5649,-4.6159,-4.6756,-4.6885,-4.7095,-4.7237,-4.7334,-4.7551,-4.7692,-4.7692,-4.772,-4.7937,-4.8634,-4.8767,-4.9002,-4.9765,-5.0005,-4.9651,-4.8418,-4.8273,-4.8296,-4.8296,-4.8296,-4.8296,-4.8296,-4.8296,-4.8273,-4.8273,-4.8232,-4.8209,-4.8162,-4.8228,-4.8151,-4.7933,-4.7999,-4.7926,-4.7777,-4.7777,-4.743,-4.6759,-4.6759,-4.6396,-4.5687,-4.5687,-4.5475,-2.7823,-2.8635,-3.011,-3.1212,-3.167,-3.2564,0.0,0.0,-3.4481,-3.5957,-3.6344,-3.6412,-3.6449,-3.7158,-3.7772,-3.777,-3.8666,-3.9487,-4.0106,-3.9874,-3.9799,-4.0313,-4.0496,-4.0795,-4.1411,-4.0955,-4.0647,-4.0697,-4.1392,-4.1523,-4.0961,-4.1616,-4.1669,-4.0961,-4.1594,-4.1695,-4.1108,-4.1818,-4.2198,-4.2287,-4.2287,-4.2287,-4.2287,-4.2287,-4.2287,-4.2323,-4.3054,-4.3375,-4.3429,-4.4178,-4.45,-4.4571,-4.5356,-4.6105,-4.6462,-4.4303,-4.3054,-4.2412,-4.2323,-4.292,-4.3758,-4.4181,-4.4966,-4.5835,-4.6238,-4.6439,-4.6545,-4.6545,-4.6601,-4.6707,-4.6725,-4.7348,-4.799,-4.799,-4.8735,-4.9409,-4.9409,-4.9504,-4.9652,-4.9728,-4.9746,-4.9784,-4.9879,-4.9906,-4.9903,-4.986,-4.9945,-5.0015,-5.0015,-5.0015,-5.0015,-5.0015,-5.0015,-4.9992,-4.9945,-4.9872,-4.9822,-4.9822,-4.9822,-4.9518,-4.8795,-4.8781,-4.8443,-4.7728,-4.7709,-4.7694,-4.7643,-4.7643,-4.7564,-4.7423,-4.7423,-4.6644,-3.1055,-3.0952,0.0,0.0,-3.3076,-3.3325,-3.4268,-3.4478,-3.4786,-3.5902,-3.6514,-3.6928,-3.7283,-3.753,-3.8034,0.0,-3.959,-4.0253,-4.1068,-4.0634,-4.0347,-4.0539,-3.9698,-3.941,-4.0285,-4.0116,-4.0158,-4.0665,-4.0958,-4.123,-4.154,-4.1877,-4.1937,-4.1683,-4.2026,-4.2085,-4.1765,-4.2126,-4.2287,-4.2287,-4.2287,-4.2287,-4.2287,-4.2287,-4.2555,-4.3001,-4.2858,-4.3304,-4.4143,-4.4018,-4.45,-4.5338,-4.5677,-4.6016,-4.6177,-4.5213,-4.4642,-4.4268,-4.3804,-4.4091,-4.4726,-4.457,-4.5314,-4.6181,-4.6165,-4.6768,-4.7517,-4.7517,-4.7903,-4.8328,-4.8328,-4.8621,-4.8902,-4.8902,-4.9258,-4.9563,-4.9563,-4.9623,-4.9682,-4.9682,-4.9682,-4.9682,-4.9682,-4.9721,-4.9788,-4.9843,-4.9978,-5.0082,-5.0082,-5.0082,-5.0108,-5.0182,-5.0182,-5.0207,-5.0255,-5.0231,-5.0207,-5.0207,-5.0182,-5.0005,-4.9662,-4.9619,-4.9447,-4.9158,-4.9158,-4.8953,-4.8499,-4.8499,-4.8209,-4.7709,-4.7662,-4.7304,-3.197,0.0,0.0,-3.3265,-3.4014,-3.4223,-3.3837,-3.4288,-3.4961,-3.5573,-3.6377,-3.7089,-3.7711,-3.7932,-3.8484,-3.9859,-4.0403,-4.0815,-4.1279,-4.0793,-4.0253,-3.9916,-3.8772,-3.8316,-3.9036,-3.9265,-3.9788,-4.079,-4.0937,-4.1244,-4.1807,-4.2021,-4.2205,-4.2287,-4.2287,-4.2287,-4.2287,-4.2287,-4.2287,-4.2287,-4.2287,-4.2287,-4.2287,-4.2287,-4.2733,-4.3483,-4.2876,-4.3268,-4.4303,-4.4196,-4.4678,-4.5517,-4.5963,-4.6123,-4.6123,-4.6123,-4.5856,-4.5392,-4.4821,-4.4964,-4.5395,-4.5168,-4.5791,-4.6635,-4.6415,-4.7272,-4.8295,-4.8295,-4.8877,-4.9509,-4.9509,-4.9509,-4.9509,-4.9509,-4.9509,-4.9509,-4.9509,-4.9509,-4.9509,-4.9509,-4.9509,-4.9509,-4.9509,-4.9582,-4.9653,-4.9653,-4.9721,-4.9816,-4.9898,-4.9898,-4.9952,-5.0031,-5.0031,-5.0057,-5.0158,-5.0158,-5.0114,-5.0114,-5.0089,-5.0063,-5.0063,-5.0031,-5.0057,-5.0089,-5.0114,-4.9828,-4.9238,-4.9306,-4.8982,-4.8348,-4.8305,-4.8305,0.0,0.0,-3.1705,-3.2457,-3.4218,-3.5793,-3.6037,-3.6037,-3.5994,-3.6224,-3.687,-3.7465,-3.7739,-3.8797,-3.9727,-4.0033,-4.0946,-4.1218,-4.0262,-3.9668,-3.9041,-3.8181,-3.8088,-3.807,0.0,-3.8706,-3.9627,-4.089,-4.1659,-4.1789,-4.1181,-4.1877,-4.2287,-4.2287,-4.2287,-4.2287,-4.2287,-4.2287,-4.2287,-4.2287,-4.2287,-4.2287,-4.2287,-4.2287,-4.2733,-4.3518,-4.3483,-4.35,-4.3661,-4.5124,-4.5302,-4.4803,-4.6355,-4.6944,-4.6944,-4.6944,-4.598,-4.4642,-4.4624,-4.5124,-4.5837,-4.6236,-4.6884,-4.7643,-4.8025,-4.8421,-4.8779,-4.8779,-4.9141,-4.9509,-4.9509,-4.9509,-4.9509,-4.9509,-4.9509,-4.9509,-4.9509,-4.9509,-4.9509,-4.9509,-4.9509,-4.9509,-4.9509,-4.949,-4.9509,-4.9509,-4.9509,-4.9593,-4.9871,-4.9898,-4.9879,-4.9925,-4.9843,-4.9807,-4.9807,-4.975,-4.9721,-4.9721,-4.9721,-4.9721,-4.9721,-4.9778,-4.9807,-4.9807,-4.9871,-4.9906,-4.9868,-5.0019,-5.0025,-4.991,-5.0062,-5.0038,0.0,0.0,-3.3236,-3.4415,-3.5256,-3.5817,-3.58,-3.5888,-3.6156,-3.6713,-3.6277,-3.6097,-3.7206,-3.7665,-3.8197,-3.8977,-4.0301,-4.0948,-4.0315,-3.9565,-3.9031,-3.8751,-3.8034,0.0,0.0,0.0,0.0,-4.079,-4.1032,-4.1321,-4.1877,-4.2144,-4.2287,-4.2287,-4.2287,-4.2287,-4.2287,-4.2287,-4.2287,-4.2287,-4.2287,-4.2287,-4.2287,-4.2287,-4.2733,-4.3518,-4.3518,-4.4089,-4.5017,-4.5017,-4.5481,-4.6195,-4.6195,-4.6516,-4.6998,-4.6998,-4.6659,-4.6195,-4.6195,-4.6542,-4.6956,-4.6845,-4.7331,-4.798,-4.782,-4.8098,-4.8403,-4.8403,-4.8711,-4.9042,-4.9042,-4.9295,-4.9509,-4.9509,-4.9509,-4.9509,-4.9509,-4.9509,-4.9509,-4.9509,-4.9509,-4.9509,-4.9509,-4.9509,-4.9509,-4.9509,-4.9509,-4.9521,-4.9623,-4.9623,-4.9682,-4.9778,-4.975,-4.9778,-4.9871,-4.9843,-4.9843,-4.9843,-4.9807,-4.9778,-4.9778,-4.975,-4.975,-4.9807,-4.9835,-4.9843,-4.9898,-4.9898,-4.9925,-5.0005,-4.9952,-4.9952,-3.1432,-3.2701,-3.3887,-3.512,-3.5586,-3.5728,-3.5622,-3.5977,-3.6406,-3.6899,-3.6263,-3.5958,-3.7048,-3.7325,-3.7513,-3.774,-3.8908,-3.9534,-3.8964,-3.8399,-3.8191,-3.8519,-3.8347,0.0,0.0,0.0,0.0,-4.1029,-4.1064,-4.1361,-4.2127,-4.2163,-4.2205,-4.2287,-4.2287,-4.2287,-4.2287,-4.2287,-4.2287,-4.2287,-4.2287,-4.2287,-4.2287,-4.2287,-4.2733,-4.3518,-4.3518,-4.4214,-4.5356,-4.5124,-4.5641,-4.6551,-4.632,-4.6534,-4.6998,-4.6998,-4.6998,-4.6998,-4.6998,-4.7187,-4.7327,-4.7053,-4.7345,-4.7715,-4.7439,-4.7674,-4.798,-4.798,-4.829,-4.8586,-4.8586,-4.88,-4.9027,-4.9027,-4.9146,-4.9244,-4.9244,-4.9377,-4.9509,-4.9509,-4.9509,-4.9509,-4.9509,-4.9509,-4.9509,-4.9509,-4.9509,-4.9509,-4.9509,-4.9509,-4.9521,-4.9623,-4.9623,-4.9663,-4.975,-4.9778,-4.9778,-4.9778,-4.974,-4.9692,-4.9692,-4.9653,-4.9653,-4.9711,-4.9692,-4.9692,-4.9683,-4.9683,-4.9712,-4.9797,-4.9741,-4.9769,-3.2042,-3.308,-3.3694,-3.455,-3.5176,-3.5622,-3.5622,-3.6214,-3.6772,-3.6785,-3.6712,-3.678,0.0,0.0,-3.7638,-3.6379,-3.6999,-3.7327,-3.6465,-3.6446,-3.6807,0.0,0.0,0.0,0.0,0.0,0.0,-4.1498,0.0,-4.1831,-4.1831,-4.1874,-4.2019,-4.2246,-4.2287,-4.2287,-4.2287,-4.2287,-4.2287,-4.2287,-4.2287,-4.2287,-4.2287,-4.2323,-4.2769,-4.3518,-4.359,-4.4018,-4.4732,-4.5534,-4.5856,-4.5945,-4.6694,-4.6998,-4.6998,-4.6998,-4.6998,-4.6998,-4.6998,-4.6998,-4.6998,-4.6998,-4.6998,-4.6998,-4.6998,-4.7258,-4.7548,-4.7548,-4.786,-4.8176,-4.8176,-4.8176,-4.8214,-4.8214,-4.8477,-4.8781,-4.8781,-4.9127,-4.9427,-4.9427,-4.9459,-4.9459,-4.9459,-4.949,-4.9509,-4.9509,-4.9509,-4.9509,-4.9509,-4.9509,-4.9509,-4.9509,-4.9509,-4.9509,-4.9509,-4.9509,-4.9509,-4.9509,-4.9509,-4.9509,-4.9509,-4.9509,-4.9509,-4.9509,-4.949,-4.9409,-4.9308,-4.9427,-4.9457,-4.9415,-4.9529,-4.9558,-3.3049,-3.4109,-3.5098,-3.5301,-3.5487,-3.5622,-3.5622,-3.6214,-3.6666,-3.6135,-3.5118,-3.4211,0.0,0.0,0.0,-3.4627,-3.7103,0.0,-3.737,-3.7602,0.0,-3.8311,0.0,-3.991,-4.0526,-4.0621,0.0,0.0,-4.1117,-4.1174,-4.0733,-4.1311,-4.1657,-4.1709,-4.1917,-4.2103,-4.2287,-4.2287,-4.2287,-4.2287,-4.2287,-4.2287,-4.2305,-4.2912,-4.3322,-4.3572,-4.4714,-4.532,-4.557,-4.6355,-4.6676,-4.6712,-4.6908,-4.6998,-4.6998,-4.6998,-4.6998,-4.6998,-4.6998,-4.6998,-4.6998,-4.6998,-4.6998,-4.6998,-4.6998,-4.707,-4.7143,-4.7143,-4.7439,-4.7738,-4.7738,-4.798,-4.8214,-4.8214,-4.829,-4.8365,-4.8365,-4.8458,-4.8532,-4.8532,-4.8765,-4.899,-4.899,-4.9276,-4.9509,-4.9509,-4.9509,-4.9509,-4.9509,-4.9509,-4.9509,-4.9509,-4.9509,-4.9509,-4.9509,-4.9509,-4.9509,-4.9509,-4.9509,-4.9509,-4.9509,-4.9509,-4.9509,-4.9509,-4.9409,-4.934,-4.9308,-4.9211,-4.9244,-4.934,-4.9289,-4.9352,-3.4117,-3.4979,-3.5622,-3.5622,-3.5622,-3.5537,-3.5277,-3.5785,-3.6067,-3.5069,-3.4168,0.0,0.0,0.0,0.0,0.0,0.0,0.0,-3.725,-3.758,-3.8139,0.0,-3.9358,0.0,-4.0449,-4.012,-3.9749,0.0,-4.0203,-4.0431,-4.0102,-4.0528,-4.0926,-4.1213,-4.1366,-4.1683,-4.2139,-4.2205,-4.2205,-4.2205,-4.2205,-4.2424,-4.284,-4.3304,-4.3832,-4.4466,0.0,-4.5954,-4.6265,-4.6801,-4.6998,-4.6934,-4.6998,-4.6934,-4.6934,-4.698,-4.6998,-4.6998,-4.6998,-4.6998,-4.6998,-4.6998,-4.6998,-4.6998,-4.6998,-4.6998,-4.6998,-4.6998,-4.7187,-4.7327,-4.7327,-4.7482,-4.7674,-4.7674,-4.7797,-4.7941,-4.7941,-4.8059,-4.8214,-4.8214,-4.8365,-4.8549,-4.8549,-4.8765,-4.894,-4.894,-4.9094,-4.9193,-4.9193,-4.9377,-4.9509,-4.9509,-4.9509,-4.9509,-4.9509,-4.9509,-4.9509,-4.9509,-4.9509,-4.9509,-4.9509,-4.9509,-4.9509,-4.9509,-4.9409,-4.9358,-4.9244,-4.9164,-4.9131,-4.9127,-4.9079,-4.9113,-3.5098,-3.5622,-3.5622,-3.5622,-3.5622,-3.5436,-3.4856,-3.5162,-3.5179,-3.3624,0.0,-3.2923,-3.1317,0.0,-3.4926,-3.3201,0.0,-3.7107,-3.6898,-3.7308,-3.7963,-3.8914,-3.9613,-4.0003,-4.0003,-3.9437,-3.892,-3.8518,-3.9156,-3.9577,-3.956,-3.9732,-4.0218,-4.092,-4.1013,-4.1338,-4.2005,-4.2055,-4.2079,-4.2061,-4.2061,-4.253,-4.3415,-4.3522,-4.4316,-4.5577,0.0,0.0,-4.6795,-4.6888,-4.6888,-4.6795,-4.6934,-4.6888,-4.6795,-4.6934,-4.6934,-4.6934,-4.6934,-4.6934,-4.6934,-4.6934,-4.6952,-4.6934,-4.6888,-4.6888,-4.6888,-4.6888,-4.6888,-4.6888,-4.6934,-4.6952,-4.6952,-4.6998,-4.7258,-4.7524,-4.7524,-4.7779,-4.802,-4.802,-4.8059,-4.8137,-4.8137,-4.8176,-4.8214,-4.8214,-4.8477,-4.8711,-4.8711,-4.9179,-4.9509,-4.9509,-4.9509,-4.9509,-4.9509,-4.9509,-4.9509,-4.9509,-4.9509,-4.9509,-4.9509,-4.9509,-4.9509,-4.9509,-4.949,-4.9377,-4.9197,-4.9197,-4.9079,-4.8909,-4.8909,-4.8909,-3.552,-3.5622,-3.5622,-3.5622,-3.5622,-3.5436,-3.4856,-3.4711,0.0,0.0,0.0,-3.0527,-2.979,-3.0577,0.0,-3.3476,0.0,0.0,0.0,0.0,-3.9359,0.0,0.0,0.0,0.0,0.0,0.0,0.0,0.0,-3.8286,-3.8367,-3.9575,-4.0549,-4.13,-4.1648,-4.1884,-4.2005,-4.1987,-4.197,-4.1866,-4.1866,-4.2273,-4.3032,-4.3686,-4.4509,-4.5485,-4.6141,0.0,-4.6637,-4.6637,-4.6637,-4.6637,-4.6795,-4.6731,-4.6637,-4.6795,-4.6778,-4.6637,-4.6542,-4.6477,-4.6542,-4.6637,-4.6684,-4.6637,-4.6398,-4.6332,-4.6332,-4.6332,-4.6332,-4.6381,-4.659,-4.6684,-4.6749,-4.6952,-4.707,-4.7098,-4.7098,-4.7143,-4.7232,-4.7232,-4.7482,-4.7697,-4.7697,-4.798,-4.8214,-4.8214,-4.8252,-4.829,-4.829,-4.9008,-4.9509,-4.9509,-4.9509,-4.9509,-4.9509,-4.9509,-4.9509,-4.9509,-4.9509,-4.9509,-4.9509,-4.9509,-4.9509,-4.9509,-4.939,-4.9276,-4.9197,-4.915,-4.9049,-4.8909,-4.8909,-4.8909,-3.5622,-3.5622,-3.5622,-3.5622,-3.5622,-3.5362,-3.4415,0.0,0.0,0.0,0.0,-2.9323,-2.8151,0.0,0.0,0.0,0.0,0.0,0.0,0.0,0.0,0.0,0.0,0.0,0.0,0.0,0.0,0.0,0.0,-3.7918,-3.7902,-3.9172,-4.022,-4.0866,-4.1542,-4.1841,-4.1797,-4.1858,-4.1841,-4.1692,-4.2141,-4.2785,-4.3543,-4.4364,-4.5141,-4.5852,-4.6365,0.0,-4.6381,-4.6542,-4.6542,-4.6495,-4.6637,-4.6637,-4.6495,-4.6637,-4.6637,-4.659,-4.6542,-4.6447,-4.6381,-4.6284,-4.6332,-4.6381,-4.6235,-4.6186,-4.6186,-4.6186,-4.6186,-4.6235,-4.6332,-4.6381,-4.6429,-4.6542,-4.6684,-4.6842,-4.698,-4.6998,-4.6998,-4.6998,-4.7143,-4.7284,-4.7284,-4.7457,-4.7567,-4.7567,-4.7756,-4.7901,-4.7901,-4.8421,-4.8818,-4.8818,-4.8818,-4.8818,-4.8818,-4.8818,-4.8887,-4.9108,-4.916,-4.9244,-4.949,-4.9509,-4.9509,-4.9509,-4.9459,-4.9358,-4.9244,-4.9197,-4.9116,-4.8996,-4.8943,-4.8909,-3.5537,-3.5622,-3.5622,-3.5622,-3.5622,-3.5277,-3.3963,-3.2917,0.0,0.0,-2.9023,-2.839,-2.7199,0.0,0.0,0.0,0.0,0.0,0.0,0.0,0.0,0.0,0.0,0.0,0.0,0.0,0.0,0.0,0.0,0.0,-3.8075,-3.9086,-3.9952,-4.0546,-4.1346,-4.1692,-4.1604,-4.1692,-4.1692,-4.1515,-4.2422,-4.324,-4.4014,-4.4882,-4.5593,-4.6204,-4.6398,0.0,0.0,-4.6447,-4.6447,-4.635,-4.6495,-4.6495,-4.6398,-4.6495,-4.6542,-4.6495,-4.6495,-4.6398,-4.6253,-4.5988,-4.5988,-4.6087,-4.6055,-4.6038,-4.6038,-4.6038,-4.6038,-4.6038,-4.6087,-4.6137,-4.6137,-4.6186,-4.6332,-4.659,-4.6778,-4.6888,-4.6888,-4.6888,-4.6934,-4.6998,-4.6998,-4.6998,-4.6998,-4.6998,-4.7258,-4.7482,-4.7482,-4.7756,-4.7941,-4.7941,-4.8098,-4.8214,-4.8214,-4.8214,-4.8328,-4.8657,-4.8657,-4.8834,-4.923,-4.9211,-4.9262,-4.9345,-4.9262,-4.9211,-4.9193,-4.9008,-4.889,-4.8822,-4.8804,-4.875,-3.525,-3.5622,-3.5622,-3.5622,-3.5622,-3.5277,-3.3963,0.0,0.0,-2.9568,-2.8049,-2.7148,-2.7777,-2.7487,0.0,0.0,0.0,0.0,0.0,0.0,0.0,0.0,0.0,0.0,0.0,0.0,0.0,0.0,0.0,0.0,-3.9172,-3.9935,-4.0546,-4.11,-4.1453,-4.1604,-4.1604,-4.1604,-4.1498,-4.1272,-4.2195,-4.2999,-4.3672,-4.4568,-4.5387,-4.6221,-4.6221,0.0,0.0,-4.6221,-4.6221,-4.6221,-4.635,-4.635,-4.6221,-4.635,-4.635,-4.6221,-4.6073,-4.5972,-4.5821,-4.5667,-4.5701,-4.5786,-4.5563,-4.5459,-4.5459,-4.5459,-4.5459,-4.5511,-4.5786,-4.5837,-4.5887,-4.6137,-4.6235,-4.6235,-4.6284,-4.6477,-4.6637,-4.6637,-4.6842,-4.6998,-4.6998,-4.6998,-4.6998,-4.6998,-4.7025,-4.707,-4.707,-4.707,-4.7116,-4.7116,-4.7756,-4.8214,-4.8214,-4.8214,-4.8214,-4.8252,-4.8252,-4.8252,-4.8309,-4.8309,-4.8477,-4.8869,-4.8532,-4.8458,-4.873,-4.8252,-4.7999,-4.7915,-4.821,-4.8344,-3.5216,-3.5622,-3.5622,-3.5622,-3.4901,-3.4134,-3.3775,0.0,0.0,-2.9363,-2.7896,-2.6826,-2.7165,-2.6928,-2.7114,0.0,0.0,0.0,0.0,0.0,0.0,0.0,0.0,0.0,0.0,0.0,0.0,0.0,0.0,0.0,-3.9044,-3.9401,-3.9952,-4.0819,-4.1007,-4.1255,-4.1604,-4.1604,-4.1515,-4.1335,-4.2713,-4.3465,-4.372,-4.504,-4.5842,-4.6073,-4.6073,0.0,0.0,-4.5972,-4.6023,-4.6073,-4.6172,-4.6122,-4.6073,-4.6221,-4.627,-4.6172,-4.6023,-4.5922,-4.577,-4.5615,-4.5563,-4.5563,-4.5423,-4.5423,-4.5423,-4.5423,-4.5423,-4.5423,-4.5511,-4.5563,-4.5615,-4.5887,-4.5938,-4.5988,-4.6186,-4.6284,-4.6332,-4.6332,-4.6447,-4.659,-4.6731,-4.6731,-4.6824,-4.6998,-4.6888,-4.6842,-4.698,-4.6842,-4.6842,-4.698,-4.7302,-4.75,-4.75,-4.75,-4.7567,-4.782,-4.782,-4.7941,-4.8176,-4.8214,-4.829,-4.844,-4.829,-4.8365,-4.8746,-4.8495,-4.8477,-4.8641,-4.8458,-4.8364,-3.4556,-3.5284,-3.5622,-3.5622,-3.4462,-3.3406,0.0,0.0,0.0,-2.9227,-2.7896,-2.6691,-2.6691,-2.6691,-2.6657,-2.659,0.0,-3.0128,0.0,0.0,0.0,0.0,0.0,0.0,0.0,0.0,0.0,0.0,0.0,0.0,0.0,-3.8788,-3.9295,-4.0319,-4.0497,-4.0754,-4.11,-4.13,-4.1318,-4.1198,-4.28,-4.3647,-4.375,-4.5225,-4.5961,-4.6073,0.0,0.0,0.0,-4.5972,-4.5972,-4.6073,-4.6073,-4.6073,-4.6073,-4.6172,-4.6172,-4.6189,-4.6073,-4.5922,-4.577,-4.5667,-4.5528,-4.5423,-4.5423,-4.5423,-4.5423,-4.5423,-4.5423,-4.5423,-4.5423,-4.5423,-4.5476,-4.5649,-4.5701,-4.5752,-4.5938,-4.6038,-4.6087,-4.6087,-4.6137,-4.6235,-4.6447,-4.6495,-4.6542,-4.6731,-4.6684,-4.6684,-4.6842,-4.6795,-4.6795,-4.698,-4.6998,-4.6998,-4.6998,-4.6998,-4.7098,-4.7396,-4.7439,-4.7567,-4.7838,-4.7838,-4.7919,-4.802,-4.7919,-4.8059,-4.8421,-4.8252,-4.8214,-4.8403,-4.8137,-4.8038,-3.3017,-3.4506,-3.5622,-3.5622,-3.4549,-3.3515,0.0,0.0,0.0,-2.9279,-2.7896,-2.6691,-2.6691,-2.6691,-2.6624,-2.6365,-2.7994,0.0,0.0,0.0,0.0,0.0,0.0,0.0,0.0,0.0,0.0,0.0,0.0,0.0,0.0,-3.8408,-3.886,-3.9782,-3.9969,-4.0003,-4.0003,-4.0546,-4.0754,-4.0645,-4.2137,-4.3109,-4.3733,-4.4699,-4.5519,0.0,0.0,0.0,0.0,-4.6189,-4.6189,-4.6172,-4.6172,-4.6172,-4.6172,-4.6172,-4.6172,-4.6172,-4.6172,-4.6023,-4.577,-4.577,-4.5632,-4.5423,-4.5423,-4.5423,-4.5423,-4.5423,-4.5423,-4.5423,-4.5423,-4.5423,-4.5423,-4.5423,-4.5423,-4.5423,-4.5423,-4.5598,-4.5786,-4.5786,-4.6038,-4.6186,-4.6186,-4.6186,-4.6186,-4.6186,-4.6429,-4.659,-4.659,-4.6842,-4.6998,-4.6998,-4.6998,-4.6998,-4.6998,-4.6998,-4.698,-4.6998,-4.6998,-4.6998,-4.698,-4.698,-4.7169,-4.7591,-4.7214,-4.7214,-4.7632,-4.708,-4.6731,-4.6619,-4.6972,-4.7309,-3.1318,-3.1623,-3.159,-3.159,-3.0521,-2.9661,-3.034,0.0,0.0,-2.8305,-2.7419,-2.6556,-2.6657,-2.6556,-2.6551,-2.6909,-2.8084,0.0,0.0,0.0,0.0,0.0,0.0,0.0,0.0,0.0,0.0,0.0,0.0,0.0,0.0,-3.8391,-3.8694,-3.9365,-3.9714,-4.0053,-4.0546,-4.1007,-4.1209,-4.1318,-4.2321,-4.3138,-4.3875,-4.4729,0.0,0.0,0.0,0.0,0.0,-4.5972,-4.5972,-4.6073,-4.6073,-4.6073,-4.6073,-4.6172,-4.6172,-4.6189,-4.6073,-4.6023,-4.5922,-4.5718,-4.5632,-4.5528,-4.5423,-4.5423,-4.5423,-4.5423,-4.5423,-4.5423,-4.5423,-4.5423,-4.5423,-4.5423,-4.5423,-4.5423,-4.5423,-4.5476,-4.5511,-4.5511,-4.5615,-4.5701,-4.5887,-4.5938,-4.5988,-4.6186,-4.6137,-4.6137,-4.6284,-4.6235,-4.6332,-4.6684,-4.6749,-4.6795,-4.698,-4.6998,-4.6998,-4.6998,-4.6998,-4.6998,-4.6998,-4.6998,-4.707,-4.7187,-4.707,-4.7169,-4.7591,-4.7439,-4.7204,-4.7026,-4.7044,-4.6926,0.0,-3.0118,-3.0078,-2.9755,-2.8607,0.0,0.0,0.0,0.0,0.0,-2.6736,-2.6208,-2.6383,-2.6208,-2.6125,-2.6529,-2.7719,0.0,0.0,0.0,0.0,0.0,0.0,0.0,0.0,0.0,0.0,0.0,0.0,0.0,0.0,-3.8391,-3.8544,-3.8898,-3.9259,-3.9627,-3.9902,-4.0514,-4.0772,-4.0707,-4.1415,-4.2384,-4.3602,-4.4108,0.0,0.0,0.0,0.0,0.0,-4.6023,-4.5972,-4.6073,-4.6073,-4.6073,-4.6073,-4.6172,-4.6172,-4.6172,-4.6023,-4.5972,-4.5871,-4.5667,-4.5581,-4.5528,-4.5423,-4.5423,-4.5423,-4.5423,-4.5423,-4.5423,-4.5423,-4.5423,-4.5423,-4.5423,-4.5423,-4.5423,-4.5423,-4.5423,-4.5423,-4.5423,-4.5423,-4.5459,-4.5598,-4.5649,-4.5701,-4.5854,-4.5837,-4.5837,-4.6038,-4.5988,-4.6087,-4.6429,-4.6447,-4.6542,-4.6684,-4.6888,-4.6998,-4.6998,-4.6998,-4.6998,-4.6998,-4.6998,-4.6998,-4.6998,-4.6998,-4.7098,-4.7353,-4.7266,-4.7133,-4.6981,-4.6835,-4.6572,0.0,0.0,0.0,0.0,0.0,0.0,0.0,0.0,0.0,0.0,0.0,0.0,0.0,-2.5668,-2.546,-2.5442,0.0,0.0,0.0,0.0,0.0,0.0,0.0,0.0,0.0,0.0,0.0,0.0,0.0,0.0,0.0,-3.8391,-3.8391,-3.8391,-3.8821,-3.8821,-3.8448,-3.9365,-3.961,-3.9242,-3.9749,-4.1052,-4.3024,-4.3076,0.0,0.0,0.0,0.0,0.0,-4.6172,-4.6172,-4.6172,-4.6172,-4.6172,-4.6172,-4.6172,-4.6172,-4.6172,-4.6073,-4.5922,-4.5821,-4.5667,-4.5528,-4.5423,-4.5423,-4.5423,-4.5423,-4.5423,-4.5423,-4.5423,-4.5423,-4.5423,-4.5423,-4.5423,-4.5423,-4.5423,-4.5423,-4.5423,-4.5423,-4.5423,-4.5423,-4.5423,-4.5423,-4.5423,-4.5423,-4.5423,-4.5598,-4.5786,-4.5786,-4.5988,-4.6137,-4.6186,-4.6186,-4.6186,-4.6186,-4.6637,-4.6934,-4.698,-4.698,-4.698,-4.6998,-4.6998,-4.6998,-4.6998,-4.6998,-4.6998,-4.6998,-4.6731,-4.659,-4.659,-4.635,-4.6221,-2.4895,0.0,-2.4356,-2.4141,-2.3814,0.0,0.0,0.0,0.0,0.0,0.0,0.0,0.0,0.0,0.0,0.0,0.0,0.0,0.0,0.0,0.0,0.0,0.0,0.0,0.0,0.0,0.0,0.0,0.0,0.0,0.0,-3.8391,-3.8391,-3.8391,-3.8821,-3.9023,-3.9007,-3.9523,-3.9817,-3.98,-3.9952,-4.0796,-4.225,-4.2852,0.0,0.0,0.0,0.0,-4.6172,-4.6172,-4.6172,-4.6172,-4.6172,-4.6172,-4.6172,-4.6172,-4.6172,-4.6189,-4.6172,-4.6122,-4.6073,-4.5821,-4.5563,-4.5423,-4.5423,-4.5423,-4.5423,-4.5423,-4.5423,-4.5423,-4.5423,-4.5423,-4.5423,-4.5423,-4.5423,-4.5423,-4.5423,-4.5423,-4.5423,-4.5423,-4.5423,-4.5423,-4.5423,-4.5423,-4.5423,-4.5423,-4.5459,-4.5511,-4.5511,-4.5563,-4.5667,-4.5887,-4.5887,-4.5988,-4.6186,-4.6332,-4.6495,-4.6684,-4.6684,-4.6795,-4.6998,-4.6998,-4.6998,-4.6998,-4.6998,-4.6998,-4.6998,-4.6842,-4.6684,-4.659,-4.6542,-4.6416,-2.2866,-2.2851,-2.2915,-2.2359,-2.2195,-2.2016,0.0,0.0,0.0,0.0,0.0,0.0,0.0,0.0,0.0,0.0,0.0,0.0,0.0,0.0,0.0,0.0,0.0,0.0,0.0,0.0,0.0,0.0,0.0,0.0,0.0,-3.8262,-3.8262,-3.8408,-3.86,-3.8766,-3.8843,-3.9222,-3.9523,-3.9645,-3.9645,-4.046,-4.2009,-4.2466,-4.3592,0.0,0.0,0.0,-4.6172,-4.6172,-4.6172,-4.6172,-4.6172,-4.6172,-4.6172,-4.6172,-4.6172,-4.6172,-4.6122,-4.6023,-4.5871,-4.5667,-4.5528,-4.5423,-4.5423,-4.5423,-4.5423,-4.5423,-4.5423,-4.5423,-4.5423,-4.5423,-4.5423,-4.5423,-4.5423,-4.5423,-4.5423,-4.5423,-4.5423,-4.5423,-4.5423,-4.5423,-4.5423,-4.5423,-4.5423,-4.5423,-4.5423,-4.5423,-4.5423,-4.5423,-4.5476,-4.5598,-4.5598,-4.5667,-4.5803,-4.5854,-4.6055,-4.659,-4.659,-4.6731,-4.6998,-4.6998,-4.6998,-4.6998,-4.6998,-4.6998,-4.6998,-4.6888,-4.6778,-4.6684,-4.6637,-4.6542,-2.1471,-2.2491,-2.3517,-2.2141,-2.1716,-2.1403,0.0,0.0,0.0,0.0,0.0,0.0,0.0,0.0,0.0,0.0,0.0,0.0,0.0,0.0,0.0,0.0,0.0,0.0,0.0,0.0,0.0,0.0,0.0,0.0,0.0,-3.8075,-3.8075,-3.8391,-3.8391,-3.8391,-3.8391,-3.8711,-3.8969,-3.9098,-3.9098,-3.9945,-4.1574,-4.1833,-4.2929,0.0,0.0,0.0,-4.6055,-4.6172,-4.6172,-4.6172,-4.6172,-4.6172,-4.6172,-4.6172,-4.6172,-4.6172,-4.6023,-4.5821,-4.5632,-4.5476,-4.5423,-4.5423,-4.5423,-4.5423,-4.5423,-4.5423,-4.5423,-4.5423,-4.5423,-4.5423,-4.5423,-4.5423,-4.5423,-4.5423,-4.5423,-4.5423,-4.5423,-4.5423,-4.5423,-4.5423,-4.5423,-4.5423,-4.5423,-4.5423,-4.5423,-4.5371,-4.5247,-4.5247,-4.5194,-4.5123,-4.5123,-4.514,-4.5247,-4.5247,-4.5598,-4.6447,-4.6542,-4.6684,-4.6998,-4.6998,-4.6998,-4.6998,-4.6998,-4.6998,-4.6998,-4.6888,-4.6795,-4.6795,-4.6684,-4.6637,-2.099,-2.2372,-2.3474,-2.1478,-2.0531,-2.0046,0.0,0.0,0.0,0.0,0.0,0.0,0.0,0.0,0.0,0.0,0.0,0.0,0.0,0.0,0.0,0.0,0.0,0.0,0.0,0.0,0.0,0.0,0.0,0.0,0.0,-3.7943,-3.8075,-3.8391,-3.8391,-3.8391,-3.8391,-3.8448,-3.8504,-3.8504,-3.8504,-3.8909,-3.9654,-4.0317,-4.1359,0.0,0.0,-4.4803,-4.5477,-4.6005,-4.6172,-4.6172,-4.6172,-4.6172,-4.6172,-4.6172,-4.6172,-4.6172,-4.6023,-4.5871,-4.5736,-4.5615,-4.5476,-4.5423,-4.5423,-4.5423,-4.5423,-4.5423,-4.5423,-4.5423,-4.5423,-4.5423,-4.5423,-4.5423,-4.5423,-4.5423,-4.5423,-4.5423,-4.5423,-4.5423,-4.5423,-4.5423,-4.5423,-4.5423,-4.5423,-4.5423,-4.5423,-4.5194,-4.4669,-4.4614,-4.4429,-4.3864,-4.3806,-4.3997,-4.4614,-4.4614,-4.4998,-4.5887,-4.6137,-4.6477,-4.698,-4.6998,-4.6998,-4.6998,-4.6998,-4.6998,-4.6998,-4.6888,-4.6795,-4.6795,-4.6795,-4.6684,-2.0728,-2.1233,-2.189,-2.1883,-2.2507,-2.31,0.0,0.0,0.0,0.0,0.0,0.0,0.0,0.0,0.0,0.0,0.0,0.0,0.0,0.0,0.0,0.0,0.0,0.0,0.0,0.0,0.0,0.0,0.0,0.0,0.0,0.0,-3.7626,-3.8132,-3.8132,-3.8205,-3.8391,-3.8391,-3.856,-3.8843,-3.8843,-3.9098,-3.9627,-4.0113,-4.0953,-4.2125,0.0,-4.3863,-4.4734,-4.5095,-4.5214,-4.5214,-4.5214,-4.5214,-4.5267,-4.5597,-4.5938,-4.6172,-4.6023,-4.5972,-4.5871,-4.5684,-4.5581,-4.5406,-4.5015,-4.514,-4.5318,-4.5032,-4.514,-4.5423,-4.5423,-4.5423,-4.5423,-4.5423,-4.5423,-4.5423,-4.5423,-4.5423,-4.5423,-4.5423,-4.514,-4.4906,-4.4906,-4.4597,-4.4339,-4.4339,-4.4339,-4.4282,-4.4013,-4.3939,-4.3823,-4.3512,-4.3823,-4.4186,-4.4446,-4.4502,-4.4872,-4.5735,-4.6038,-4.6284,-4.6542,-4.659,-4.6495,-4.6332,-4.6637,-4.6731,-4.659,-4.6795,-4.6888,-4.6888,-4.6888,-4.6888,-2.0444,-2.0558,-2.1149,-2.2395,0.0,0.0,0.0,0.0,0.0,0.0,0.0,0.0,0.0,0.0,0.0,0.0,0.0,0.0,0.0,0.0,0.0,0.0,0.0,0.0,0.0,0.0,0.0,0.0,0.0,0.0,0.0,0.0,-3.7225,-3.777,-3.7754,-3.7902,-3.8148,-3.8148,-3.8472,-3.9007,-3.9007,-3.9259,-3.9627,-3.9785,-4.0404,-4.1444,-4.1977,-4.2853,-4.3816,-4.4241,-4.4378,-4.4378,-4.4378,-4.449,-4.4657,-4.4966,-4.5477,-4.5955,-4.5632,-4.5511,-4.5459,-4.5196,-4.5106,-4.4981,-4.4429,-4.4725,-4.5086,-4.4614,-4.4852,-4.5194,-4.5371,-4.5423,-4.5371,-4.5194,-4.5194,-4.514,-4.5015,-4.4944,-4.4944,-4.4944,-4.4597,-4.4259,-4.4259,-4.3823,-4.3512,-4.3512,-4.3512,-4.3453,-4.3333,-4.3273,-4.3213,-4.3092,-4.3512,-4.3898,-4.4013,-4.4202,-4.4524,-4.5214,-4.5511,-4.5665,-4.5767,-4.5784,-4.5734,-4.5666,-4.607,-4.6266,-4.6284,-4.6702,-4.6934,-4.6998,-4.6998,-4.6998,-2.001,-2.1379,-2.2903,-2.2527,0.0,0.0,0.0,0.0,0.0,0.0,0.0,0.0,0.0,0.0,0.0,0.0,0.0,0.0,0.0,0.0,0.0,0.0,0.0,0.0,0.0,0.0,0.0,0.0,0.0,0.0,0.0,0.0,0.0,-3.7417,-3.7417,-3.7476,-3.7476,-3.7476,-3.7786,-3.8448,-3.8448,-3.8504,-3.8504,-3.8553,-3.8943,-3.9723,-4.0958,-4.1896,-4.2691,-4.3906,-4.4378,-4.4378,-4.4378,-4.4749,-4.5197,-4.4657,-4.4875,-4.525,-4.4434,-4.4152,-4.4095,-4.3748,-4.363,-4.363,-4.3571,-4.4071,-4.4558,-4.4502,-4.4502,-4.4669,-4.5247,-4.5423,-4.5264,-4.4686,-4.4558,-4.4373,-4.3748,-4.363,-4.363,-4.363,-4.363,-4.3571,-4.3571,-4.3512,-4.3512,-4.3512,-4.3512,-4.3273,-4.2756,-4.2632,-4.2459,-4.1835,-4.1769,-4.2077,-4.2694,-4.3229,-4.363,-4.3672,-4.393,-4.4181,-4.4427,-4.4427,-4.4736,-4.5303,-4.5355,-4.5784,-4.659,-4.659,-4.6749,-4.6998,-4.6998,-4.6998,-2.0025,-2.1203,-2.2414,-2.2089,0.0,0.0,0.0,0.0,0.0,0.0,0.0,0.0,0.0,0.0,0.0,0.0,0.0,0.0,0.0,0.0,0.0,0.0,0.0,0.0,0.0,0.0,0.0,0.0,0.0,0.0,0.0,0.0,0.0,-3.7165,-3.7165,-3.721,-3.7417,-3.7417,-3.7535,-3.7786,-3.8017,-3.8205,-3.8391,-3.8391,-3.8746,-3.9358,-3.9927,-4.0787,-4.1823,-4.2393,-4.2894,-4.3306,-4.3306,-4.363,-4.4118,-4.3905,-4.4249,-4.4695,-4.4361,-4.4266,-4.4209,-4.398,-4.3939,-4.3881,-4.3366,-4.368,-4.4071,-4.3588,-4.3706,-4.4202,-4.4742,-4.4541,-4.4169,-4.3939,-4.3881,-4.3823,-4.3571,-4.3512,-4.3512,-4.3512,-4.3229,-4.2925,-4.2925,-4.2615,-4.2317,-4.2317,-4.2317,-4.2253,-4.2029,-4.1964,-4.19,-4.1654,-4.1964,-4.2333,-4.2585,-4.2818,-4.274,-4.2364,-4.3136,-4.3714,-4.3814,-4.3797,-4.3831,-4.3939,-4.4288,-4.4495,-4.4661,-4.5442,-4.5935,-4.6182,-4.6572,-4.6842,-2.0708,-2.1285,-2.2019,0.0,0.0,0.0,0.0,0.0,0.0,0.0,0.0,0.0,0.0,0.0,0.0,0.0,0.0,0.0,0.0,0.0,0.0,0.0,0.0,0.0,0.0,0.0,0.0,0.0,0.0,0.0,0.0,0.0,0.0,0.0,-3.6816,-3.6923,-3.7118,-3.7134,-3.7194,-3.7254,-3.7492,-3.7786,-3.8091,-3.8091,-3.8343,-3.8805,-3.9194,-4.0008,-4.1083,-4.1439,-4.2002,-4.2634,-4.2634,-4.2958,-4.3453,-4.329,-4.3571,-4.4078,-4.3864,-4.3748,-4.3672,-4.3571,-4.3529,-4.3366,-4.2896,-4.3202,-4.3621,-4.3064,-4.3246,-4.3663,-4.3972,-4.3839,-4.3512,-4.3333,-4.3273,-4.3213,-4.297,-4.2909,-4.2909,-4.2909,-4.2569,-4.2269,-4.2269,-4.19,-4.1588,-4.1588,-4.1588,-4.1588,-4.1588,-4.1588,-4.1588,-4.1588,-4.2029,-4.2269,-4.2269,-4.2269,-4.2093,-4.1654,-4.2427,-4.2909,-4.2909,-4.2909,-4.2925,-4.2912,-4.3317,-4.3538,-4.3597,-4.4456,-4.5003,-4.5251,-4.5681,-4.6,-2.206,-2.1787,0.0,0.0,0.0,0.0,0.0,0.0,0.0,0.0,0.0,0.0,0.0,0.0,0.0,0.0,0.0,0.0,0.0,0.0,0.0,0.0,0.0,0.0,0.0,0.0,0.0,0.0,0.0,0.0,0.0,0.0,0.0,0.0,-3.6492,-3.6492,-3.6492,-3.6492,-3.6693,-3.7015,-3.7015,-3.7165,-3.7417,-3.7417,-3.7594,-3.7934,-3.867,-3.9553,-4.0545,-4.1274,-4.1986,-4.2571,-4.2571,-4.2958,-4.3393,-4.2789,-4.2958,-4.3393,-4.2664,-4.2238,-4.2109,-4.2109,-4.1996,-4.1898,-4.2045,-4.2555,-4.3096,-4.3096,-4.3096,-4.3096,-4.3096,-4.3443,-4.3588,-4.297,-4.2785,-4.2553,-4.1769,-4.1588,-4.1588,-4.1588,-4.1588,-4.1588,-4.1588,-4.1588,-4.1588,-4.1588,-4.1588,-4.1588,-4.1588,-4.1588,-4.1588,-4.1588,-4.1588,-4.1588,-4.1588,-4.1588,-4.1588,-4.1588,-4.1588,-4.1588,-4.1588,-4.1588,-4.19,-4.2585,-4.2585,-4.3031,-4.3855,-4.3913,-4.4011,-4.4316,-4.4299,-4.4316,-2.0099,-2.2198,0.0,0.0,0.0,0.0,0.0,0.0,0.0,0.0,0.0,0.0,0.0,0.0,0.0,0.0,0.0,0.0,0.0,0.0,0.0,0.0,0.0,0.0,0.0,0.0,0.0,0.0,0.0,0.0,0.0,0.0,0.0,0.0,-3.6492,-3.6492,-3.6492,-3.6492,-3.6554,-3.6616,-3.6616,-3.6907,-3.7417,-3.7417,-3.746,-3.7535,-3.7757,-3.8308,-3.9176,-4.0387,-4.1279,-4.1916,-4.1916,-4.2158,-4.2522,-4.2302,-4.2476,-4.2851,-4.2618,-4.2508,-4.2429,-4.2429,-4.2445,-4.2381,-4.2445,-4.2555,-4.2743,-4.2618,-4.2618,-4.2618,-4.2618,-4.2743,-4.2726,-4.2412,-4.2238,-4.2125,-4.1882,-4.167,-4.1588,-4.1588,-4.1588,-4.1588,-4.1588,-4.1588,-4.1588,-4.1588,-4.1588,-4.1588,-4.1588,-4.1588,-4.1588,-4.1588,-4.1588,-4.1588,-4.1588,-4.1588,-4.1588,-4.1588,-4.1588,-4.1588,-4.1588,-4.1588,-4.172,-4.19,-4.19,-4.2013,-4.2285,-4.2785,-4.312,-4.337,-4.3839,-4.4108,-2.1696,0.0,0.0,0.0,0.0,0.0,0.0,0.0,0.0,0.0,0.0,0.0,0.0,0.0,0.0,0.0,0.0,0.0,0.0,0.0,0.0,0.0,0.0,0.0,0.0,0.0,0.0,0.0,0.0,0.0,0.0,0.0,0.0,0.0,-3.6492,-3.6492,-3.6492,-3.6492,-3.6492,-3.6492,-3.6492,-3.6662,-3.7074,-3.7074,-3.7134,-3.727,-3.7657,-3.8081,-3.8631,-4.004,-4.0863,-4.1209,-4.1478,-4.172,-4.1916,-4.1916,-4.2045,-4.2174,-4.2174,-4.2174,-4.2109,-4.2174,-4.2174,-4.2109,-4.2302,-4.2365,-4.2429,-4.2445,-4.2508,-4.2508,-4.2508,-4.2508,-4.2445,-4.2238,-4.2125,-4.2077,-4.1898,-4.1817,-4.167,-4.1588,-4.1588,-4.1588,-4.1588,-4.1588,-4.1588,-4.1588,-4.1588,-4.1588,-4.1588,-4.1588,-4.1588,-4.1588,-4.1588,-4.1588,-4.1588,-4.1588,-4.1588,-4.1588,-4.1588,-4.1588,-4.1588,-4.1588,-4.1588,-4.1588,-4.1588,-4.1588,-4.1588,-4.2029,-4.2317,-4.2458,-4.2814,-4.3087,0.0,0.0,0.0,0.0,0.0,0.0,0.0,0.0,0.0,0.0,0.0,0.0,0.0,0.0,0.0,0.0,0.0,0.0,0.0,0.0,0.0,0.0,0.0,0.0,0.0,0.0,0.0,0.0,0.0,0.0,0.0,0.0,0.0,-3.6352,-3.6492,-3.6492,-3.6492,-3.6492,-3.6492,0.0,-3.6492,-3.6492,-3.6492,-3.6492,-3.6693,-3.7046,-3.793,-3.8351,-3.8509,-3.985,-4.0434,-4.056,-4.1254,-4.1522,-4.1522,-4.1522,-4.1588,-4.1588,-4.1588,-4.1456,-4.139,-4.1522,-4.1456,-4.139,-4.1916,-4.2045,-4.2109,-4.2445,-4.2555,-4.2571,-4.2571,-4.2634,-4.2571,-4.2445,-4.2381,-4.2318,-4.2028,-4.1898,-4.1882,-4.167,-4.1654,-4.1588,-4.1588,-4.1588,-4.1588,-4.1588,-4.1588,-4.1588,-4.1588,-4.1588,-4.1588,-4.1588,-4.1588,-4.1588,-4.1588,-4.1588,-4.1588,-4.1588,-4.1588,-4.1588,-4.1588,-4.1588,-4.1588,-4.1588,-4.1588,-4.1588,-4.1588,-4.1588,-4.1588,-4.1588,-4.1588,-4.1588,0.0,0.0,0.0,0.0,0.0,0.0,0.0,0.0,0.0,0.0,0.0,0.0,0.0,0.0,0.0,0.0,0.0,0.0,0.0,0.0,0.0,0.0,0.0,0.0,0.0,0.0,0.0,0.0,0.0,0.0,0.0,0.0,0.0,-3.5608,-3.6211,-3.6492,-3.6492,-3.6492,-3.6492,0.0,-3.6492,-3.6492,-3.6492,-3.6492,-3.6554,-3.6631,-3.6832,-3.725,-3.7808,-3.8645,-3.923,-3.9771,-4.0452,-4.0935,-4.1205,-4.1205,-4.139,-4.1588,-4.1588,-4.1588,-4.1522,-4.1588,-4.1588,-4.1588,-4.1654,-4.172,-4.1785,-4.2109,-4.2238,-4.2238,-4.2508,-4.2634,-4.2571,-4.2571,-4.2508,-4.2381,-4.2334,-4.219,-4.1996,-4.1882,-4.1833,-4.1817,-4.1654,-4.1588,-4.1588,-4.1588,-4.1588,-4.1588,-4.1588,-4.1588,-4.1588,-4.1588,-4.1588,-4.1588,-4.1588,-4.1588,-4.1588,-4.1588,-4.1588,-4.1588,-4.1588,-4.1588,-4.1588,-4.1588,-4.1588,-4.1588,-4.1588,-4.1588,-4.1588,-4.1588,-4.1588,-4.1588,0.0,0.0,0.0,0.0,0.0,0.0,0.0,0.0,0.0,0.0,0.0,0.0,0.0,0.0,0.0,0.0,0.0,0.0,0.0,0.0,0.0,0.0,0.0,0.0,0.0,0.0,0.0,0.0,0.0,0.0,0.0,-3.4109,-3.4514,-3.4846,-3.5593,-3.5943,-3.5943,-3.6352,-3.6352,-3.5943,-3.5943,-3.5943,-3.6006,-3.6352,-3.6492,-3.6492,-3.6492,-3.6692,-3.7076,-3.7754,-3.8431,-3.9108,-3.9785,-4.0384,-4.0799,-4.0799,-4.0919,-4.1055,-4.1055,-4.1055,-4.1055,-4.1055,-4.1055,-4.1122,-4.1323,-4.1323,-4.1456,-4.1785,-4.1851,-4.1916,-4.2109,-4.2109,-4.2109,-4.2109,-4.2302,-4.2508,-4.2381,-4.2318,-4.219,-4.2012,-4.1947,-4.1898,-4.1752,-4.167,-4.1588,-4.1588,-4.1588,-4.1588,-4.1588,-4.167,-4.1752,-4.1752,-4.1801,-4.1851,-4.1851,-4.1851,-4.1851,-4.1851,-4.1851,-4.1851,-4.1851,-4.1851,-4.1785,-4.1588,-4.167,-4.1752,-4.1752,-4.1801,-4.1851,-4.1851,-4.1851,-4.1851,0.0,0.0,0.0,0.0,0.0,0.0,0.0,0.0,0.0,0.0,0.0,0.0,0.0,0.0,0.0,0.0,0.0,0.0,0.0,0.0,0.0,0.0,0.0,0.0,0.0,0.0,0.0,0.0,0.0,0.0,-3.303,-3.3157,-3.3492,-3.4109,-3.4861,-3.519,-3.519,-3.5816,-3.58,-3.519,-3.519,-3.519,-3.5255,-3.5816,-3.6289,-3.6492,-3.6367,-3.6352,-3.6538,-3.7215,-3.7831,-3.8415,-3.92,-3.9862,-4.037,-4.0493,-4.0385,-4.0301,-4.0455,-4.0385,-4.0301,-4.0455,-4.0524,-4.0524,-4.0935,-4.1003,-4.107,-4.139,-4.1522,-4.1522,-4.1588,-4.1588,-4.1588,-4.1588,-4.2045,-4.2381,-4.2318,-4.2318,-4.2318,-4.2125,-4.2012,-4.1963,-4.1963,-4.1801,-4.172,-4.172,-4.172,-4.172,-4.172,-4.1801,-4.1963,-4.1963,-4.2061,-4.2109,-4.2109,-4.2109,-4.2109,-4.2109,-4.2109,-4.2109,-4.2109,-4.2109,-4.198,-4.172,-4.1882,-4.1963,-4.1963,-4.2061,-4.2109,-4.2109,-4.2109,-4.2109,0.0,0.0,0.0,0.0,0.0,0.0,0.0,0.0,0.0,0.0,0.0,0.0,0.0,0.0,0.0,0.0,0.0,0.0,0.0,0.0,0.0,0.0,0.0,0.0,0.0,0.0,0.0,0.0,0.0,0.0,-3.2314,-3.2889,-3.3227,-3.3353,-3.4041,-3.4447,-3.4447,-3.4514,-3.4514,-3.4447,-3.4447,-3.4447,-3.4447,-3.4581,-3.527,-3.6492,-3.58,-3.5943,-3.6538,-3.7215,-3.7554,-3.7769,-3.9031,-3.957,-3.9724,-4.0309,-4.0076,-3.955,-4.0231,-4.006,-3.955,-4.0301,-4.0524,-4.0524,-4.0593,-4.0593,-4.0662,-4.107,-4.1205,-4.1256,-4.1522,-4.1588,-4.1588,-4.1588,-4.1654,-4.172,-4.172,-4.1916,-4.2125,-4.1947,-4.2012,-4.2045,-4.2045,-4.2045,-4.2045,-4.2045,-4.2045,-4.2045,-4.2045,-4.2045,-4.2045,-4.2045,-4.2109,-4.2109,-4.2109,-4.2109,-4.2109,-4.2109,-4.2109,-4.2109,-4.2109,-4.2109,-4.2109,-4.2045,-4.2045,-4.2045,-4.2045,-4.2109,-4.2109,-4.2109,-4.2109,-4.2109,0.0,0.0,0.0,0.0,0.0,0.0,0.0,0.0,0.0,0.0,0.0,0.0,0.0,0.0,0.0,0.0,0.0,0.0,0.0,0.0,0.0,0.0,0.0,0.0,0.0,0.0,0.0,0.0,0.0,-3.2182,-3.2182,-3.2503,-3.2632,-3.2632,-3.3297,-3.3699,-3.3699,-3.4109,-3.4109,-3.3699,-3.3699,-3.3699,-3.3699,-3.3699,-3.4245,-3.5255,-3.4912,-3.4993,-3.5285,-3.5583,-3.5911,-3.6298,-3.6948,-3.762,-3.8221,-3.8519,-3.8616,-3.8708,-3.9,-3.8928,-3.8708,-3.9015,-3.916,-3.916,-3.916,-3.9463,-3.9834,-4.0045,-4.0424,-4.0799,-4.0919,-4.0987,-4.0987,-4.0987,-4.0987,-4.0987,-4.0987,-4.139,-4.1866,-4.1898,-4.2077,-4.2238,-4.2109,-4.2109,-4.2109,-4.2109,-4.2109,-4.2109,-4.2109,-4.2174,-4.2254,-4.2254,-4.2318,-4.2365,-4.2365,-4.2365,-4.2365,-4.2365,-4.2365,-4.2365,-4.2365,-4.2365,-4.2365,-4.2365,-4.2318,-4.2254,-4.2254,-4.2365,-4.2365,-4.2365,-4.2365,-4.2365,0.0,0.0,0.0,0.0,0.0,0.0,0.0,0.0,0.0,0.0,0.0,0.0,0.0,0.0,0.0,0.0,0.0,0.0,0.0,0.0,0.0,0.0,0.0,0.0,0.0,0.0,0.0,0.0,0.0,-3.2182,-3.2182,-3.2182,-3.2182,-3.2182,-3.2704,-3.296,-3.296,-3.3506,-3.3506,-3.296,-3.296,-3.296,-3.296,-3.296,-3.3241,-3.3782,-3.3973,-3.4109,-3.4312,-3.4312,-3.4588,-3.5107,-3.5267,-3.6008,-3.7012,-3.7172,-3.7475,-3.78,-3.8026,-3.7951,-3.7814,-3.8115,-3.819,-3.819,-3.8264,-3.8723,-3.9175,-3.9103,-3.9565,-4.0021,-3.992,-3.992,-3.992,-3.992,-4.0076,-4.0301,-4.0593,-4.1055,-4.1538,-4.1752,-4.2012,-4.2174,-4.198,-4.198,-4.198,-4.2109,-4.2109,-4.2109,-4.2238,-4.2381,-4.2445,-4.2445,-4.2571,-4.2634,-4.2634,-4.2634,-4.2634,-4.2634,-4.2634,-4.2634,-4.2634,-4.2634,-4.2634,-4.2634,-4.2508,-4.2445,-4.2445,-4.2571,-4.2571,-4.2571,-4.2571,-4.2571,0.0,0.0,0.0,0.0,0.0,0.0,0.0,0.0,0.0,0.0,0.0,0.0,0.0,0.0,0.0,0.0,0.0,0.0,0.0,0.0,0.0,0.0,0.0,0.0,0.0,0.0,0.0,0.0,0.0,-3.2182,-3.2182,-3.2182,-3.2182,-3.2182,-3.2241,-3.2241,-3.2241,-3.2314,-3.2314,-3.2241,-3.2241,-3.2241,-3.2241,-3.2241,-3.2241,-3.23,-3.296,-3.3616,-3.4312,-3.4312,-3.4394,-3.4698,-3.5092,-3.5816,-3.6629,-3.7012,-3.7132,-3.7078,-3.7814,-3.7587,-3.7155,-3.8159,-3.8472,-3.8546,-3.8708,-3.8782,-3.8782,-3.862,-3.8546,-3.8531,-3.8264,-3.825,-3.825,-3.825,-3.8782,-3.9677,-4.0836,-4.1138,-4.1189,-4.1522,-4.1654,-4.1654,-4.1654,-4.1654,-4.172,-4.2045,-4.2109,-4.2238,-4.2492,-4.2571,-4.2571,-4.2571,-4.2571,-4.2634,-4.2634,-4.2634,-4.2634,-4.2634,-4.2634,-4.2634,-4.2634,-4.2634,-4.2634,-4.2634,-4.2571,-4.2571,-4.2571,-4.2571,-4.2508,-4.2381,-4.2571,-4.2508,0.0,0.0,0.0,0.0,0.0,0.0,0.0,0.0,0.0,0.0,0.0,0.0,0.0,0.0,0.0,0.0,0.0,0.0,0.0,0.0,0.0,0.0,0.0,0.0,0.0,0.0,0.0,0.0,0.0,0.0,-3.2182,-3.2182,-3.2241,-3.2359,-3.2241,-3.2182,-3.2182,-3.2182,-3.2182,-3.2182,-3.2182,-3.2241,-3.2359,-3.2241,-3.2314,-3.2503,-3.2618,-3.2818,-3.3087,-3.3241,-3.3311,-3.3395,-3.341,-3.3858,-3.4489,-3.4882,-3.5384,-3.5917,-3.659,-3.6744,-3.6679,-3.7056,-3.7134,-3.7148,-3.7211,-3.7582,-3.8023,-3.7947,-3.8323,-3.862,-3.8457,-3.8368,-3.8279,-3.8101,-3.8324,-3.862,-3.9058,-3.9804,-4.0239,-3.9859,-3.9899,-4.0093,-4.0093,-4.0093,-4.0093,-4.0217,-4.0675,-4.1111,-4.1478,-4.1933,-4.2158,-4.1948,-4.1868,-4.1868,-4.1868,-4.1868,-4.2077,-4.2571,-4.2634,-4.2634,-4.2634,-4.2634,-4.2634,-4.2634,-4.2634,-4.2634,-4.2634,-4.2634,-4.2571,-4.2508,-4.2571,-4.2508,0.0,0.0,0.0,0.0,0.0,0.0,0.0,0.0,0.0,0.0,0.0,0.0,0.0,0.0,0.0,0.0,0.0,0.0,0.0,0.0,0.0,0.0,0.0,0.0,0.0,0.0,0.0,0.0,0.0,0.0,-3.2182,-3.2182,-3.2241,-3.2359,-3.23,-3.2241,-3.2182,-3.2241,-3.2241,-3.2241,-3.2241,-3.2359,-3.2489,-3.2444,-3.2503,-3.2704,-3.2632,-3.2561,-3.2489,-3.2632,-3.2704,-3.2704,-3.2489,-3.2787,-3.3362,-3.3574,-3.4331,-3.5251,-3.5648,-3.6067,-3.6405,-3.6484,-3.6484,-3.647,-3.6549,-3.6978,-3.7352,-3.7289,-3.7658,-3.7962,-3.772,-3.7644,-3.7539,-3.7663,-3.7738,-3.7738,-3.7738,-3.8546,-3.9145,-3.8605,-3.8664,-3.8854,-3.8854,-3.8854,-3.8868,-3.8999,-3.9459,-3.9969,-4.027,-4.0795,-4.1013,-4.0727,-4.0878,-4.0946,-4.0946,-4.1311,-4.1722,-4.2222,-4.2492,-4.2634,-4.2634,-4.2634,-4.2634,-4.2634,-4.2634,-4.2634,-4.2634,-4.2634,-4.2571,-4.2508,-4.2571,-4.2508,0.0,0.0,0.0,0.0,0.0,0.0,0.0,0.0,0.0,0.0,0.0,0.0,0.0,0.0,0.0,0.0,0.0,0.0,0.0,0.0,0.0,0.0,0.0,0.0,0.0,0.0,0.0,0.0,0.0,-3.2182,-3.2182,-3.2169,-3.2182,-3.2182,-3.2359,-3.2359,-3.2255,-3.2359,-3.2417,-3.2417,-3.2417,-3.2489,-3.2704,-3.2704,-3.2704,-3.2704,-3.2917,-3.2917,-3.2704,-3.2704,-3.2704,-3.2704,-3.2489,-3.2773,-3.3293,-3.3111,-3.3963,-3.5141,-3.5182,-3.5723,-3.6457,-3.6628,-3.6721,-3.6707,-3.6915,-3.6978,-3.6993,-3.6786,-3.6563,-3.6405,-3.6166,-3.5898,-3.5871,-3.6702,-3.6858,-3.6858,-3.6858,-3.751,-3.8026,-3.8026,-3.8026,-3.8026,-3.8026,-3.8026,-3.8175,-3.8532,-3.8605,-3.8737,-3.9143,-3.92,-3.92,-3.92,-3.95,-3.9783,-3.9783,-4.0727,-4.1377,-4.1459,-4.2142,-4.2492,-4.2555,-4.2571,-4.2571,-4.2571,-4.2571,-4.2571,-4.2571,-4.2571,-4.2508,-4.2381,-4.2508,-4.2429,-1.5531,0.0,0.0,0.0,0.0,0.0,0.0,0.0,0.0,0.0,0.0,0.0,0.0,0.0,0.0,0.0,0.0,0.0,0.0,0.0,0.0,0.0,0.0,0.0,0.0,0.0,0.0,0.0,-3.2023,-3.2182,-3.2182,-3.23,-3.2359,-3.2359,-3.2489,-3.2632,-3.2574,-3.2632,-3.2632,-3.2632,-3.2632,-3.2704,-3.2917,-3.2775,-3.286,-3.3157,-3.3072,-3.3072,-3.3157,-3.3157,-3.3157,-3.3086,-3.2931,-3.2943,-3.3079,-3.323,-3.3628,-3.4217,-3.5085,-3.5654,-3.6094,-3.6696,-3.6915,-3.6915,-3.6978,-3.6978,-3.6993,-3.6915,-3.6836,-3.6758,-3.6391,-3.5978,-3.579,-3.5937,-3.6017,-3.6017,-3.6017,-3.6243,-3.6387,-3.6387,-3.6387,-3.6387,-3.6387,-3.6387,-3.6387,-3.6531,-3.7063,-3.7572,-3.7907,-3.8502,-3.8737,-3.8443,-3.8517,-3.8591,-3.8591,-3.8883,-3.9373,-4.0217,-4.0423,-4.0727,-4.0977,-4.1044,-4.1044,-4.1044,-4.1044,-4.1044,-4.1044,-4.2077,-4.2571,-4.2571,-4.2508,-4.2381,0.0,0.0,0.0,0.0,0.0,0.0,-1.993,-2.2209,0.0,0.0,0.0,0.0,0.0,0.0,0.0,0.0,0.0,0.0,0.0,0.0,0.0,0.0,0.0,0.0,0.0,0.0,0.0,-3.1629,-3.179,-3.2023,-3.2182,-3.2359,-3.2417,-3.2417,-3.2704,-3.2775,-3.2704,-3.2775,-3.2846,-3.2846,-3.2846,-3.2917,-3.3143,-3.3002,-3.3086,-3.3312,-3.3157,-3.3157,-3.3326,-3.3326,-3.3241,-3.3157,-3.3072,-3.2988,-3.2888,-3.2873,-3.3262,-3.3827,-3.4382,-3.4934,-3.5405,-3.6249,-3.6522,-3.6564,-3.6908,-3.6978,-3.6978,-3.6978,-3.6915,-3.6772,-3.647,-3.6152,-3.5898,-3.5898,-3.5804,-3.5723,-3.5804,-3.5898,-3.5804,-3.571,-3.571,-3.571,-3.571,-3.571,-3.5723,-3.5817,-3.627,-3.6638,-3.7,-3.7372,-3.7525,-3.7309,-3.7309,-3.74,-3.74,-3.7814,-3.8384,-3.9086,-3.9571,-3.9939,-4.0109,-4.0332,-4.0416,-4.0416,-4.0416,-4.0416,-4.0416,-4.1591,-4.2285,-4.2634,-4.2508,-4.2381,0.0,0.0,0.0,0.0,0.0,0.0,-2.075,-2.1772,-2.2649,0.0,0.0,0.0,0.0,0.0,0.0,0.0,0.0,0.0,0.0,0.0,0.0,0.0,0.0,0.0,0.0,-3.0646,-3.1123,-3.1468,-3.1542,-3.1703,-3.2182,-3.2359,-3.2417,-3.2417,-3.2775,-3.2917,-3.2775,-3.2917,-3.3058,-3.3058,-3.3058,-3.3157,-3.3326,-3.3326,-3.3326,-3.3326,-3.3326,-3.3326,-3.3326,-3.3326,-3.3157,-3.3058,-3.3058,-3.2917,-3.2704,-3.2561,-3.2904,-3.356,-3.3482,-3.3928,-3.463,-3.5467,-3.5781,-3.5934,-3.6712,-3.6936,-3.6978,-3.6978,-3.685,-3.6642,-3.6484,-3.6246,-3.6166,-3.6166,-3.5978,-3.5804,-3.6072,-3.6166,-3.6072,-3.5804,-3.5804,-3.5804,-3.5804,-3.5804,-3.5884,-3.6072,-3.6166,-3.6166,-3.6405,-3.6246,-3.6166,-3.6166,-3.6325,-3.6405,-3.6405,-3.7323,-3.7965,-3.7965,-3.8941,-3.9516,-3.9516,-3.9914,-4.0139,-4.0069,-4.0139,-4.0209,-4.0278,-4.1044,-4.1722,-4.2365,-4.2429,-4.2302,0.0,0.0,0.0,0.0,0.0,0.0,-1.806,-1.9111,-2.0134,0.0,0.0,0.0,0.0,0.0,0.0,0.0,0.0,0.0,0.0,0.0,0.0,0.0,0.0,0.0,0.0,-3.0748,-3.096,-3.0846,-3.1071,-3.1542,-3.2182,-3.2359,-3.2489,-3.2632,-3.2846,-3.3072,-3.3171,-3.3241,-3.3241,-3.3241,-3.3241,-3.3241,-3.3326,-3.3326,-3.3326,-3.3326,-3.3326,-3.3326,-3.3326,-3.3326,-3.3255,-3.3241,-3.3241,-3.3241,-3.3171,-3.3002,-3.2929,-3.2966,-3.3477,-3.3726,-3.3993,-3.4827,-3.5507,-3.6093,-3.6206,-3.6585,-3.6978,-3.6978,-3.685,-3.6721,-3.6642,-3.6484,-3.6325,-3.6325,-3.6312,-3.6312,-3.6325,-3.6325,-3.6325,-3.6232,-3.6232,-3.6232,-3.6232,-3.6232,-3.6312,-3.6312,-3.6325,-3.6325,-3.6405,-3.6405,-3.6325,-3.6325,-3.6405,-3.6405,-3.6405,-3.6615,-3.69,-3.7197,-3.74,-3.763,-3.7782,-3.8188,-3.8337,-3.8173,-3.8472,-3.8899,-3.952,-4.0278,-4.069,-4.0826,-4.1459,-4.1672,0.0,0.0,0.0,-1.6863,0.0,0.0,0.0,-1.9552,-2.0336,0.0,0.0,0.0,0.0,0.0,0.0,0.0,0.0,0.0,0.0,0.0,0.0,0.0,0.0,0.0,0.0,-2.9973,-3.0101,-2.9845,-3.0846,-3.1233,-3.0758,-3.1882,-3.2173,-3.1415,-3.216,-3.2304,-3.1796,-3.2028,-3.2101,-3.2101,-3.2101,-3.2101,-3.2101,-3.2101,-3.2101,-3.2101,-3.2101,-3.2331,-3.2704,-3.2704,-3.2931,-3.3326,-3.3326,-3.3326,-3.3255,-3.3072,-3.2917,-3.2888,-3.3135,-3.3173,-3.3342,-3.4172,-3.465,-3.5176,-3.5883,-3.6501,-3.6978,-3.6978,-3.6915,-3.685,-3.685,-3.6707,-3.6563,-3.6563,-3.6484,-3.6405,-3.6563,-3.6563,-3.6549,-3.6693,-3.6693,-3.6628,-3.6391,-3.6405,-3.6405,-3.6563,-3.6563,-3.6549,-3.6693,-3.6628,-3.6563,-3.6563,-3.6484,-3.6405,-3.6405,-3.6405,-3.647,-3.6536,-3.6758,-3.6836,-3.685,-3.724,-3.738,-3.7303,-3.7687,-3.8052,-3.8472,-3.903,-3.9662,-4.0416,-4.0758,-4.1111,0.0,0.0,0.0,0.0,0.0,-1.8858,0.0,0.0,0.0,0.0,0.0,0.0,0.0,0.0,0.0,0.0,0.0,0.0,0.0,0.0,0.0,0.0,0.0,0.0,0.0,-2.8793,-2.9071,-2.9201,-3.0098,-3.0144,-2.9158,-3.1027,-3.1349,-2.9821,-3.0966,-3.1167,-3.0342,-3.0657,-3.0807,-3.0895,-3.0895,-3.0895,-3.0895,-3.0895,-3.0895,-3.0895,-3.0895,-3.1267,-3.1856,-3.1856,-3.2245,-3.286,-3.3016,-3.3157,-3.3241,-3.2917,-3.2903,-3.2988,-3.2846,-3.2775,-3.2858,-3.3487,-3.3796,-3.4203,-3.5686,-3.6416,-3.6838,-3.695,-3.6978,-3.6978,-3.6978,-3.685,-3.6786,-3.6786,-3.6628,-3.6549,-3.6707,-3.6786,-3.6786,-3.6993,-3.6978,-3.6915,-3.6549,-3.6549,-3.6549,-3.6707,-3.6786,-3.685,-3.6993,-3.685,-3.6786,-3.6786,-3.6628,-3.6549,-3.6549,-3.6549,-3.647,-3.6312,-3.6522,-3.6615,-3.6405,-3.6693,-3.6915,-3.6978,-3.7303,-3.7534,-3.7625,-3.7915,-3.8752,-3.9999,-4.0139,-4.0432,0.0,0.0,0.0,0.0,-1.7879,0.0,0.0,0.0,0.0,-1.8701,0.0,0.0,0.0,0.0,0.0,0.0,0.0,0.0,0.0,0.0,0.0,0.0,0.0,0.0,0.0,0.0,-2.7975,-2.9553,-2.804,-2.7495,-2.8346,-2.9352,-2.9631,-2.9013,-2.9606,-3.0012,-3.0266,-3.0355,-3.0581,-3.0895,-3.0895,-3.0895,-3.0895,-3.0895,-3.0895,-3.0895,-3.0895,-3.097,-3.1044,-3.1044,-3.1119,-3.1267,-3.1942,-3.269,-3.3241,-3.2461,-3.2533,-3.2988,-3.2988,-3.2988,-3.3002,-3.3071,-3.3619,-3.4391,-3.57,-3.6121,-3.6276,-3.6838,-3.6978,-3.6978,-3.6978,-3.6978,-3.6993,-3.6993,-3.6993,-3.6915,-3.6993,-3.6993,-3.6993,-3.6993,-3.6978,-3.6993,-3.6915,-3.6915,-3.6915,-3.6993,-3.6993,-3.6978,-3.6978,-3.6993,-3.6993,-3.6993,-3.6915,-3.6915,-3.6915,-3.6915,-3.6915,-3.6915,-3.6772,-3.6628,-3.6405,-3.647,-3.6615,-3.6978,-3.7056,-3.7226,-3.7625,-3.7625,-3.7901,-3.8486,-3.9103,-3.9448,0.0,0.0,0.0,0.0,0.0,0.0,-1.8087,0.0,-1.9104,0.0,0.0,0.0,0.0,0.0,0.0,0.0,0.0,0.0,0.0,0.0,0.0,0.0,0.0,0.0,0.0,0.0,0.0,0.0,0.0,-2.7024,-2.6528,-2.811,-2.8353,-2.6999,-2.8192,-2.8627,-2.8084,-2.8335,-2.8743,-2.9172,-2.9172,-2.9238,-2.9484,-2.9484,-2.9484,-2.9484,-2.9484,-2.9768,-3.0228,-3.0228,-3.0443,-3.0895,-3.0745,-3.1193,-3.1882,-3.1563,-3.1563,-3.1783,-3.1783,-3.2087,-3.2533,-3.3002,-3.3648,-3.4337,-3.4857,-3.525,-3.5658,-3.6276,-3.6459,-3.6543,-3.6894,-3.6978,-3.6978,-3.6978,-3.6978,-3.6978,-3.6978,-3.6978,-3.6978,-3.6978,-3.6978,-3.6978,-3.6978,-3.6978,-3.6978,-3.6978,-3.6978,-3.6978,-3.6978,-3.6978,-3.6978,-3.6978,-3.6978,-3.6978,-3.6978,-3.6978,-3.6915,-3.6693,-3.6298,-3.6058,-3.5978,-3.5978,-3.6045,-3.627,-3.6522,-3.6693,-3.6929,-3.7394,-3.7687,-3.7839,-3.8397,-3.8899,-1.6669,0.0,0.0,0.0,0.0,0.0,0.0,0.0,0.0,0.0,0.0,0.0,0.0,0.0,0.0,0.0,0.0,0.0,0.0,0.0,0.0,0.0,0.0,0.0,0.0,0.0,0.0,-2.62,-2.65,-2.6283,-2.5048,-2.6773,-2.7007,-2.5336,-2.676,-2.7175,-2.6528,-2.694,-2.736,-2.7788,-2.7962,-2.8122,-2.8363,-2.8431,-2.8431,-2.8351,-2.8431,-2.8803,-2.9328,-2.9406,-2.9781,-3.0152,-2.9626,-2.9781,-3.0367,-3.0519,-3.0745,-3.0895,-3.0895,-3.1267,-3.1856,-3.2475,-3.2935,-3.3321,-3.3487,-3.3919,-3.4463,-3.5314,-3.5607,-3.5934,-3.6613,-3.6866,-3.6978,-3.6978,-3.6978,-3.6978,-3.6978,-3.6978,-3.6978,-3.6978,-3.6978,-3.6978,-3.6978,-3.6978,-3.6978,-3.6978,-3.6978,-3.6978,-3.6978,-3.6978,-3.6978,-3.6978,-3.6978,-3.6978,-3.6978,-3.6978,-3.6836,-3.6405,-3.6138,-3.5884,-3.5804,-3.5884,-3.5884,-3.5884,-3.6232,-3.6391,-3.647,-3.7148,-3.7457,-3.7457,-3.7976,-3.8472,0.0,0.0,0.0,-1.6355,0.0,0.0,0.0,0.0,-1.8111,0.0,0.0,0.0,0.0,0.0,0.0,0.0,0.0,0.0,0.0,0.0,0.0,0.0,0.0,0.0,0.0,0.0,0.0,-2.514,-2.4744,-2.4447,-2.4454,-2.5154,-2.5347,-2.4769,-2.5084,-2.565,-2.6517,-2.6798,-2.7126,-2.7522,-2.8007,-2.8111,-2.7973,-2.8099,-2.8111,-2.7973,-2.8351,-2.8419,-2.8247,-2.8645,-2.8724,-2.8578,-2.859,-2.8657,-2.8949,-2.9549,-3.0215,-3.0895,-3.0895,-3.0895,-3.097,-3.097,-3.0983,-3.1101,-3.1727,-3.1911,-3.2209,-3.3666,-3.4494,-3.51,-3.5927,-3.6543,-3.6978,-3.6978,-3.6978,-3.6978,-3.6978,-3.6978,-3.6978,-3.6978,-3.6978,-3.6978,-3.6978,-3.6978,-3.6978,-3.6978,-3.6978,-3.6978,-3.6978,-3.6978,-3.6978,-3.6978,-3.6978,-3.6978,-3.6978,-3.6978,-3.6836,-3.6405,-3.6563,-3.647,-3.6072,-3.6232,-3.6405,-3.6405,-3.6405,-3.647,-3.6665,-3.69,-3.6978,-3.7056,-3.7825,-3.8202,0.0,0.0,-1.6851,-1.5548,0.0,0.0,0.0,0.0,0.0,0.0,0.0,0.0,0.0,0.0,0.0,0.0,0.0,0.0,0.0,0.0,0.0,0.0,0.0,0.0,0.0,0.0,0.0,-2.4352,-2.4703,-2.484,0.0,-2.4792,-2.4708,-2.4364,-2.5073,-2.5495,-2.565,-2.6311,-2.6809,-2.7126,-2.7441,-2.7696,-2.7893,-2.7962,-2.7962,-2.7893,-2.8042,-2.795,-2.7765,-2.7914,-2.7926,-2.7846,-2.8179,-2.8419,-2.8657,-2.8803,-2.9184,-2.9549,-2.9999,-3.0152,-3.0393,-3.0921,-3.1071,-3.111,-3.1369,-3.1422,-3.1629,-3.2515,-3.3292,-3.4005,-3.4734,-3.5759,-3.6618,-3.6618,-3.7005,-3.738,-3.7226,-3.7226,-3.7148,-3.7056,-3.6978,-3.6978,-3.6978,-3.6978,-3.6978,-3.6978,-3.6978,-3.6978,-3.6978,-3.6978,-3.6978,-3.6978,-3.6978,-3.6978,-3.6978,-3.685,-3.6707,-3.6642,-3.6563,-3.6484,-3.6325,-3.6325,-3.6405,-3.6405,-3.6405,-3.6391,-3.6536,-3.6836,-3.6978,-3.6978,-3.7519,-3.7839,-1.4591,-1.5512,0.0,-1.484,-1.5543,0.0,-1.5384,0.0,0.0,0.0,0.0,0.0,0.0,0.0,0.0,0.0,0.0,0.0,0.0,-1.7278,0.0,0.0,0.0,0.0,0.0,0.0,-2.3391,-2.3973,-2.4623,-2.4923,0.0,0.0,-2.4377,-2.4035,-2.49,-2.5322,-2.5337,-2.6233,-2.6809,-2.6891,-2.7196,-2.7452,-2.7638,-2.7708,-2.7719,-2.7638,-2.7812,-2.7708,-2.751,-2.7684,-2.7684,-2.7696,-2.795,-2.8191,-2.8419,-2.8419,-2.8327,-2.8395,-2.8767,-2.9094,-2.9341,-3.0024,-3.0165,-3.0165,-3.0317,-3.0317,-3.0394,-3.1124,-3.183,-3.2551,-3.3422,-3.4437,-3.526,-3.535,-3.5885,-3.6331,-3.6253,-3.6341,-3.6415,-3.6256,-3.6415,-3.6587,-3.6573,-3.6808,-3.6978,-3.6978,-3.6978,-3.6978,-3.6978,-3.6978,-3.6978,-3.6978,-3.6978,-3.6978,-3.6978,-3.685,-3.6786,-3.6707,-3.6628,-3.6549,-3.6484,-3.6549,-3.6517,-3.6309,-3.6503,-3.6439,-3.6152,-3.6738,-3.6915,-3.6772,-3.7303,-3.7457]}]]